[[{"header":{"parameterUnit":"m.s-1","parameterCategory":1,"la1":30.6,"la2":29.2853,"lo1":-89.7004,"lo2":-87.6739,"dy":0.0162,"dx":0.0183,"nx":112,"ny":82,"refTime":"2024-03-31T06:00:00:Z","depth":0,"parameterNumber":2,"parameterNumberName":"U-component_of_WINDS"},"data":[0.0,0.0,0.0,0.0,0.0,0.0,0.0,0.0,0.0,0.0,0.0,0.0,0.0,0.0,0.0,0.0,0.0,0.0,0.0,0.0,0.0,0.0,0.0,0.0,0.0,0.0,0.0,0.0,0.0,0.0,0.0,0.0,0.0,0.0,0.0,0.0,0.0,0.0,0.0,0.0,0.0,0.0,0.0,0.0,0.0,0.0,0.0,0.0,0.0,0.0,0.0,0.0,0.0,0.0,0.0,0.0,0.0,0.0,0.0,0.0,0.0,0.0,0.0,0.0,0.0,0.0,0.0,0.0,0.0,0.0,0.0,0.0,0.0,0.0,0.0,0.0,0.0,0.0,0.0,0.0,0.0,0.0,0.0,0.0,0.0,0.0,0.0,0.0,0.0,0.0,4.614,4.9921,5.4216,5.6859,5.6969,5.55,5.3188,4.9921,0.0,0.0,0.0,0.0,0.0,0.0,0.0,0.0,0.0,0.0,0.0,0.0,0.0,0.0,0.0,0.0,0.0,0.0,0.0,0.0,0.0,0.0,0.0,0.0,0.0,0.0,0.0,0.0,0.0,0.0,0.0,0.0,0.0,0.0,0.0,0.0,0.0,0.0,0.0,0.0,0.0,0.0,0.0,0.0,0.0,0.0,0.0,0.0,0.0,0.0,0.0,0.0,0.0,0.0,0.0,0.0,0.0,0.0,0.0,0.0,0.0,0.0,0.0,0.0,0.0,0.0,0.0,0.0,0.0,0.0,0.0,0.0,0.0,0.0,0.0,0.0,0.0,0.0,0.0,0.0,0.0,0.0,0.0,0.0,0.0,0.0,0.0,0.0,0.0,0.0,0.0,0.0,0.0,0.0,0.0,0.0,0.0,0.0,0.0,0.0,0.0,0.0,0.0,0.0,4.7021,5.3041,5.5537,5.7079,5.7776,5.6345,5.4032,5.0802,0.0,0.0,0.0,0.0,0.0,0.0,0.0,0.0,0.0,0.0,0.0,0.0,0.0,0.0,0.0,0.0,0.0,0.0,0.0,0.0,0.0,0.0,0.0,0.0,0.0,0.0,0.0,0.0,0.0,0.0,0.0,0.0,0.0,0.0,0.0,0.0,0.0,0.0,0.0,0.0,0.0,0.0,0.0,0.0,0.0,0.0,0.0,0.0,0.0,0.0,0.0,0.0,0.0,0.0,0.0,0.0,0.0,0.0,0.0,0.0,0.0,0.0,0.0,0.0,0.0,0.0,0.0,0.0,0.0,0.0,0.0,0.0,0.0,0.0,0.0,0.0,0.0,0.0,0.0,0.0,0.0,0.0,0.0,0.0,0.0,0.0,0.0,0.0,0.0,0.0,0.0,0.0,0.0,0.0,0.0,0.0,0.0,0.0,0.0,0.0,0.0,0.0,0.0,4.6985,5.0802,5.462,5.6492,5.7409,5.7373,5.5868,5.3555,5.0288,4.6691,0.0,0.0,0.0,0.0,0.0,0.0,0.0,0.0,0.0,0.0,0.0,0.0,0.0,0.0,0.0,0.0,0.0,0.0,0.0,0.0,0.0,0.0,0.0,0.0,0.0,0.0,0.0,0.0,0.0,0.0,0.0,0.0,0.0,0.0,0.0,0.0,0.0,0.0,0.0,0.0,0.0,0.0,0.0,0.0,0.0,0.0,0.0,0.0,0.0,0.0,0.0,0.0,0.0,0.0,0.0,0.0,0.0,0.0,0.0,0.0,0.0,0.0,0.0,0.0,0.0,0.0,0.0,0.0,0.0,0.0,0.0,0.0,0.0,0.0,0.0,0.0,0.0,0.0,0.0,0.0,0.0,0.0,0.0,0.0,0.0,0.0,0.0,0.0,0.0,0.0,0.0,0.0,0.0,0.0,0.0,0.0,0.0,0.0,0.0,0.0,0.0,0.0,5.0288,5.3812,5.5427,5.7042,5.7666,5.6859,5.5317,5.3004,4.9701,4.6471,0.0,0.0,0.0,0.0,0.0,0.0,0.0,0.0,0.0,0.0,0.0,0.0,0.0,0.0,0.0,0.0,0.0,0.0,0.0,0.0,0.0,0.0,0.0,0.0,0.0,0.0,0.0,0.0,0.0,0.0,0.0,0.0,0.0,0.0,0.0,0.0,0.0,0.0,0.0,0.0,0.0,0.0,0.0,0.0,0.0,0.0,0.0,0.0,0.0,0.0,0.0,0.0,0.0,0.0,0.0,0.0,0.0,0.0,0.0,0.0,0.0,0.0,0.0,0.0,0.0,0.0,0.0,0.0,0.0,0.0,0.0,0.0,0.0,0.0,0.0,0.0,0.0,0.0,0.0,0.0,0.0,0.0,0.0,0.0,0.0,0.0,0.0,0.0,0.0,0.0,0.0,0.0,0.0,0.0,0.0,0.0,0.0,0.0,0.0,0.0,0.0,0.0,5.0655,5.3812,5.5427,5.7042,5.7666,5.6859,5.5317,5.3004,4.9701,4.6471,0.0,0.0,0.0,0.0,0.0,0.0,0.0,0.0,0.0,0.0,0.0,0.0,0.0,0.0,0.0,0.0,0.0,0.0,0.0,0.0,0.0,0.0,0.0,0.0,0.0,0.0,0.0,0.0,0.0,0.0,0.0,0.0,0.0,0.0,0.0,0.0,0.0,0.0,0.0,0.0,0.0,0.0,0.0,0.0,0.0,0.0,0.0,0.0,0.0,0.0,0.0,0.0,0.0,0.0,0.0,0.0,0.0,0.0,0.0,0.0,0.0,0.0,0.0,0.0,0.0,0.0,0.0,0.0,0.0,0.0,0.0,0.0,0.0,0.0,0.0,0.0,0.0,0.0,0.0,0.0,0.0,0.0,0.0,0.0,0.0,0.0,0.0,0.0,0.0,0.0,0.0,0.0,0.0,0.0,0.0,0.0,0.0,0.0,0.0,0.0,0.0,0.0,5.1426,5.4546,5.6198,5.7336,5.7483,5.6161,5.4583,5.205,4.8233,0.0,0.0,0.0,0.0,0.0,0.0,0.0,0.0,0.0,0.0,0.0,0.0,0.0,0.0,0.0,0.0,0.0,0.0,0.0,0.0,0.0,0.0,0.0,0.0,0.0,0.0,0.0,0.0,0.0,0.0,0.0,0.0,0.0,0.0,0.0,0.0,0.0,0.0,0.0,0.0,0.0,0.0,0.0,0.0,0.0,0.0,0.0,0.0,0.0,0.0,0.0,0.0,0.0,0.0,0.0,0.0,0.0,0.0,0.0,0.0,0.0,0.0,0.0,0.0,0.0,0.0,0.0,0.0,0.0,0.0,0.0,0.0,0.0,0.0,0.0,0.0,0.0,0.0,0.0,0.0,0.0,0.0,0.0,0.0,0.0,0.0,0.0,0.0,0.0,0.0,0.0,0.0,0.0,0.0,0.0,0.0,0.0,0.0,0.0,0.0,0.0,0.0,4.8233,5.2013,5.5023,5.6638,5.7519,5.7336,5.5721,5.4142,5.1463,4.7388,0.0,0.0,0.0,0.0,0.0,0.0,0.0,0.0,0.0,0.0,0.0,0.0,0.0,0.0,0.0,0.0,0.0,0.0,0.0,0.0,0.0,0.0,0.0,0.0,0.0,0.0,0.0,0.0,0.0,0.0,0.0,0.0,0.0,0.0,0.0,0.0,0.0,0.0,0.0,0.0,0.0,0.0,0.0,0.0,0.0,0.0,0.0,0.0,0.0,0.0,0.0,0.0,0.0,0.0,0.0,0.0,0.0,0.0,0.0,0.0,0.0,0.0,0.0,0.0,0.0,0.0,0.0,0.0,0.0,0.0,0.0,0.0,0.0,0.0,0.0,0.0,0.0,0.0,0.0,0.0,0.0,0.0,0.0,0.0,0.0,0.0,0.0,0.0,0.0,0.0,0.0,0.0,0.0,0.0,0.0,0.0,0.0,0.0,0.0,0.0,0.0,0.0,4.9003,5.238,5.5023,5.6638,5.7519,5.7336,5.5721,5.4142,5.1463,0.0,0.0,0.0,0.0,0.0,0.0,0.0,0.0,0.0,0.0,0.0,0.0,0.0,0.0,0.0,0.0,0.0,0.0,0.0,0.0,0.0,0.0,0.0,0.0,0.0,0.0,0.0,0.0,0.0,0.0,0.0,0.0,0.0,0.0,0.0,0.0,0.0,0.0,0.0,0.0,0.0,0.0,0.0,0.0,0.0,0.0,0.0,0.0,0.0,0.0,0.0,0.0,0.0,0.0,0.0,0.0,0.0,0.0,0.0,0.0,0.0,0.0,0.0,0.0,0.0,0.0,0.0,0.0,0.0,0.0,0.0,0.0,0.0,0.0,0.0,0.0,0.0,0.0,0.0,0.0,0.0,0.0,0.0,0.0,0.0,0.0,0.0,0.0,0.0,0.0,0.0,0.0,0.0,0.0,0.0,0.0,0.0,0.0,0.0,0.0,0.0,0.0,0.0,4.9958,5.3225,5.5868,5.7483,5.785,5.7336,5.5721,5.4142,5.1463,4.7388,0.0,0.0,0.0,0.0,0.0,0.0,0.0,0.0,0.0,0.0,0.0,0.0,0.0,0.0,0.0,0.0,0.0,0.0,0.0,0.0,0.0,0.0,0.0,0.0,0.0,0.0,0.0,0.0,0.0,0.0,0.0,0.0,0.0,0.0,0.0,0.0,0.0,0.0,0.0,0.0,0.0,0.0,0.0,0.0,0.0,0.0,0.0,0.0,0.0,0.0,0.0,0.0,0.0,0.0,0.0,0.0,0.0,0.0,0.0,0.0,0.0,0.0,0.0,0.0,0.0,0.0,0.0,0.0,0.0,0.0,0.0,0.0,0.0,0.0,0.0,0.0,0.0,0.0,0.0,0.0,0.0,0.0,0.0,0.0,0.0,0.0,0.0,0.0,0.0,0.0,0.0,0.0,0.0,0.0,0.0,0.0,0.0,0.0,0.0,0.0,0.0,0.0,5.0398,5.3592,5.6198,5.7813,5.7997,5.7336,5.5721,5.4436,5.1793,4.7388,0.0,0.0,0.0,0.0,0.0,0.0,0.0,0.0,0.0,0.0,0.0,0.0,0.0,0.0,0.0,0.0,0.0,0.0,0.0,0.0,0.0,0.0,0.0,0.0,0.0,0.0,0.0,0.0,0.0,0.0,0.0,0.0,0.0,0.0,0.0,0.0,0.0,0.0,0.0,0.0,0.0,0.0,0.0,0.0,0.0,0.0,0.0,0.0,0.0,0.0,0.0,0.0,0.0,0.0,0.0,0.0,0.0,0.0,0.0,0.0,0.0,0.0,0.0,0.0,0.0,0.0,0.0,0.0,0.0,0.0,0.0,0.0,0.0,0.0,0.0,0.0,0.0,0.0,0.0,0.0,0.0,0.0,0.0,0.0,0.0,0.0,0.0,0.0,0.0,0.0,0.0,0.0,0.0,0.0,0.0,0.0,0.0,0.0,0.0,0.0,0.0,0.0,5.0398,5.3665,5.6308,5.7923,5.8107,5.7483,5.5941,5.495,5.2417,4.7755,0.0,0.0,0.0,0.0,0.0,0.0,0.0,0.0,0.0,0.0,0.0,0.0,0.0,0.0,0.0,0.0,0.0,0.0,0.0,0.0,0.0,0.0,0.0,0.0,0.0,0.0,0.0,0.0,0.0,0.0,0.0,0.0,0.0,0.0,0.0,0.0,0.0,0.0,0.0,0.0,0.0,0.0,0.0,0.0,0.0,0.0,0.0,0.0,0.0,0.0,0.0,0.0,0.0,0.0,0.0,0.0,0.0,0.0,0.0,0.0,4.3961,4.2701,0.0,0.0,0.0,0.0,0.0,0.0,0.0,0.0,0.0,0.0,0.0,0.0,0.0,0.0,0.0,0.0,0.0,0.0,0.0,0.0,0.0,0.0,0.0,0.0,0.0,0.0,0.0,0.0,0.0,0.0,0.0,0.0,0.0,0.0,0.0,0.0,0.0,0.0,0.0,0.0,5.0398,5.4179,5.7152,5.8767,5.8951,5.8547,5.7556,5.5574,5.3151,5.0215,4.7095,0.0,0.0,0.0,0.0,0.0,0.0,0.0,0.0,0.0,0.0,0.0,0.0,0.0,0.0,0.0,0.0,0.0,0.0,0.0,0.0,0.0,0.0,0.0,0.0,0.0,0.0,0.0,0.0,0.0,0.0,0.0,0.0,0.0,0.0,0.0,0.0,0.0,0.0,0.0,0.0,0.0,0.0,0.0,0.0,0.0,0.0,0.0,0.0,0.0,0.0,0.0,0.0,0.0,0.0,0.0,0.0,0.0,0.0,0.0,0.0,4.6587,0.0,0.0,0.0,0.0,0.0,0.0,0.0,0.0,0.0,0.0,0.0,0.0,0.0,0.0,0.0,0.0,0.0,0.0,0.0,0.0,0.0,0.0,0.0,0.0,0.0,0.0,0.0,0.0,0.0,0.0,0.0,0.0,0.0,0.0,0.0,0.0,0.0,0.0,0.0,0.0,5.0949,5.4546,5.7446,5.9061,5.9575,5.9281,5.8107,5.6859,5.4766,5.1573,4.9003,0.0,0.0,0.0,0.0,0.0,0.0,0.0,0.0,0.0,0.0,0.0,0.0,0.0,0.0,0.0,0.0,0.0,0.0,0.0,0.0,0.0,0.0,0.0,0.0,0.0,0.0,0.0,0.0,0.0,0.0,0.0,0.0,0.0,0.0,0.0,0.0,0.0,0.0,0.0,0.0,0.0,0.0,0.0,0.0,0.0,0.0,0.0,0.0,0.0,0.0,0.0,0.0,0.0,5.465,5.5145,5.709,5.5597,5.5683,5.6683,5.2837,5.1157,5.0929,4.8435,0.0,0.0,0.0,0.0,0.0,0.0,0.0,0.0,0.0,0.0,0.0,0.0,0.0,0.0,0.0,0.0,0.0,0.0,0.0,0.0,0.0,0.0,0.0,0.0,5.0435,4.9481,4.6104,0.0,0.0,0.0,0.0,0.0,0.0,0.0,0.0,0.0,0.0,0.0,5.1977,5.5244,5.785,5.9465,6.0236,6.0089,5.8731,5.8253,5.6528,5.3041,5.1022,4.86,0.0,0.0,0.0,0.0,0.0,0.0,0.0,0.0,0.0,0.0,0.0,0.0,0.0,0.0,0.0,0.0,0.0,0.0,0.0,0.0,0.0,0.0,0.0,0.0,0.0,0.0,0.0,0.0,0.0,0.0,0.0,0.0,4.5224,4.6795,0.0,0.0,0.0,0.0,0.0,0.0,0.0,0.0,0.0,0.0,0.0,0.0,0.0,5.5274,5.6001,5.7454,5.8372,5.8681,5.9136,5.9595,5.9955,5.9671,5.997,6.0722,5.9397,0.0,5.4608,5.2068,0.0,0.0,0.0,0.0,0.0,0.0,0.0,0.0,0.0,0.0,0.0,0.0,0.0,0.0,0.0,0.0,0.0,0.0,0.0,0.0,0.0,0.0,5.161,5.3371,5.3775,5.3628,0.0,4.9994,4.7168,4.6471,4.4378,4.2249,0.0,0.0,0.0,0.0,0.0,0.0,5.3665,5.6895,5.9501,6.1117,6.1374,6.1374,6.1153,5.9208,5.7483,5.6235,5.3335,5.0839,4.9003,4.6581,0.0,0.0,0.0,0.0,0.0,0.0,0.0,0.0,0.0,0.0,0.0,0.0,0.0,0.0,0.0,0.0,0.0,0.0,0.0,0.0,0.0,0.0,0.0,0.0,0.0,0.0,0.0,0.0,0.0,4.6605,4.863,4.9771,4.948,4.9251,0.0,0.0,0.0,0.0,0.0,0.0,0.0,0.0,0.0,5.6659,5.8741,5.9996,6.0342,6.1977,6.3088,6.3564,6.3461,6.3691,6.4139,6.3652,6.38,6.4412,6.36,6.2658,6.1462,5.6809,5.4505,5.3628,0.0,0.0,0.0,0.0,5.0116,5.1231,5.1936,5.2567,5.2865,5.1825,0.0,0.0,0.0,0.0,0.0,0.0,0.0,0.0,0.0,0.0,5.5097,5.6712,5.7116,5.7226,5.7666,5.6014,5.3518,0.0,4.7865,4.5957,4.5259,4.5076,0.0,0.0,0.0,5.2087,5.5317,5.7776,5.9832,6.141,6.1998,6.2108,6.163,6.0199,5.8804,5.7556,5.528,5.3298,5.1683,4.9701,4.7498,0.0,0.0,0.0,0.0,0.0,0.0,0.0,0.0,0.0,0.0,0.0,0.0,0.0,0.0,0.0,0.0,0.0,0.0,0.0,0.0,0.0,0.0,0.0,0.0,0.0,0.0,0.0,0.0,4.9565,5.1348,5.2615,5.2209,5.2056,0.0,0.0,0.0,0.0,0.0,0.0,5.6896,5.8011,5.9281,6.0742,6.3002,6.4206,6.4206,6.5651,6.6726,6.7357,6.6742,6.678,6.7357,6.6742,6.6726,6.718,6.6528,6.6548,6.6651,6.1073,5.8287,5.7338,5.5384,5.4274,5.3774,5.3977,5.4689,5.5697,5.6139,5.6883,5.7449,5.5916,5.4909,5.3791,5.0711,0.0,0.0,0.0,0.0,5.4766,5.6161,5.7116,5.807,5.9501,5.9832,5.9979,6.0566,6.0236,5.8584,0.0,5.172,5.0031,4.9627,4.9077,0.0,5.0582,5.2197,5.4326,5.7336,5.8951,6.0346,6.1777,6.2438,6.2585,6.1961,6.097,5.9905,5.8694,5.6895,5.5354,5.4179,5.238,5.0362,4.8122,0.0,0.0,0.0,0.0,0.0,0.0,0.0,0.0,0.0,0.0,0.0,0.0,0.0,0.0,0.0,0.0,0.0,0.0,0.0,0.0,0.0,0.0,0.0,0.0,0.0,0.0,0.0,0.0,0.0,5.5116,5.5385,0.0,0.0,0.0,0.0,5.6575,5.7443,5.8658,6.0435,6.2089,6.3397,6.432,6.6013,6.6898,6.6898,6.7821,6.8294,6.8359,6.8282,6.8282,6.8359,6.8282,6.8294,6.8333,6.8256,6.8229,6.7917,6.4106,6.2498,6.2162,5.9536,5.8943,5.945,5.8333,5.8947,6.0304,6.0073,6.0671,6.1274,6.0295,5.8231,5.58,5.3857,5.3732,0.0,0.0,5.6492,5.796,5.8804,5.9612,6.0419,6.1263,6.1484,6.1484,6.152,6.152,6.0713,0.0,5.6345,5.473,5.3225,0.0,5.3188,5.4032,5.5537,5.7446,5.9905,6.097,6.1814,6.2658,6.2805,6.2805,6.2768,6.13,6.0382,6.0272,5.807,5.6712,5.6638,5.4363,5.2307,5.0655,4.7425,0.0,0.0,0.0,0.0,0.0,0.0,0.0,0.0,0.0,0.0,0.0,0.0,0.0,0.0,0.0,0.0,0.0,0.0,0.0,0.0,0.0,0.0,0.0,0.0,0.0,0.0,0.0,0.0,5.7873,5.8104,0.0,5.8889,5.8466,5.8927,6.0873,6.1334,6.2449,6.4743,6.5436,6.6397,6.7859,6.8975,6.9821,7.036,7.1245,7.1668,7.1668,7.1668,7.1668,7.1668,7.1668,7.1668,7.1668,7.1668,7.1332,7.0679,6.8761,6.696,6.5206,6.3664,6.3161,6.3226,6.2053,6.2329,6.3162,6.2333,6.2628,6.3268,6.2173,6.0364,5.8483,5.7654,5.7524,5.7722,5.7859,5.9098,6.0346,6.0676,6.1337,6.2034,6.2291,6.2365,6.2365,6.2365,6.2365,6.2144,6.1263,5.9391,5.774,5.7189,5.6638,5.6565,5.7373,5.7997,5.9024,6.0933,6.141,6.1924,6.2732,6.2805,6.2805,6.2805,6.1337,6.0419,6.0419,5.8621,5.7116,5.6051,5.5207,5.3739,5.161,4.9407,4.6911,0.0,0.0,0.0,0.0,0.0,0.0,0.0,0.0,0.0,0.0,0.0,0.0,0.0,0.0,0.0,0.0,0.0,0.0,0.0,0.0,0.0,0.0,0.0,0.0,0.0,5.6665,5.9011,6.0973,6.1473,6.1897,6.2474,6.2012,6.2474,6.4436,6.4859,6.6013,6.8244,6.8667,6.9475,7.0937,7.1514,7.2052,7.2629,7.3206,7.3514,7.3514,7.3514,7.3514,7.3514,7.3514,7.3514,7.3514,7.3514,7.3168,7.2591,7.2014,7.0508,6.8445,6.6969,6.6345,6.6147,6.5285,6.53,6.5609,6.4708,6.4778,6.5078,6.3681,6.2392,6.1209,6.0417,6.0283,6.0396,6.0231,6.1091,6.2083,6.2047,6.2451,6.2805,6.2805,6.2805,6.2805,6.2805,6.2805,6.2805,6.2805,6.13,6.0015,6.0015,5.9355,5.9098,5.9905,6.0015,6.0493,6.1814,6.1998,6.2218,6.2768,6.2805,6.2805,6.2805,6.1337,6.0419,6.0419,5.8657,5.7116,5.6051,5.5464,5.4326,5.2454,4.9994,4.7535,4.5076,0.0,0.0,0.0,0.0,0.0,0.0,0.0,0.0,0.0,0.0,0.0,0.0,0.0,0.0,0.0,0.0,0.0,0.0,0.0,0.0,0.0,0.0,0.0,5.7011,5.9319,6.1858,6.4397,6.5436,6.5974,6.6013,6.6013,6.6359,6.7205,6.8052,6.9244,7.0898,7.1783,7.2629,7.3514,7.3553,7.3553,7.3591,7.3591,7.3591,7.3591,7.3591,7.3591,7.3591,7.3591,7.3591,7.3591,7.3591,7.3553,7.3553,7.3553,7.3014,7.1975,6.9393,6.8405,6.8339,6.8005,6.7839,6.774,6.7354,6.7196,6.6817,6.5003,6.4387,6.4027,6.2098,6.1997,6.2484,6.2345,6.2671,6.3075,6.3064,6.2978,6.2879,6.2879,6.2879,6.2879,6.2879,6.2842,6.2842,6.2805,6.2181,6.163,6.163,6.1006,6.075,6.152,6.163,0.0,6.2695,6.2805,6.2805,6.2805,6.2805,6.2805,6.2805,6.1337,6.0419,6.0419,5.8143,5.6785,5.6748,5.5244,5.3995,5.3188,4.926,4.603,4.3644,0.0,0.0,0.0,0.0,0.0,0.0,0.0,0.0,0.0,0.0,0.0,0.0,0.0,0.0,0.0,0.0,0.0,0.0,0.0,0.0,0.0,5.7165,5.9473,5.9704,6.1935,6.4282,6.6167,6.7167,6.7975,6.859,6.8667,6.9244,7.0667,7.1014,7.1629,7.2745,7.3014,7.3514,7.4361,7.4361,7.4668,7.5322,7.5322,7.5322,7.5322,7.5322,7.5322,7.5322,7.5322,7.5322,7.5322,7.5322,7.4938,7.4361,7.4361,7.3899,7.3014,7.1583,7.0671,6.9999,6.9214,6.8417,6.7794,6.7695,6.7543,6.7278,6.6597,6.6367,6.6206,6.5411,6.5216,6.5245,6.5001,6.4939,6.4874,6.4856,6.4706,6.4618,6.4604,6.4604,6.4457,6.387,6.3723,6.3576,6.2915,6.2622,6.2475,6.2475,6.2291,6.2218,6.2438,6.2475,6.2548,6.2768,6.2805,6.2805,6.2805,6.2805,6.2805,6.2805,6.1337,6.0419,6.0419,5.8143,5.6528,5.5941,5.495,5.3739,5.2344,5.0655,4.8857,0.0,0.0,0.0,0.0,0.0,0.0,0.0,0.0,0.0,0.0,0.0,0.0,0.0,0.0,0.0,0.0,0.0,0.0,0.0,0.0,0.0,0.0,6.0396,6.2743,6.382,6.5243,6.6821,6.8475,6.9475,7.0321,7.1206,7.1283,7.1706,7.2668,7.3053,7.363,7.4514,7.4899,7.5476,7.6284,7.6284,7.6553,7.7053,7.7053,7.7053,7.7053,7.7053,7.7053,7.7053,7.6707,7.6553,7.6515,7.6169,7.5707,7.5245,7.5245,7.4745,0.0,0.0,0.0,0.0,0.0,7.0042,6.9425,6.906,6.8803,6.8579,6.8063,6.7883,6.7692,6.7124,6.6745,6.6553,6.6319,6.6015,6.5663,6.562,6.5455,6.5316,6.5301,6.5338,6.5139,6.4662,6.4604,6.4457,6.3943,6.3576,0.0,6.3356,6.3062,6.2805,6.2805,6.2805,6.2805,6.2805,6.2805,6.2805,6.2805,6.2805,6.2805,6.2805,6.163,0.0,0.0,0.0,5.6785,5.5647,5.5133,0.0,0.0,0.0,5.1683,5.0362,0.0,0.0,0.0,4.7168,4.7535,0.0,0.0,0.0,0.0,0.0,0.0,0.0,0.0,0.0,0.0,0.0,0.0,0.0,0.0,0.0,0.0,6.3358,6.5897,6.8359,6.8783,6.9398,7.086,7.1822,7.2706,7.3553,7.363,7.3745,7.3899,7.4591,7.5361,7.6245,7.7015,0.0,0.0,0.0,7.8477,7.8477,7.8477,7.8477,7.8477,7.8477,7.8477,7.8477,7.7746,7.7438,7.74,7.663,7.6245,7.613,7.613,7.563,7.4745,7.385,7.3504,7.3388,7.258,7.2157,7.1887,7.1091,0.0,0.0,6.9527,6.9195,6.8944,6.7997,6.7467,6.7165,6.7021,6.6528,6.6063,6.5965,6.5801,6.5595,6.5595,6.5543,6.5579,6.5417,6.5433,6.5448,6.5338,6.4714,6.4237,6.4237,6.3429,6.2805,6.2805,6.2805,6.2805,6.2805,6.2805,6.2805,6.2805,0.0,0.0,6.2805,6.2071,6.13,6.0566,5.9024,5.7409,5.5794,5.5721,5.539,5.4693,5.4656,5.4363,5.3739,5.3849,5.4252,5.4913,5.3188,5.2454,0.0,0.0,0.0,0.0,0.0,0.0,0.0,0.0,0.0,0.0,0.0,0.0,0.0,0.0,0.0,6.3435,6.6013,6.8321,7.0167,7.1014,7.1591,7.1898,7.2706,7.3591,7.4399,7.4476,7.5053,7.6476,7.6707,7.713,7.7977,7.8169,7.8323,7.8477,7.8477,7.8477,7.8477,7.8477,7.8477,7.8477,0.0,0.0,7.8477,7.8323,7.8246,7.8246,7.8092,7.763,7.7053,7.7053,7.6515,7.5592,7.4091,7.3504,7.3493,7.3293,7.3206,7.3147,7.2954,7.2839,7.2552,7.1612,7.1259,7.0964,6.9904,6.9298,0.0,6.8659,6.8203,6.7753,6.7531,6.7337,6.7247,6.7247,6.7247,6.71,6.6406,6.626,6.6076,6.5433,6.5139,6.5081,6.5081,6.3833,6.2805,6.2805,6.2805,6.2805,6.2805,6.2805,6.2805,6.2805,6.2805,6.2805,6.2805,6.2071,6.152,6.1374,5.9869,5.8253,5.6638,5.6565,5.6492,5.6345,5.6345,5.6602,5.7079,5.774,5.8143,5.8217,5.5941,5.5244,0.0,0.0,0.0,0.0,0.0,0.0,0.0,0.0,0.0,0.0,0.0,5.7126,5.9665,0.0,6.3551,6.609,6.8282,7.009,7.136,7.2629,7.3437,7.3437,7.386,7.4437,7.5284,7.5745,7.6361,7.7207,7.7669,7.8246,7.9092,7.9131,7.9361,7.9785,7.9785,7.9785,7.9785,7.9785,7.9785,7.9785,7.9785,7.9785,7.9785,7.9361,7.9131,7.9131,7.8669,7.8246,7.79,7.79,7.7429,7.6583,7.5736,7.5159,7.4697,7.4255,7.4101,7.4043,7.363,7.3399,7.3217,7.2732,7.2502,7.231,7.1663,7.1197,7.0875,7.0555,7.0102,6.9651,6.9426,6.8914,6.8419,6.8419,6.8035,6.7577,6.7193,6.712,6.6973,6.657,6.6166,6.5909,6.5925,6.4897,6.4053,6.4053,6.4053,6.4053,6.4053,6.3723,6.3466,6.3466,6.3062,6.2805,6.2805,6.2071,6.1594,6.1594,6.0456,5.9465,5.8621,5.8621,5.8621,5.8621,5.8621,5.8804,5.9208,5.9612,6.0015,6.0382,5.9575,5.8988,0.0,0.0,0.0,0.0,0.0,0.0,0.0,5.5241,5.6742,5.8665,5.9665,6.0973,6.3358,6.4666,6.6128,6.8513,7.0167,7.1514,7.2552,7.386,7.4784,7.4938,7.4938,7.5284,7.6169,7.6899,7.7438,7.7746,7.84,7.9131,8.0015,8.0054,8.0362,8.1093,8.1093,8.1093,8.1093,8.1093,8.1093,8.1093,8.1093,8.1093,8.1093,8.0362,8.0054,8.0015,7.9131,7.8746,7.8746,7.8584,7.8122,7.7535,7.7535,7.7083,7.6361,7.5332,7.4947,7.487,7.4187,7.3918,7.3803,7.362,7.3486,7.3322,7.3029,7.2653,7.2238,7.2024,7.1565,7.1109,7.0914,7.0106,6.9389,6.9336,6.8713,6.8108,6.7961,6.7961,6.7924,6.7724,6.7156,6.6753,6.6733,6.6219,6.5668,6.5375,6.5301,6.5301,6.5301,6.4714,6.431,6.431,6.3723,6.3246,6.3062,6.2291,6.1814,6.1814,6.1227,6.0823,6.0639,6.0639,6.0639,6.0639,6.0639,6.0713,6.086,6.1043,6.1447,6.2108,6.2915,6.2511,5.428,5.3318,5.2702,5.3587,5.401,5.4818,0.0,5.7857,5.8704,6.1166,6.232,6.3435,6.5282,6.6898,6.8552,7.0321,7.1437,7.2591,7.4207,7.4591,7.4976,7.5745,7.5861,7.6207,7.7053,7.7246,7.79,7.94,7.9592,8.0054,8.09,8.0939,8.1016,8.1093,8.1093,8.1093,8.1093,8.1093,8.1093,8.1093,8.1093,8.1093,8.1093,8.1016,8.0939,8.09,8.0015,7.9631,7.9592,7.8844,7.8421,7.8344,7.8344,7.8305,7.8036,7.6438,7.5861,7.5861,7.5745,7.5707,7.5592,7.4793,7.4447,7.4196,7.3318,7.2699,7.2226,7.2087,7.1631,7.1227,7.0953,7.0613,7.0302,7.018,6.9979,6.963,6.8914,6.8803,6.8529,6.7851,6.7614,6.7577,6.7577,6.7467,6.6953,6.5521,6.5301,6.5301,6.5301,6.5228,6.5191,6.5191,6.5081,6.4751,6.4016,6.3172,6.2695,6.2695,6.2585,6.2218,6.1484,6.1484,6.1484,6.1484,6.1484,6.1814,6.2548,6.3319,6.3723,6.3833,6.464,6.453,5.4972,5.4934,5.5511,5.5857,5.7049,5.8588,6.0165,6.1281,6.2397,6.3974,6.4936,6.6051,6.7782,6.8667,6.9706,7.136,7.2399,7.336,7.4553,7.513,7.5592,7.5976,7.6015,7.6322,7.7207,7.7707,7.8515,7.9708,8.0285,8.0708,8.1093,8.1093,8.1093,8.1093,8.1554,8.1785,8.1785,8.2285,8.2285,8.1785,8.1785,8.1554,8.1093,8.1093,8.1093,8.1093,8.0708,8.0554,8.0516,8.0161,7.97,7.9246,7.9246,7.8938,7.8438,7.7699,7.7429,7.7429,7.7429,7.716,7.6698,7.6322,7.5822,7.5234,7.4729,7.4366,7.4068,7.3855,7.3495,7.3182,7.2828,7.2099,7.1405,7.1158,7.0587,7.0017,6.9668,6.9577,6.9466,6.9173,6.9082,6.9082,6.9082,6.8715,6.8164,6.7504,6.699,6.6696,6.6696,6.6292,6.5815,6.5375,6.5301,6.5154,6.4824,6.4457,6.4273,6.4273,6.4273,6.4127,6.3759,6.3759,6.3759,6.3759,6.3759,6.3943,6.4273,6.464,6.4787,6.4824,6.5632,6.5815,5.5742,5.6395,5.7742,5.7973,5.9627,6.1435,6.2551,6.3743,6.4859,6.5705,6.6744,6.7821,6.9129,6.9706,7.0591,7.2283,7.3091,7.386,7.4899,7.5592,7.5899,7.5668,7.5861,7.6245,7.6861,7.79,7.8861,7.9746,8.0592,8.1093,8.1093,8.1323,8.1439,8.1439,8.2247,8.267,8.267,8.3285,8.3285,8.267,8.267,8.2362,8.1785,8.1785,8.167,8.1439,8.1439,8.1285,8.1093,8.1093,8.0746,8.0138,8.0138,7.9792,7.9223,7.9238,7.8892,7.8507,7.8507,7.8122,7.763,7.7622,7.7006,7.6216,7.6082,7.5786,7.5413,7.5169,7.4866,7.4556,7.4212,7.3266,7.2384,7.2075,7.1427,7.0689,7.0506,7.044,7.0367,7.0127,7.0127,7.0091,7.011,6.9633,6.9229,6.9229,6.8752,6.8201,6.776,6.7173,6.6623,6.6035,6.5778,6.5632,6.5632,6.5448,6.5301,6.5301,6.5301,6.5301,6.5301,6.5301,6.5301,6.5301,6.5301,6.5301,6.5301,6.5521,6.5742,6.5999,6.6806,6.7283,5.7165,5.8165,5.9627,6.0473,6.1358,6.2474,6.4166,6.4551,6.4859,6.5705,6.7205,6.8398,6.8436,6.9783,7.1437,7.3168,7.3476,7.4091,7.5745,7.5976,7.5707,7.4861,7.5476,7.6015,7.6053,7.7515,7.8861,7.9746,8.0592,8.1093,8.1093,8.1823,8.2247,8.2247,8.3093,8.3555,8.3555,8.3593,8.3593,8.3555,8.3555,8.3555,8.3516,8.3548,8.3054,8.2285,8.2278,8.1816,8.1093,8.1093,8.1093,8.1054,8.1054,8.1054,8.1016,8.1016,7.9946,7.8531,7.8531,7.8492,7.8454,7.843,7.7843,7.7044,7.7006,7.6284,7.5447,7.5225,7.497,7.4595,7.4177,7.3663,7.3178,7.2998,7.2679,7.2181,7.1464,7.128,7.1003,7.0229,7.0083,7.0104,7.0108,7.0054,7.0073,7.0073,7.0036,6.9449,6.7907,6.765,6.765,6.7614,6.6916,6.6476,6.6476,6.5742,6.5301,6.5301,6.5301,6.5301,6.5301,6.5301,6.5301,6.5301,6.5301,6.5301,6.5301,6.6072,6.6843,6.765,6.8458,6.9265,5.778,5.9088,6.0704,6.2127,6.3128,6.4051,6.5205,6.5474,6.5705,6.6513,6.7128,6.7705,6.8282,6.9321,7.0475,7.1591,7.2745,7.3899,7.4976,7.563,7.5899,7.5592,7.5822,7.6015,7.6015,7.7515,7.8861,7.9746,8.0592,8.1323,8.1862,8.2131,8.2554,8.3131,8.4016,8.4478,8.4478,8.4978,8.4978,8.4478,8.3862,8.3593,8.3593,8.3625,8.3471,8.3131,8.3163,8.2663,8.1893,8.1893,8.1554,8.1093,8.1093,8.1093,8.1093,8.1093,8.0746,8.0215,8.0215,7.9869,7.9338,7.9361,7.8754,7.8023,7.7929,7.7693,7.7347,7.7002,7.6688,7.6348,7.5739,7.5256,7.471,7.3811,7.3456,7.3067,7.2255,7.2108,7.2034,7.172,7.1684,7.1647,7.1668,7.1284,7.0734,7.0183,6.9633,6.9119,6.8568,6.8017,6.7687,6.7687,6.7467,6.7283,6.7283,6.7026,6.688,6.688,6.688,6.688,6.688,6.688,6.688,6.688,6.688,6.688,6.688,6.7687,6.8238,6.8531,6.9302,6.9853,5.8973,6.0627,6.2435,6.3512,6.4436,6.5205,6.5782,6.5897,6.6051,6.6551,6.6667,6.6821,6.7398,6.8205,6.9129,7.0283,7.1898,7.3437,7.4553,7.5438,7.5861,7.5553,7.5822,7.6015,7.6015,7.7515,7.8707,7.9285,8.0708,8.1747,8.2285,8.2901,8.3478,8.4055,8.4901,8.5324,8.5324,8.5863,8.5863,8.5324,8.4747,8.4478,8.4478,8.4478,8.4324,8.4055,8.4087,8.3587,8.2747,8.2747,8.2477,8.1984,8.1977,8.1785,8.1516,8.1516,8.1323,8.1054,8.1093,8.0708,8.0177,8.0177,7.9569,7.88,7.8707,7.8442,7.802,7.7676,7.7376,7.7055,7.6391,7.5947,7.5495,7.4559,7.4264,7.397,7.3465,7.3369,7.3333,7.3377,7.3156,7.2936,7.2936,7.2275,7.1541,7.1027,7.0257,6.9669,6.9376,6.8862,6.8531,6.8531,6.8531,6.8421,6.8128,6.8128,6.8017,6.7724,6.7687,6.7687,6.7687,6.7687,6.7834,6.8128,6.8128,6.8274,6.8531,6.9082,6.9486,6.9779,7.0293,7.0697,6.0666,6.2743,6.4628,6.4666,6.5282,6.5897,6.5897,6.5859,6.582,6.582,6.5782,6.5705,6.5743,6.6436,6.7552,6.9283,7.1052,7.2783,7.4476,7.5476,7.5784,7.4976,7.563,7.613,7.613,7.7592,7.8592,7.8631,8.09,8.2324,8.2362,8.3978,8.4939,8.4978,8.5709,8.6094,8.6094,8.6094,8.6094,8.6094,8.6094,8.6094,8.6094,8.6094,8.5709,8.4983,8.4983,8.445,8.3682,8.3682,8.3643,8.3605,8.3599,8.3093,8.2355,8.2355,8.1816,8.1016,8.1138,8.1093,8.09,8.0869,8.0222,7.9422,7.9307,7.8543,7.7646,7.7303,7.703,7.6742,7.6253,7.589,7.5592,7.5263,7.5065,7.4985,7.4897,7.4909,7.4897,7.4895,7.4272,7.3758,7.3758,7.312,7.2569,7.2569,7.1872,7.1064,7.0257,7.011,7.011,7.011,7.011,6.9779,6.9045,6.8972,6.8641,6.7871,6.7797,6.7797,6.7797,6.7797,6.8164,6.8972,6.8972,6.9339,7.011,7.0146,7.055,7.1321,7.1358,7.1798,6.2267,6.3614,6.4743,6.5397,6.5743,6.5897,6.5897,6.5397,6.4936,6.4936,6.3935,6.3243,6.3858,6.4666,6.5782,6.7475,7.0244,7.2783,7.4476,7.6015,7.7092,7.7476,7.7707,7.7861,7.7861,7.8823,7.9746,8.04,8.1593,8.2593,8.3208,8.4324,8.517,8.5786,8.5978,8.6094,8.6094,8.6094,8.6094,8.6094,8.6094,8.6094,8.6094,8.6094,8.5978,8.5786,8.5786,8.533,8.4566,8.4566,8.4181,8.3605,8.3605,8.3423,8.3128,8.3131,8.2887,8.2516,8.2476,8.1666,8.0645,8.0566,8.0346,8.0044,7.9856,7.9505,7.9107,7.8791,7.8454,7.8031,7.7608,7.7282,7.6876,7.602,7.5825,7.5605,7.5043,7.4909,7.4872,7.4897,7.4702,7.4602,7.4565,7.3927,7.3377,7.3377,7.2716,7.1908,7.1101,7.0477,7.011,7.011,7.011,7.0,6.9816,6.9779,6.9706,6.9486,6.9486,6.9486,6.9486,6.9486,6.9559,6.9779,6.9779,6.9889,7.011,7.0697,7.1101,7.1321,7.1908,7.2642,6.3984,6.5076,6.582,6.6307,6.6436,6.6244,6.5513,6.4666,6.3935,6.3589,6.2166,6.1089,6.155,6.2666,6.4051,6.5743,6.9167,7.236,7.4399,7.6207,7.7592,7.84,7.8477,7.8631,7.9015,7.9862,8.0708,8.1554,8.2401,8.3247,8.4132,8.4978,8.5632,8.6094,8.6094,8.6094,8.6094,8.6094,8.6094,8.6094,8.6094,8.6094,8.6094,8.6094,8.6094,8.6094,8.6094,8.5863,8.5406,8.5406,8.5137,8.4714,8.4714,8.4421,8.3939,8.3895,8.3483,8.2872,8.2732,8.1919,8.0937,8.0728,8.0228,7.9713,7.96,7.9358,7.9067,7.8878,7.8586,7.8258,7.79,7.7754,7.7451,7.6803,7.6594,7.6484,7.602,7.5947,7.5837,7.5507,7.5422,7.5299,7.4992,7.4551,7.4221,7.4221,7.3854,7.3413,7.2936,7.1872,7.1138,7.1138,7.1138,7.1027,7.066,7.0624,7.0477,7.011,7.011,7.011,7.011,7.011,7.0257,7.0624,7.0624,7.0807,7.1138,7.1615,7.2018,7.2349,7.2826,7.345,6.5625,6.6654,6.7282,6.7269,6.7192,6.6667,6.4974,6.3743,6.2704,6.1781,6.0127,5.8896,5.9127,6.0512,6.2204,6.4128,6.7975,7.1629,7.4168,7.6245,7.7746,7.8592,7.8746,7.9169,8.0054,8.0823,8.1631,8.2593,8.3362,8.4093,8.4863,8.567,8.6094,8.6094,8.6094,8.6094,8.6094,8.6094,8.6094,8.6094,8.6094,8.6094,8.6094,8.6094,8.6094,8.6094,8.6094,8.6094,8.6094,8.6094,8.6094,8.6094,8.6094,8.557,8.4819,8.4632,8.3823,8.2824,8.2601,8.2072,8.1434,8.1102,8.0245,7.9241,7.9266,7.8953,7.8663,7.8517,7.8387,7.8179,7.7855,7.777,7.7635,7.7378,7.7304,7.7304,7.7304,7.7304,7.7121,7.6387,7.6276,7.6056,7.5359,7.5139,7.5065,7.5065,7.4992,7.4918,7.4918,7.367,7.2789,7.2679,7.2679,7.2349,7.1541,7.1468,7.1174,7.044,7.0403,7.0403,7.0403,7.0403,7.077,7.1468,7.1578,7.1982,7.2679,7.2789,7.3193,7.3854,7.3854,7.4294,6.664,6.7513,6.8191,6.8179,6.7628,6.6667,6.4974,6.2858,6.0781,5.9281,5.7049,5.578,5.7165,5.828,5.9973,6.3051,6.7128,7.0821,7.336,7.6361,7.8592,7.9477,8.0208,8.0977,8.1785,8.2016,8.2747,8.4324,8.4593,8.4747,8.4901,8.567,8.6094,8.6094,8.6094,8.6094,8.6094,8.6094,8.6094,8.6094,8.6094,8.6094,8.6094,8.6094,8.6094,8.6094,8.6094,0.0,8.6094,8.6094,8.6094,8.6094,8.6065,8.5849,8.5475,8.5155,8.4635,8.4041,8.3653,8.2769,8.1747,8.1326,8.0837,8.0488,8.0444,8.023,8.0022,8.0036,7.9805,7.9507,7.8787,7.8529,7.821,7.7488,7.7304,7.7304,7.7304,7.7304,7.7268,7.7121,7.7121,7.7084,7.6937,7.635,7.5909,7.5909,7.5322,7.4918,7.4918,7.4661,7.4221,7.356,7.3487,7.3156,7.2349,7.2312,7.2239,7.2092,7.2092,7.2092,7.2092,7.2092,7.2165,7.2312,7.2936,7.334,7.3487,7.4147,7.4588,7.4698,7.4698,7.5139,6.7552,6.841,6.9075,6.9102,6.8075,6.6538,6.4385,6.1618,5.9027,5.7302,5.5263,5.4223,5.5472,5.7126,5.9281,6.2204,6.6244,7.009,7.3091,7.6015,7.8361,7.9669,8.0554,8.14,8.2208,8.2708,8.3516,8.4786,8.5286,8.5517,8.5517,8.5901,8.6094,8.6094,8.6094,8.6094,8.6094,8.6094,8.6094,8.6094,8.6094,8.6094,8.6094,8.6094,8.6094,8.6094,8.6094,8.6094,8.6094,8.6094,8.606,8.6065,8.5923,8.5742,8.5471,8.5094,8.4551,8.3982,8.3616,8.2917,8.2128,8.1881,8.1155,8.0382,8.0331,8.0231,8.0057,8.0057,8.0003,7.98,7.938,7.9286,7.9129,7.8673,7.8626,7.8589,7.8589,7.8589,7.8589,7.8589,7.8259,7.8002,7.8002,7.7304,7.6717,7.6717,7.6423,7.6166,7.6166,7.6166,7.5689,7.4478,7.4331,7.4184,7.378,7.3744,7.3744,7.3744,7.3744,7.3744,7.3744,7.3744,7.3744,7.3744,7.4147,7.4331,7.4331,7.4735,7.5139,7.5542,7.5542,7.5983,6.8152,6.9152,6.991,6.9756,6.8394,6.6408,6.3643,6.0441,5.7482,5.557,5.382,5.2992,5.4031,5.6148,5.8572,6.1127,6.5089,6.8936,7.1975,7.4899,7.7361,7.9054,8.0362,8.1477,8.2477,8.3362,8.4209,8.5093,8.5747,8.6094,8.6094,8.6094,8.6094,8.6094,8.6094,8.6094,8.6094,8.6094,8.6094,8.6094,8.6094,8.6094,8.6094,8.6094,8.6094,8.6094,8.6094,8.6094,8.6094,8.606,8.6026,8.5961,8.5779,8.5513,8.5105,8.4703,8.4129,8.3545,8.3186,8.2806,8.2343,8.237,8.1517,8.0487,8.0487,8.0414,8.0341,8.0341,8.0341,8.0304,8.0121,8.0039,8.0021,7.981,7.9837,7.98,7.98,7.98,7.98,7.98,7.9286,7.8846,7.8846,7.8148,7.7598,7.7598,7.7451,7.7304,7.7304,7.7304,7.6827,7.5579,7.5285,7.5102,7.4918,7.4918,7.4918,7.4918,7.4918,7.4918,7.4918,7.4918,7.4918,7.4918,7.5065,7.5175,7.5175,7.5359,7.5763,7.635,7.657,7.6974,6.8152,6.9602,7.0629,6.9871,6.8394,6.6254,6.299,5.9547,5.6422,5.3951,5.2087,5.1414,5.3032,5.4726,5.6746,5.9303,6.3306,6.6769,6.8629,7.236,7.5592,7.7323,7.9631,8.1747,8.3324,8.4286,8.5132,8.594,8.6055,8.6094,8.6094,8.6094,8.6094,8.6094,8.6094,8.6094,8.6094,8.6094,8.6094,8.6094,8.6094,8.6094,8.6094,8.6094,8.6094,8.6094,8.6094,8.6094,0.0,8.6031,8.5923,8.5815,8.5473,8.5143,8.4787,8.4078,8.349,8.3106,8.2622,8.2343,8.2186,8.2251,8.2113,8.2003,8.2003,8.2003,8.2003,8.2003,8.2003,8.1819,8.1048,8.0865,8.0718,7.9984,7.98,7.98,7.98,7.98,7.98,7.98,7.9727,7.969,7.969,7.9029,7.8479,7.8479,7.7818,7.7304,7.7304,7.7304,7.7268,7.7121,7.6423,7.5689,7.4955,7.4918,7.4918,7.4918,7.4918,7.4918,7.4918,7.4918,7.4918,7.4918,7.5616,7.5983,7.5983,7.6717,7.7157,7.7231,7.8002,7.8405,6.7395,6.8883,7.0102,6.9794,6.7999,6.5615,6.2757,5.9065,5.5643,5.3628,5.1876,5.1068,5.2223,5.3841,5.5822,5.8357,6.192,6.5114,6.7321,7.0821,7.3822,7.5515,7.7977,8.04,8.2593,8.3593,8.467,8.6017,8.6094,8.6094,8.6094,8.6094,8.6094,8.6094,8.6094,8.6094,8.6094,8.6094,8.6094,8.6094,8.6094,8.6094,8.6094,8.6065,8.6065,8.6031,8.5887,8.5852,0.0,8.5742,8.5552,8.5355,8.51,8.4703,8.4255,8.3692,8.3186,8.2782,8.2534,8.2279,8.2186,8.2186,8.2186,8.2186,8.2186,8.2186,8.2186,8.2186,8.2186,8.2113,8.1782,8.1709,8.1636,8.1305,8.1232,8.1232,8.1232,8.1232,8.1232,8.1232,8.0828,8.0534,8.0534,7.9837,7.9323,7.9323,7.9029,7.8809,7.8809,7.8809,7.8809,7.8809,7.7635,7.6717,7.6387,7.635,7.635,7.635,7.635,7.635,7.635,7.635,7.635,7.635,7.668,7.6827,7.6827,7.7671,7.8075,7.8112,7.8919,7.9323,6.6384,6.7818,6.8883,6.8625,6.6845,6.4449,6.192,5.8242,5.4934,5.3494,5.1857,5.0952,5.1742,5.334,5.5245,5.7527,6.0742,6.3743,6.6051,6.9283,7.2168,7.413,7.6784,7.9477,8.2054,8.3555,8.4824,8.6017,8.6094,8.6094,8.6094,8.6094,8.6094,8.6094,8.6094,8.6094,8.6094,8.6094,8.6094,8.606,8.606,8.6026,8.5958,8.5961,8.589,8.5779,8.5628,8.5551,0.0,8.5352,8.5105,8.493,8.4609,8.4218,8.373,8.3281,8.2904,8.2571,8.2407,8.2316,8.2186,8.2186,8.2186,8.2186,8.2186,8.2186,8.2186,8.2186,8.2186,8.2186,8.2186,8.2186,8.2186,8.2186,8.2186,8.2186,8.2186,8.2186,8.2186,8.2186,8.1746,8.1342,8.1342,8.0681,8.0131,8.0131,7.9947,7.98,7.98,7.98,7.98,7.98,7.8736,7.7965,7.7708,7.7708,7.7598,7.7341,7.7304,7.7451,7.7671,7.7708,7.7818,7.8038,7.8038,7.8038,7.8038,7.8662,7.8956,7.8956,7.9764,8.0277,6.5205,6.6499,6.6918,6.6123,6.4615,6.2669,6.0119,5.695,5.4259,5.3378,5.1857,5.0952,5.1742,5.3321,5.5055,5.6758,5.9888,6.2719,6.4397,6.759,7.0667,7.3206,7.6476,7.9477,8.2054,8.4593,8.6094,8.6094,8.6094,8.6094,8.6094,8.6094,8.6094,8.6094,8.6094,8.6094,8.6094,8.6094,8.6099,8.5996,8.5996,8.589,8.5705,8.5705,8.5551,8.5311,8.5311,8.5232,0.0,8.4803,8.4703,8.4551,8.3922,8.3545,8.3281,8.2843,8.2571,8.2407,8.2251,8.2186,8.2186,8.2186,8.2186,8.2186,8.2186,8.2186,8.2186,8.2186,8.2186,8.2186,8.2186,8.2186,8.2186,8.2186,8.2186,8.2186,8.2186,8.2186,8.2186,8.2186,8.2186,8.2186,8.2186,8.1525,8.1012,8.1012,8.0314,7.98,7.98,7.98,7.98,7.98,7.9764,7.9433,7.8662,7.8589,7.8222,7.7378,7.7304,7.7708,7.8552,7.8589,7.8956,7.9764,7.9764,7.9764,7.9764,7.9764,7.9764,7.98,8.0608,8.1415,6.2613,6.3911,6.459,6.4936,6.3757,6.1781,5.9249,5.6511,5.4066,5.2589,5.1453,5.0779,5.1029,5.2454,5.4149,5.5857,5.8965,6.2002,6.4295,6.7552,7.0437,7.2399,7.713,8.0984,8.2842,8.484,8.5992,8.5923,8.5887,8.5923,8.6031,8.5923,8.5958,8.6094,8.6094,8.6094,8.6094,8.6026,8.5958,8.5852,8.5742,8.559,8.5393,8.5148,8.498,8.4848,8.4486,8.4292,8.4242,8.3989,8.3817,8.3692,8.3415,8.3106,8.2843,8.2597,8.2444,8.2251,8.2186,8.2186,8.2186,8.2186,8.2186,8.2186,8.2186,8.2186,8.2186,8.2186,8.2186,8.2186,8.2186,8.2186,8.2186,8.2186,8.2186,8.2186,8.2186,8.2186,8.2186,8.2186,8.2186,8.2186,8.2186,8.2003,8.1819,8.1819,8.1599,8.1415,8.1415,8.1415,8.1415,8.1415,8.1415,8.0865,7.9543,7.9396,7.9286,7.9029,7.8993,7.914,7.9396,7.9396,7.9543,7.98,7.98,7.98,7.98,8.0351,8.0901,8.1452,8.1709,8.1966,5.9788,6.105,6.1632,6.2463,6.1411,5.9665,5.7747,5.534,5.3203,5.2127,5.126,5.0779,5.1106,5.2262,5.3841,5.584,5.8773,6.167,6.4232,6.7525,7.0898,7.4168,7.8677,8.2112,8.3662,8.5046,8.5779,8.5704,8.5704,8.5742,8.589,8.5779,8.5815,8.5923,8.5958,8.5992,8.5992,8.5887,8.5779,8.559,8.5393,8.5105,8.4886,8.4571,8.4292,8.4142,8.3817,8.3655,0.0,8.3358,8.3244,8.3165,8.2927,8.2721,8.2571,8.238,8.2251,8.2186,8.2186,8.2186,8.2186,8.2186,8.2186,8.2186,8.2186,8.2186,8.2186,8.2186,8.2186,8.2186,8.2186,8.2186,8.2186,8.2186,8.2186,8.2186,8.2186,8.2186,8.2186,8.2186,8.2186,8.2186,8.2186,8.2186,8.2186,8.2186,8.2186,8.2186,8.2186,8.2186,8.2186,8.2186,8.2186,8.1782,8.0791,8.0424,8.0094,7.98,7.98,7.991,8.0241,8.0241,8.0388,8.0681,8.0681,8.0681,8.0681,8.1195,8.1709,8.2186,8.2186,8.2186,0.0,5.7973,5.8289,5.9119,5.8097,5.6691,5.5818,5.3685,0.0,5.1819,5.1222,5.0952,5.1742,5.2647,5.411,5.6592,5.9181,6.1785,6.4385,6.791,7.2322,7.8015,8.0805,8.2856,8.4322,8.5054,8.5471,8.5431,8.5431,8.5511,8.5628,8.5628,8.5628,8.5628,8.5704,8.5704,8.5741,8.5667,8.5511,8.527,8.4937,8.4571,8.4153,8.3922,8.36,8.3244,8.3244,8.3165,8.3047,8.2867,8.2843,8.2843,8.2534,8.2407,8.2343,8.2251,8.2186,8.2186,8.2186,8.2186,8.2186,8.2186,8.2186,8.2186,8.2186,8.2186,8.2186,8.2186,8.2186,8.2186,8.2186,8.2186,8.2186,8.2186,8.2186,8.2186,8.2186,8.2186,8.2186,8.2186,8.2186,8.2186,8.2186,8.2186,8.2186,8.2186,8.2186,8.2186,8.2186,8.2186,8.2186,8.2186,8.2186,8.2186,8.2186,8.1525,8.0755,8.0021,7.9947,8.0314,8.1048,8.1085,8.1452,8.2186,8.2186,8.2186,8.2186,8.2186,8.2186,8.2186,8.2186,8.2186,5.2974,0.0,5.6511,5.7379,5.678,5.578,0.0,5.3301,5.1742,5.1106,5.0837,5.0952,5.1742,5.3146,5.4797,5.6675,5.971,6.2886,6.6077,7.1717,7.6716,7.996,8.1935,8.3367,8.4097,8.4733,8.4975,8.4833,8.4833,8.4886,8.5105,8.5056,8.5056,8.5105,8.493,8.5018,8.5433,8.5105,8.4886,8.4787,8.423,8.387,8.373,8.3338,8.3106,8.2987,8.2745,8.256,8.2597,8.2407,8.238,8.238,8.2316,8.2251,8.2251,8.2186,8.2186,8.2186,8.2186,8.2186,8.2186,8.2186,8.2186,8.2186,8.2186,8.2186,8.2186,8.2186,8.2186,8.2186,8.2186,8.2186,8.2186,8.2186,8.2186,8.2186,8.2186,8.2186,8.2186,8.2186,8.2186,8.2186,8.2186,8.2186,8.2186,8.2186,8.2186,8.2186,8.2186,8.2186,8.2186,8.2186,8.2186,8.2186,8.2186,8.2039,8.1819,8.1636,8.1636,8.1709,8.1893,8.1929,8.2003,8.2186,8.2186,8.2186,8.2186,8.2186,8.2186,8.2186,8.2186,8.2186,5.1665,5.3205,5.4783,5.5647,5.5182,5.4434,5.4014,5.257,5.1222,5.0779,5.0991,5.1626,5.2897,5.4507,5.6337,5.841,6.1261,6.4821,6.9316,7.4435,7.8628,8.1061,8.2717,8.3867,8.4377,8.4438,8.4465,8.4356,8.4218,8.4318,8.4524,8.4514,8.4514,8.4438,8.4218,8.4367,8.4886,8.4524,8.428,8.4167,8.3655,8.3301,8.3202,8.2843,8.2659,8.2534,8.2343,8.2316,8.2279,8.2251,8.2186,8.2186,8.2186,8.2186,8.2186,8.2186,8.2186,8.2186,8.2186,8.2186,8.2186,8.2186,8.2186,8.2186,8.2186,8.2186,8.2186,8.2186,8.2186,8.2186,8.2186,8.2186,8.2186,8.2186,8.2186,8.2186,8.2186,8.2186,8.2186,8.2186,8.2186,8.2186,8.2186,8.2186,8.2186,8.2186,8.2186,8.2186,8.2186,8.2186,8.2186,8.2186,8.2186,8.2186,8.2186,8.2186,8.2186,8.2186,8.2186,8.2186,8.2186,8.2186,8.2186,8.2186,8.2186,8.2186,8.2186,8.2186,8.2186,8.2186,8.2186,8.2186,5.1665,5.2647,5.3589,5.4297,5.4045,5.3546,5.3417,5.2223,5.1068,5.1068,5.1742,5.2839,5.4572,5.6337,5.84,6.0955,6.3924,6.7752,7.2946,7.6683,7.965,8.1764,8.3292,8.4339,8.4665,8.4205,8.3892,8.3838,8.3692,8.3709,8.4012,8.4012,8.396,8.3763,8.362,8.3675,8.4153,8.387,8.3709,8.3545,8.3186,8.2867,8.2633,8.2471,8.2316,8.2186,8.2186,0.0,8.2186,8.2186,8.2186,8.2186,8.2186,8.2186,8.2186,8.2186,8.2186,8.2186,8.2186,8.2186,8.2186,8.2186,8.2186,8.2186,8.2186,8.2186,8.2186,8.2186,8.2186,8.2186,8.2186,8.2186,8.2186,8.2186,8.2186,8.2186,8.2186,8.2186,8.2186,8.2186,8.2186,8.2186,8.2186,8.2186,8.2186,8.2186,8.2186,8.2186,8.2186,8.2186,8.2186,8.2186,8.2186,8.2186,8.2186,8.2186,8.2186,8.2186,8.2186,8.2186,8.2186,8.2186,8.2186,8.2186,8.2186,8.2186,8.2186,8.2186,8.2186,8.2186,8.2186,8.2186,5.1665,5.3069,5.4336,5.4489,5.4912,5.5147,5.4458,5.3514,5.2801,5.2801,5.3475,5.4629,5.629,5.8592,6.1042,6.3578,6.8482,7.2822,7.5165,7.888,8.1651,8.2568,8.384,8.4542,8.4153,8.3692,8.3301,8.3106,8.3047,8.3106,8.3281,8.3281,8.3244,8.3186,8.3106,8.3024,8.2964,8.2987,8.3047,8.3047,8.2684,8.2471,8.2407,8.2316,8.2186,8.2186,0.0,8.2186,8.2186,8.2186,8.2186,8.2186,8.2186,8.2186,8.2186,8.2186,8.2186,8.2186,8.2186,8.2186,8.2186,8.2186,8.2186,8.2186,8.2186,8.2186,8.2186,8.2186,8.2186,8.2186,8.2186,8.2186,8.2186,8.2186,8.2186,8.2186,8.2186,8.2186,8.2186,8.2186,8.2186,8.2186,8.2186,8.2186,8.2186,8.2186,8.2186,8.2186,8.2186,8.2186,8.2186,8.2186,8.2186,8.2186,8.2186,8.2186,8.2186,8.2186,8.2186,8.2186,8.2186,8.2186,8.2186,8.2186,8.2186,8.2186,8.2186,8.2186,8.2186,8.2186,8.2186,8.2186,5.2262,5.3531,5.4699,5.5638,5.6143,5.6323,5.592,5.5535,5.5224,5.5231,5.6291,5.7597,5.8807,6.1121,6.4128,6.8075,7.1573,7.474,7.7385,7.9933,8.1949,8.3117,8.389,8.4205,8.3822,8.3281,8.2904,8.2782,8.2721,8.2721,8.2843,8.2904,8.2843,8.2745,8.2659,8.2534,8.2444,8.2508,8.2534,8.2659,8.2407,8.2316,8.2316,8.2251,8.2186,8.2186,0.0,8.2186,8.2186,8.2186,8.2186,8.2186,8.2186,8.2186,8.2186,8.2186,8.2186,8.2186,8.2186,8.2186,8.2186,8.2186,8.2186,8.2186,8.2186,8.2186,8.2186,8.2186,8.2186,8.2186,8.2186,8.2186,8.2186,8.2186,8.2186,8.2186,8.2186,8.2186,8.2186,8.2186,8.2186,8.2186,8.2186,8.2186,8.2186,8.2186,8.2186,8.2186,8.2186,8.2186,8.2186,8.2186,8.2186,8.2186,8.2186,8.2186,8.2186,8.2186,8.2186,8.2186,8.2186,8.2186,8.2186,8.2186,8.2186,8.2186,8.2186,8.2186,8.2186,8.2186,8.2186,8.2186,5.2531,5.3685,5.4891,5.6598,5.7143,5.7341,5.7533,5.7742,5.7958,0.0,5.9524,6.0955,6.1837,6.4398,6.7806,7.2091,7.4152,7.6216,7.9201,8.0654,8.1995,8.3377,8.3766,8.3784,8.3546,8.2964,8.2633,8.2571,8.2444,8.2444,8.2571,8.2571,8.2508,8.2343,8.2343,8.2279,8.2186,8.2186,8.2251,8.2343,8.2251,8.2186,8.2186,8.2186,8.2186,8.2186,8.2186,8.2186,8.2186,8.2186,8.2186,8.2186,8.2186,8.2186,8.2186,8.2186,8.2186,8.2186,8.2186,8.2186,8.2186,8.2186,8.2186,8.2186,8.2186,8.2186,8.2186,8.2186,8.2186,8.2186,8.2186,8.2186,8.2186,8.2186,8.2186,8.2186,8.2186,8.2186,8.2186,8.2186,8.2186,8.2186,8.2186,8.2186,8.2186,8.2186,8.2186,8.2186,8.2186,8.2186,8.2186,8.2186,8.2186,8.2186,8.2186,8.2186,8.2186,8.2186,8.2186,8.2186,8.2186,8.2186,8.2186,8.2186,8.2186,8.2186,8.2186,8.2186,8.2186,8.2186,8.2121,8.2231,5.1973,5.3203,5.4912,5.6571,5.7604,5.8404,5.9158,5.9958,0.0,6.1579,0.0,6.45,6.5371,6.8883,7.2283,7.4207,7.6377,7.8435,8.0234,8.1489,8.2506,8.3313,8.3509,8.3489,8.3165,8.2684,8.2343,8.2251,8.2186,8.2186,8.2251,8.2251,8.2251,8.2186,8.2186,8.2186,8.2186,8.2186,8.2186,8.2186,8.2186,8.2186,8.2186,8.2186,8.2186,8.2186,8.2186,8.2186,8.2186,8.2186,8.2186,8.2186,8.2186,8.2186,8.2186,8.2186,8.2186,8.2186,8.2186,8.2186,8.2186,8.2186,8.2186,8.2186,8.2186,8.2186,8.2186,8.2186,8.2186,8.2186,8.2186,8.2186,8.2186,8.2186,8.2186,8.2186,8.2186,8.2186,8.2186,8.2186,8.2186,8.2186,8.2186,8.2186,8.2186,8.2186,8.2186,8.2186,8.2186,8.2186,8.2186,8.2186,8.2186,8.2186,8.2186,8.2186,8.2186,8.2186,8.2186,8.2186,8.2186,8.2186,8.2186,8.2186,8.2186,8.2186,8.2186,8.2186,8.2186,8.2186,8.2055,8.2288,5.3205,5.3609,5.4359,5.7114,5.8434,0.0,0.0,6.2158,6.3433,6.4266,6.5805,0.0,6.8075,7.0409,7.2937,7.511,7.6854,7.8901,8.146,8.1869,8.2395,8.3653,8.3433,8.3106,8.2987,8.2534,8.2251,8.2186,8.2186,8.2186,8.2186,8.2186,8.2186,8.2186,8.2186,8.2186,8.2186,8.2186,8.2186,8.2186,8.2186,8.2186,8.2186,8.2186,8.2186,8.2186,8.2186,8.2186,8.2186,8.2186,8.2186,8.2186,8.2186,8.2186,8.2186,8.2186,8.2186,8.2186,8.2186,8.2186,8.2186,8.2186,8.2186,8.2186,8.2186,8.2186,8.2186,8.2186,8.2186,8.2186,8.2186,8.2186,8.2186,8.2186,8.2186,8.2186,8.2186,8.2186,8.2186,8.2186,8.2186,8.2186,8.2186,8.2186,8.2186,8.2186,8.2186,8.2186,8.2186,8.2186,8.2186,8.2186,8.2186,8.2186,8.2186,8.2186,8.2186,8.2186,8.2186,8.2186,8.2186,8.2186,8.2186,8.2186,8.2186,8.2186,8.2186,8.2186,8.2378,8.2721,8.2586,8.2782,5.3745,5.386,5.4359,5.7499,0.0,0.0,6.2767,6.459,6.6123,6.7264,6.8817,7.0179,7.0783,7.2283,7.4024,7.5972,7.7399,7.9248,8.2133,8.2057,8.226,8.3757,8.3338,8.2904,8.2904,8.2471,8.2186,8.2186,8.2186,8.2186,8.2186,8.2186,8.2186,8.2186,8.2186,8.2186,8.2186,8.2186,8.2186,8.2186,8.2186,8.2186,8.2186,8.2186,8.2186,8.2186,8.2186,8.2186,8.2186,8.2186,8.2186,8.2186,8.2186,8.2186,8.2186,8.2186,8.2186,8.2186,8.2186,8.2186,8.2186,8.2186,8.2186,8.2186,8.2186,8.2186,8.2186,8.2186,8.2186,8.2186,8.2186,8.2186,8.2186,8.2186,8.2186,8.2186,8.2186,8.2186,8.2186,8.2186,8.2186,8.2186,8.2186,8.2186,8.2186,8.2186,8.2186,8.2186,8.2186,8.2186,8.2186,8.2186,8.2186,8.2186,8.2186,8.2443,8.259,8.259,8.281,8.2737,8.2223,8.2186,8.2186,8.2186,8.2186,8.2333,8.2488,8.2488,8.2758,8.3253,8.3043,8.3085,5.3224,5.3839,5.5105,5.7692,0.0,0.0,6.5128,6.7218,6.8894,7.0584,7.2304,7.3514,7.3514,7.4899,7.6254,7.697,7.8206,7.9778,8.2044,8.1915,8.2144,8.3597,8.3281,8.2904,8.2904,8.2471,8.2186,8.2186,8.2186,8.2186,8.2186,8.2186,8.2186,8.2186,8.2186,8.2186,8.2186,8.2186,8.2186,8.2186,8.2186,8.2186,8.2186,8.2186,8.2186,8.2186,8.2186,8.2186,8.2186,8.2186,8.2186,8.2186,8.2186,8.2186,8.2186,8.2186,8.2186,8.2186,8.2186,8.2186,8.2186,8.2186,8.2186,8.2186,8.2186,8.2186,8.2186,8.2186,8.2186,8.2186,8.2186,8.2186,8.2186,8.2186,8.2186,8.2186,8.2186,8.2186,8.2186,8.2186,8.2186,8.2186,8.2186,8.2186,8.2186,8.2186,8.2186,8.2186,8.2186,8.2186,8.2223,8.2223,8.2223,8.2223,8.2223,8.2957,8.3434,8.3434,8.4168,8.3875,8.2296,8.2223,8.2223,8.2223,8.2223,8.2524,8.3129,8.3129,8.3326,8.3737,8.3298,8.3318,5.4651,5.515,5.5972,5.8511,6.0873,0.0,0.0,6.7614,0.0,0.0,7.3563,7.4361,7.4361,7.5686,7.7009,7.7692,7.837,7.9343,8.0801,8.1093,8.1438,8.2198,8.2473,8.2534,8.2534,8.238,8.2186,8.2186,8.2186,8.2186,8.2186,8.2186,8.2186,8.2186,8.2186,8.2186,8.2186,8.2186,8.2186,8.2186,8.2186,8.2186,8.2186,8.2186,8.2186,8.2186,8.2186,8.2186,8.2186,8.2186,8.2186,8.2186,8.2186,8.2186,8.2186,8.2186,8.2186,8.2186,8.2186,8.2186,8.2186,8.2186,8.2186,8.2186,8.2186,8.2186,8.2186,8.2186,8.2186,8.2186,8.2186,8.2186,8.2186,8.2186,8.2186,8.2186,8.2186,8.2186,8.2186,8.2186,8.2186,8.2186,8.2186,8.2186,8.2186,8.2186,8.2186,8.2406,8.2994,8.303,8.3251,8.3838,8.3875,8.3875,8.3875,8.4095,8.4242,8.4242,8.4462,8.4389,8.3911,8.3875,8.3875,8.3875,8.3741,8.3715,8.3727,8.3445,8.3373,8.36,8.3172,8.2951,5.5227,5.619,5.7341,5.9896,6.2411,6.5103,6.827,6.969,7.1247,7.4312,7.5272,7.5695,7.6079,7.7138,7.8113,7.8402,7.8785,7.9349,8.0117,8.0277,8.0654,8.1511,8.1821,8.2076,8.237,8.2316,8.2186,8.2186,8.2186,8.2186,8.2186,8.2186,8.2186,8.2186,8.2186,8.2186,8.2186,8.2186,8.2186,8.2186,8.2186,8.2186,8.2186,8.2186,8.2186,8.2186,8.2186,8.2186,8.2186,8.2186,8.2186,8.2186,8.2186,8.2186,8.2186,8.2186,8.2186,8.2186,8.2186,8.2186,8.2186,8.2186,8.2186,8.2186,8.2186,8.2186,8.2186,8.2186,8.2186,8.2186,8.2186,8.2186,8.2186,8.2186,8.2186,8.2186,8.2186,8.2186,8.2186,8.2186,8.2186,8.2186,8.2186,8.2186,8.2186,8.2186,8.248,8.2847,8.3361,8.3691,8.4058,8.4535,8.4609,8.4609,8.4609,8.4903,8.5086,8.5086,8.538,8.5495,8.5427,8.4872,8.4541,8.4437,8.43,8.4168,8.4137,8.3657,8.3481,8.3508,8.309,8.2682,5.5241,5.7054,5.904,6.1597,6.4205,6.7218,7.1102,7.2698,7.4059,7.6562,7.7099,7.7374,7.8228,7.9003,7.9396,7.9095,7.9296,7.9604,7.9777,7.9613,7.9887,8.1071,8.1144,8.135,8.2223,8.2141,8.2113,8.2186,8.2186,8.2186,8.2186,8.2186,8.2186,8.2186,8.2186,8.2186,8.2186,8.2186,8.2186,8.2186,8.2186,8.2186,8.2186,8.2186,8.2186,8.2186,8.2186,8.2186,8.2186,8.2186,8.2186,8.2186,8.2186,8.2186,8.2186,8.2186,8.2186,8.2186,8.2186,8.2186,8.2186,8.2186,8.2186,8.2186,8.2186,8.2186,8.2186,8.2186,8.2186,8.2186,8.2186,8.2186,8.2186,8.2186,8.2186,8.2186,8.2186,8.2186,8.2186,8.2186,8.2186,8.2186,8.2186,8.2186,8.2223,8.2296,8.292,8.3471,8.3618,8.4278,8.4756,8.4829,8.4829,8.4829,8.4829,8.549,8.5894,8.5894,8.6591,8.6856,8.6679,8.5463,8.4657,8.4451,8.4241,8.421,8.4372,8.3832,8.3508,8.3402,8.2871,8.2234,5.5263,5.7434,5.9835,6.2386,6.6375,7.0286,7.2434,7.3505,7.4533,7.6459,7.7318,7.7944,7.8859,7.9514,7.9893,7.9647,7.9274,7.8891,7.8644,7.8829,7.9007,7.9191,7.9717,8.0414,8.1223,8.1269,8.1525,8.215,8.2186,8.2186,8.2186,8.2186,8.2186,8.2186,8.2186,8.2186,8.2186,8.2186,8.2186,8.2186,8.2186,8.2186,8.2186,8.2186,8.2186,8.2186,8.2186,8.2186,8.2186,8.2186,8.2186,8.2186,8.2186,8.2186,8.2186,8.2186,8.2186,8.2186,8.2186,8.2186,8.2186,8.2186,8.2186,8.2186,8.2186,8.2186,8.2186,8.2186,8.2186,8.2186,8.2186,8.2186,8.2186,8.2186,8.2186,8.2186,8.2186,8.2186,8.2186,8.2186,8.2186,8.2186,8.2186,8.2186,8.2406,8.3067,8.3287,8.3875,8.5123,8.5416,8.5783,8.6444,8.6481,8.6481,8.6481,8.6664,8.6738,8.6738,8.6746,8.6679,8.6465,8.6315,8.6096,8.5737,8.5368,8.4985,8.4497,8.3635,8.2928,8.2361,8.1896,8.1325,5.5147,5.7857,6.1027,6.4706,6.8531,7.1642,7.2834,7.3903,7.5045,7.6346,7.7227,7.7946,7.8747,7.9385,7.9708,7.9433,7.8954,7.8437,7.8034,7.8094,7.8333,7.8552,7.8956,7.9543,8.0351,8.0424,8.0608,8.1012,8.1048,8.1048,8.1048,8.1048,8.1048,8.1048,8.1415,8.1636,8.1636,8.2003,8.2186,8.2186,8.2186,8.2186,8.2186,8.2186,8.2186,8.2186,8.2186,8.2186,8.2186,8.2186,8.2186,8.2186,8.2186,8.2186,8.2186,8.2186,8.2186,8.2186,8.2186,8.2186,8.2186,8.2186,8.2186,8.2186,8.2186,8.2186,8.2186,8.2186,8.2186,8.2186,8.2186,8.2186,8.2186,8.2186,8.2186,8.2186,8.2186,8.2186,8.2186,8.2186,8.2186,8.2186,8.2186,8.2517,8.3067,8.3875,8.4315,8.4866,8.5673,8.6151,8.6554,8.6958,8.6995,8.6995,8.6995,8.6925,8.6856,8.6856,8.6536,8.6247,8.5951,8.584,8.5689,8.5459,8.5032,8.4467,8.3627,8.2926,8.2234,8.1551,8.1166,8.0774,5.4626,5.8204,6.2334,6.6857,6.9873,7.1942,7.2834,7.4017,7.5203,7.6042,7.6743,7.7521,7.8435,7.8912,7.9105,7.8991,7.8633,7.8202,7.7783,7.7643,7.772,7.8295,7.8369,7.8699,7.9507,7.958,7.9653,7.9764,7.98,7.98,7.98,7.98,7.98,7.98,8.0461,8.0865,8.1012,8.1672,8.2039,8.2186,8.2186,8.2186,8.2186,8.2186,8.2186,8.2186,8.2186,8.2186,8.2186,8.2186,8.2186,8.2186,8.2186,8.2186,8.2186,8.2186,8.2186,8.2186,8.2186,8.2186,8.2186,8.2186,8.2186,8.2186,8.2186,8.2186,8.2186,8.2186,8.2186,8.2186,8.2186,8.2186,8.2186,8.2186,8.2186,8.2186,8.2186,8.2186,8.2186,8.2186,8.2296,8.2406,8.2406,8.3067,8.3875,8.4682,8.538,8.5857,8.5967,8.6591,8.6995,8.6995,8.6995,8.6995,8.6925,8.6786,8.6608,8.6536,8.61,8.5689,8.5261,8.4747,8.4385,8.4302,8.4016,8.3454,8.2635,8.2176,8.1551,8.0906,8.0709,8.041,5.3046,5.8135,6.363,6.6446,6.9076,7.1336,7.2834,7.3674,7.4366,7.5089,7.5815,7.6789,7.8301,7.8365,7.8341,7.8746,7.8369,7.7957,7.7643,7.7463,7.7378,7.7488,7.7488,7.7818,7.8662,7.8772,7.9029,7.9727,7.98,7.98,7.98,7.98,7.98,7.98,7.9874,8.0277,8.1012,8.1122,8.1525,8.2186,8.2186,8.2186,8.2186,8.2186,8.2186,8.2186,8.2186,8.2186,8.2186,8.2186,8.2186,8.2186,8.2186,8.2186,8.2186,8.2186,8.2186,8.2186,8.2186,8.2186,8.2186,8.2186,8.2186,8.2186,8.2186,8.2186,8.2186,8.2186,8.2186,8.2186,8.2186,8.2186,8.2186,8.2186,8.2186,8.2186,8.2186,8.2186,8.2186,8.2186,8.2774,8.3251,8.3251,8.3911,8.4719,8.5527,8.571,8.604,8.6775,8.6921,8.6995,8.6995,8.6995,8.6925,8.6749,8.6573,8.6247,8.5951,8.5303,8.4792,8.4302,8.3454,8.2871,8.2418,8.2781,8.26,8.1861,8.1359,8.1005,8.061,8.041,8.0209,5.3605,5.8527,6.3103,6.5116,6.8224,7.1006,7.1666,7.2939,7.4078,7.4406,7.4918,7.5664,7.6828,7.7078,7.7287,7.7825,7.7533,7.726,7.7389,7.7341,7.7304,7.7304,7.7304,7.7451,7.7855,7.7892,7.8038,7.8369,7.8405,7.8405,7.8405,7.8405,7.8405,7.8405,7.8883,7.9286,7.9653,8.0571,8.1415,8.2186,8.2186,8.2186,8.2186,8.2186,8.2186,8.2186,8.2186,8.2186,8.2186,8.2186,8.2186,8.2186,8.2186,8.2186,8.2186,8.2186,8.2186,8.2186,8.2186,8.2186,8.2186,8.2186,8.2186,8.2186,8.2186,8.2186,8.2186,8.2186,8.2186,8.2186,8.2186,8.2186,8.2186,8.2186,8.2186,8.2186,8.2186,8.2186,8.2333,8.2774,8.3177,8.3691,8.4609,8.5049,8.5563,8.6334,8.6481,8.6591,8.6958,8.6995,8.6995,8.6995,8.6925,8.6786,8.6573,8.6174,8.5725,8.5225,8.4467,8.3883,8.3367,8.26,8.199,8.1455,8.1802,8.1707,8.1034,8.0872,8.061,8.041,8.0309,8.0209,5.3859,5.8055,6.1597,6.3424,6.6756,6.9706,7.0321,7.1832,7.3277,7.3952,7.4248,7.4664,7.5414,7.5868,7.6278,7.6807,7.6528,7.6457,7.6937,7.7011,7.7084,7.7304,7.7304,7.7304,7.7304,7.7304,7.7304,7.7304,7.7304,7.7304,7.7304,7.7304,7.7304,7.7304,7.7928,7.8369,7.8589,8.0204,8.1305,8.1893,8.2113,8.2186,8.2186,8.2186,8.2186,8.2186,8.2186,8.2186,8.2186,8.2186,8.2186,8.2186,8.2186,8.2186,8.2186,8.2186,8.2186,8.2186,8.2186,8.2186,8.2186,8.2186,8.2186,8.2186,8.2186,8.2186,8.2186,8.2186,8.2186,8.2186,8.2186,8.2186,8.2186,8.2186,8.2186,8.2186,8.2186,8.2186,8.2443,8.3251,8.3581,8.4168,8.5563,8.5967,8.6297,8.6921,8.6995,8.6995,8.6995,8.6995,8.6995,8.6995,8.6856,8.6536,8.6247,8.5725,8.5067,8.4385,8.3627,8.2961,8.2453,8.1802,8.1228,8.0906,8.097,8.0872,8.051,8.051,8.041,8.0209,8.0209,8.0209,5.2589,5.5864,5.9095,6.1593,6.4193,6.6782,6.9217,7.0217,7.139,7.38,7.3942,7.3935,7.4786,7.5135,7.5425,7.5952,7.5715,7.561,7.6093,7.6166,7.646,7.7231,7.7304,7.7304,7.7304,7.7304,7.7304,7.7304,7.7304,7.7304,7.7304,7.7304,7.7304,7.7304,7.7378,7.7781,7.8589,8.0204,8.1012,8.1085,8.1819,8.2186,8.2186,8.2186,8.2186,8.2186,8.2186,8.2186,8.2186,8.2186,8.2186,8.2186,8.2186,8.2186,8.2186,8.2186,8.2186,8.2186,8.2186,8.2186,8.2186,8.2186,8.2186,8.2186,8.2186,8.2186,8.2186,8.2186,8.2186,8.2186,8.2186,8.2186,8.2186,8.2186,8.2186,8.2186,8.2186,8.2186,8.2443,8.3251,8.4022,8.4792,8.5637,8.6444,8.6958,8.6995,8.6995,8.6995,8.6995,8.6995,8.6995,8.6995,8.6856,8.6465,8.5876,8.5225,8.4385,8.3244,8.26,8.1896,8.1421,8.0872,8.0709,8.061,8.041,8.0309,8.0209,8.0209,8.0209,8.0209,8.0209,8.0209,5.0221,5.3241,5.6472,5.9019,6.2397,6.5447,6.6936,6.8936,7.0758,7.1693,7.281,7.3686,7.3876,7.4109,7.446,7.5065,7.4735,7.4632,7.5249,7.5322,7.5652,7.6423,7.6533,7.6754,7.7268,7.7304,7.7304,7.7304,7.7304,7.7304,7.7304,7.7304,7.7304,7.7304,7.7304,7.7745,7.8589,7.9176,7.9727,8.0241,8.1048,8.1415,8.1452,8.1966,8.2186,8.2186,8.2186,8.2186,8.2186,8.2186,8.2186,8.2186,8.2186,8.2186,8.2186,8.2186,8.2186,8.2186,8.2186,8.2186,8.2186,8.2186,8.2186,8.2186,8.2186,8.2186,8.2186,8.2186,8.2186,8.2186,8.2186,8.2186,8.2186,8.2186,8.2186,8.2186,8.2186,8.2186,8.259,8.3911,8.4389,8.5013,8.6334,8.6811,8.6995,8.6995,8.6995,8.6995,8.6995,8.6995,8.6925,8.6856,8.6536,8.5989,8.5225,8.442,8.354,8.2509,8.1802,8.1262,8.0872,8.0476,8.0309,8.0309,8.0309,8.0209,8.0209,8.0209,8.0209,8.0209,8.0209,8.0209,4.9028,5.1684,5.4626,5.6851,6.0165,6.3176,6.4372,6.6833,6.902,6.961,7.1188,7.2505,7.266,7.3071,7.3613,7.4181,7.3885,7.3823,7.4427,7.4478,7.4808,7.5616,7.5689,7.6019,7.6827,7.69,7.7011,7.7304,7.7304,7.7304,7.7304,7.7304,7.7304,7.7304,7.7304,7.7598,7.8148,7.8442,7.8883,7.9396,8.0204,8.0755,8.1012,8.1562,8.1929,8.2186,8.2186,8.2186,8.2186,8.2186,8.2186,8.2186,8.2186,8.2186,8.2186,8.2186,8.2186,8.2186,8.2186,8.2186,8.2186,8.2186,8.2186,8.2186,8.2186,8.2186,8.2186,8.2186,8.2186,8.2186,8.2186,8.2186,8.2186,8.2186,8.2186,8.2186,8.2186,8.2406,8.2994,8.4352,8.4829,8.5416,8.6775,8.6995,8.6995,8.6995,8.6995,8.6995,8.6995,8.6925,8.6856,8.6608,8.6174,8.5536,8.463,8.3798,8.2871,8.1896,8.1262,8.0709,8.051,8.0309,8.0209,8.0209,8.0209,8.0209,8.0209,8.0209,8.0209,8.0209,8.0209,8.0209,0.0,0.0,0.0,5.5224,5.7527,5.9888,6.1607,6.3886,6.6101,6.7744,6.9202,7.0366,7.1025,7.2046,7.2881,7.3185,7.3125,7.3141,7.3603,7.3655,7.3964,7.4771,7.4882,7.5175,7.5983,7.6056,7.6423,7.7231,7.7268,7.7304,7.7304,7.7304,7.7304,7.7304,7.7304,7.7304,7.7304,7.8148,7.8552,7.8552,7.936,8.0167,8.0938,8.0975,8.1415,8.215,8.2186,8.2186,8.2186,8.2186,8.2186,8.2186,8.2186,8.2186,8.2186,8.2186,8.2186,8.2186,8.2186,8.2186,8.2186,8.2186,8.2186,8.2186,8.2186,8.2186,8.2186,8.2186,8.2186,8.2186,8.2186,8.2186,8.2186,8.2186,8.2186,8.2186,8.2186,8.2847,8.3691,8.4462,8.5233,8.604,8.6885,8.6995,8.6995,8.6995,8.6995,8.6995,8.6995,8.6786,8.6608,8.6429,8.5801,8.5067,8.4184,8.3279,8.2361,8.1325,8.0872,8.051,8.0209,8.0209,8.0209,8.0209,8.0209,8.0209,8.0209,8.0209,8.0209,8.0209,8.0209,8.0209,4.9144,0.0,0.0,0.0,0.0,0.0,5.9096,6.1704,6.4166,6.5241,6.7544,6.9572,7.0251,7.1409,7.2256,7.2048,7.2593,7.3031,7.2994,7.2994,7.323,7.3927,7.4037,7.4368,7.5175,7.5249,7.5579,7.6387,7.6423,7.668,7.7304,7.7304,7.7304,7.7304,7.7304,7.7304,7.7304,7.7561,7.7671,7.7671,7.8516,7.9029,7.9286,8.0461,8.1122,8.1379,8.1929,8.2186,8.2186,8.2186,8.2186,8.2186,8.2186,8.2186,8.2186,8.2186,8.2186,8.2186,8.2186,8.2186,8.2186,8.2186,8.2186,8.2186,8.2186,8.2186,8.2186,8.2186,8.2186,8.2186,8.2186,8.2186,8.2186,8.2186,8.2186,8.2186,8.2186,8.3287,8.4352,8.4572,8.5233,8.604,8.6885,8.6995,8.6925,8.6786,8.6786,8.6715,8.6392,8.632,8.61,8.5572,8.5067,8.4338,8.3191,8.2418,8.1707,8.0872,8.0476,8.0309,8.0209,8.0209,8.0209,8.0209,8.0209,8.0209,8.0209,8.0209,8.0209,8.0209,8.0209,8.0209,5.0202,5.1068,5.205,5.3398,0.0,0.0,5.755,5.9788,6.189,6.2704,6.4879,6.6934,6.7877,6.9277,7.0383,7.0658,7.1499,7.2124,7.2373,7.2576,7.2924,7.3272,7.3251,7.3523,7.4331,7.4404,7.4735,7.5542,7.5616,7.5946,7.6754,7.6827,7.6974,7.7304,7.7304,7.7304,7.7304,7.7304,7.7304,7.7341,7.7818,7.8259,7.8626,7.958,8.0388,8.1048,8.1489,8.1893,8.2186,8.2186,8.2186,8.2186,8.2186,8.2186,8.2186,8.2186,8.2186,8.2186,8.2186,8.2186,8.2186,8.2186,8.2186,8.2186,8.2186,8.2186,8.2186,8.2186,8.2186,8.2186,8.2186,8.2186,8.2186,8.2186,8.2186,8.2186,8.2186,8.3471,8.4609,8.4609,8.5527,8.6444,8.6921,8.6995,8.6925,8.6715,8.6608,8.6392,8.6026,8.5689,8.5381,8.4828,8.4171,8.3489,8.2635,8.1802,8.1166,8.0576,8.041,8.0209,8.0209,8.0209,8.0209,8.0209,8.0209,8.0209,8.0209,8.0209,8.0209,8.0209,8.0209,8.0209,5.1838,5.2589,5.3378,5.4188,5.4979,0.0,5.6554,5.8,5.9447,6.0265,6.1747,6.3367,6.487,6.6319,6.7694,6.9019,6.9808,7.0579,7.1626,7.2294,7.2687,7.2632,7.2463,7.2679,7.3545,7.356,7.3891,7.4735,7.4845,7.5212,7.5946,7.5983,7.6313,7.7047,7.7157,7.7194,7.7194,7.7268,7.7304,7.7304,7.7304,7.7708,7.8479,7.8552,7.9433,8.0865,8.0975,8.1452,8.2186,8.2186,8.2186,8.2186,8.2186,8.2186,8.2186,8.2186,8.2186,8.2186,8.2186,8.2186,8.2186,8.2186,8.2186,8.2186,8.2186,8.2186,8.2186,8.2186,8.2186,8.2186,8.2186,8.2186,8.2186,8.2186,8.2186,8.2186,8.2186,8.3398,8.4499,8.4572,8.5894,8.6995,8.6995,8.6995,8.6925,8.6715,8.6501,8.6174,8.5725,8.5067,8.4467,8.3968,8.3227,8.2453,8.199,8.1359,8.0808,8.061,8.0309,8.0209,8.0209,8.0209,8.0209,8.0209,8.0209,8.0209,8.0209,8.0209,8.0209,8.0209,8.0209,8.0209,5.2892,5.3084,5.3238,5.3392,5.4105,0.0,5.4951,5.6263,5.773,5.8539,6.0027,6.1645,6.313,6.4164,6.5258,6.6618,6.7458,6.8706,7.0928,7.1281,7.1435,7.1874,7.1821,7.2005,7.2814,7.2773,7.3083,7.3854,7.4551,7.4992,7.5139,7.5139,7.5212,7.5359,7.6019,7.635,7.635,7.7011,7.7304,7.7304,7.7304,7.7414,7.7598,7.8295,7.9103,8.0057,8.0718,8.1452,8.2186,8.2186,8.2186,8.2186,8.2186,8.2186,8.2186,8.2186,8.2186,8.2186,8.2186,8.2186,8.2186,8.2186,8.2186,8.2186,8.2186,8.2186,8.2186,8.2186,8.2186,8.2186,8.2186,8.2186,8.2186,8.2186,8.2186,8.2186,8.2186,8.2957,8.3838,8.4462,8.5894,8.6995,8.6995,8.6995,8.6856,8.6465,8.6174,8.5648,8.4828,8.4171,8.3454,8.2836,8.2234,8.1707,8.1262,8.0872,8.061,8.0309,8.0209,8.0209,8.0209,8.0209,8.0209,8.0209,8.0209,8.0209,8.0209,8.0209,8.0209,8.0209,8.0209,8.0209,5.5626,5.5742,5.5626,5.5182,5.5434,0.0,0.0,5.5143,5.5857,5.6263,5.7011,5.8072,5.9622,6.058,6.1759,6.3609,6.4476,6.5614,6.7551,6.9424,7.0597,7.0731,7.093,7.1229,7.1471,7.1453,7.1524,7.1872,7.2642,7.3303,7.367,7.4074,7.4478,7.4918,7.5285,7.5689,7.6093,7.6497,7.69,7.7304,7.7304,7.7304,7.7341,7.7781,7.8405,7.925,8.0057,8.0865,8.1636,8.2039,8.2186,8.2186,8.2186,8.2186,8.2186,8.2186,8.2186,8.2186,8.2186,8.2186,8.2186,8.2186,8.2186,8.2186,8.2186,8.2186,8.2186,8.2186,8.2186,8.2186,8.2186,8.2186,8.2186,8.2186,8.2186,8.2186,8.2186,8.2847,8.3654,8.4462,8.5563,8.6518,8.6921,8.6995,8.6856,8.6501,8.6026,8.5495,8.4503,8.3662,8.2871,8.2141,8.1517,8.1068,8.0808,8.061,8.0309,8.0209,8.0209,8.0209,8.0209,8.0209,8.0209,8.0209,8.0209,8.0209,8.0209,8.0209,8.0209,8.0209,8.0209,8.0209,5.8539,5.8539,5.8132,5.7418,5.6994,5.634,0.0,0.0,0.0,5.422,5.422,5.4685,5.6155,5.6983,5.8242,6.0518,6.1362,6.214,6.3461,6.6397,6.8533,6.8788,6.9372,6.9776,6.97,6.9942,7.0018,6.9853,7.077,7.1578,7.2239,7.3046,7.378,7.4441,7.4588,7.4992,7.5616,7.5946,7.6423,7.7084,7.7268,7.7304,7.7304,7.7304,7.7781,7.8626,7.9286,8.0094,8.1048,8.1709,8.2039,8.2186,8.2186,8.2186,8.2186,8.2186,8.2186,8.2186,8.2186,8.2186,8.2186,8.2186,8.2186,8.2186,8.2186,8.2186,8.2186,8.2186,8.2186,8.2186,8.2186,8.2186,8.2186,8.2186,8.2186,8.2186,8.2186,8.27,8.3471,8.4425,8.5123,8.5857,8.6848,8.6995,8.6856,8.6465,8.6026,8.5417,8.4373,8.3314,8.2361,8.1707,8.097,8.051,8.051,8.0309,8.0209,8.0209,8.0209,8.0209,8.0209,8.0209,8.0209,8.0209,8.0209,8.0209,8.0209,8.0209,8.0209,8.0209,8.0209,8.0276,6.0281,5.9412,5.8274,5.8174,5.6989,5.5626,5.472,0.0,5.334,5.334,0.0,5.3629,5.4516,0.0,0.0,5.8011,5.8348,5.8845,6.038,6.141,6.2937,6.5335,6.6184,6.6776,6.7518,6.8587,6.9208,6.9045,7.044,7.1358,7.1431,7.2202,7.2679,7.2789,7.345,7.3891,7.3964,7.5395,7.6166,7.624,7.6974,7.7304,7.7304,7.7304,7.7781,7.8589,7.8699,7.9617,8.1012,8.1122,8.1562,8.2186,8.2186,8.2186,8.2186,8.2186,8.2186,8.2186,8.2186,8.2186,8.2186,8.2186,8.2186,8.2186,8.2186,8.2186,8.2186,8.2186,8.2186,8.2186,8.2186,8.2186,8.2186,8.2186,8.2186,8.2186,8.2186,8.226,8.2774,8.4315,8.4682,8.5233,8.6738,8.6995,8.6925,8.6715,8.6026,8.5261,8.4585,8.3138,8.199,8.1421,8.0675,8.0209,8.0209,8.0209,8.0209,8.0209,8.0209,8.0209,8.0209,8.0209,8.0209,8.0209,8.0209,8.0209,8.0209,8.0209,8.0209,8.0209,8.0209,8.0547,6.2151,6.1411,6.0263,5.9249,5.7681,5.5955,5.4167,5.3455,5.3051,5.2531,0.0,0.0,0.0,0.0,0.0,0.0,5.6203,5.6625,5.7187,5.737,5.8706,6.2026,6.3425,6.4324,6.4864,6.5275,6.575,6.6072,6.7614,6.8935,6.9853,7.1138,7.2018,7.2496,7.2826,7.323,7.3707,7.4845,7.5652,7.6093,7.6937,7.7304,7.7304,7.7304,7.7524,7.7892,7.8369,7.8993,7.969,8.0608,8.1195,8.1562,8.2003,8.2186,8.2186,8.2186,8.2186,8.2186,8.2186,8.2186,8.2186,8.2186,8.2186,8.2186,8.2186,8.2186,8.2186,8.2186,8.2186,8.2186,8.2186,8.2186,8.2186,8.2186,8.2186,8.2186,8.2186,8.2186,8.2663,8.4278,8.4609,8.5123,8.6738,8.6995,8.6925,8.6715,8.61,8.5417,8.4585,8.3191,8.2048,8.1421,8.0675,8.0209,8.0209,8.0209,8.0209,8.0209,8.0209,8.0209,8.0209,8.0209,8.0209,8.0209,8.0209,8.0209,8.0209,8.0209,8.0209,8.0209,8.0209,8.0581,6.4215,6.3411,6.2106,6.0873,5.8765,5.6438,5.4361,5.3514,5.307,5.2684,5.3276,0.0,0.0,0.0,5.4545,5.4715,0.0,5.4814,5.4957,5.4552,5.5428,5.8535,6.0151,6.1358,6.2179,6.2324,6.2769,6.3649,6.5264,6.688,6.8495,7.011,7.1358,7.2165,7.2386,7.2789,7.3377,7.4184,7.4992,7.5799,7.6607,7.7121,7.7304,7.7304,7.7304,7.7378,7.7965,7.8369,7.8699,7.9874,8.0608,8.1048,8.1636,8.2003,8.2186,8.2186,8.2186,8.2186,8.2186,8.2186,8.2186,8.2186,8.2186,8.2186,8.2186,8.2186,8.2186,8.2186,8.2186,8.2186,8.2186,8.2186,8.2186,8.2186,8.2186,8.2186,8.2186,8.2186,8.2663,8.4278,8.4609,8.5123,8.6738,8.6995,8.6925,8.6786,8.6247,8.5572,8.4792,8.3418,8.2291,8.1517,8.0774,8.0309,8.0209,8.0209,8.0209,8.0209,8.0209,8.0209,8.0209,8.0209,8.0209,8.0209,8.0209,8.0209,8.0209,8.0209,8.031,8.0479,8.0276,8.0682,0.0,0.0,0.0,6.3176,0.0,5.6767,5.5827,5.4362,5.3417,5.4259,5.5078,5.5608,5.5615,5.4984,5.4759,5.5549,5.4254,0.0,0.0,5.3416,5.3297,5.4723,5.6058,5.7676,5.9603,6.047,6.1392,6.2732,6.4383,6.6035,6.765,6.9265,7.0513,7.1321,7.2092,7.2496,7.2532,7.334,7.4147,7.4955,7.5763,7.657,7.7304,7.7304,7.7304,7.7304,7.7341,7.7818,7.8589,7.8662,7.958,8.1012,8.1048,8.1525,8.2186,8.2186,8.2186,8.2186,8.2186,8.2186,8.2186,8.2186,8.2186,8.2186,8.2186,8.2186,8.2186,8.2186,8.2186,8.2186,8.2186,8.2186,8.2186,8.2186,8.2186,8.2186,8.2186,8.2186,8.2663,8.4278,8.4609,8.5123,8.6738,8.6995,8.7031,8.6995,8.6465,8.584,8.5189,8.3932,8.2746,8.1767,8.1068,8.051,8.0209,8.0209,8.0209,8.0209,8.0209,8.0209,8.0209,8.0209,8.0209,8.0209,8.0209,8.0209,8.0209,8.0209,8.0547,8.1224,8.0513,8.0987,0.0,0.0,6.5551,6.4449,0.0,0.0,0.0,5.6982,5.6668,5.6975,5.8112,5.9096,5.9057,5.8373,5.755,5.6703,5.5083,5.3656,0.0,5.1813,5.1471,5.2341,5.4107,5.5655,5.6662,5.7394,5.8375,5.9825,6.1345,6.3345,6.6081,6.7667,6.9376,7.1248,7.1578,7.1982,7.2496,7.3303,7.4111,7.4918,7.5726,7.6533,7.7304,7.7304,7.7304,7.7304,7.7304,7.7488,7.7781,7.8369,7.9213,8.0241,8.0791,8.1489,8.2186,8.2186,8.2186,8.2186,8.2186,8.2186,8.2186,8.2186,8.2186,8.2186,8.2186,8.2186,8.2186,8.2186,8.2186,8.2186,8.2186,8.2186,8.2186,8.2186,8.2186,8.2186,8.2186,8.2627,8.3324,8.4389,8.5013,8.5747,8.6811,8.6995,8.6995,8.6995,8.6465,8.584,8.5189,8.3932,8.2746,8.1767,8.1068,8.051,8.0209,8.0209,8.0209,8.0209,8.0209,8.0209,8.0209,8.0209,8.0209,8.0209,8.0209,8.0209,8.0209,8.0682,8.1054,8.1291,8.1528,8.1934,6.922,6.8898,0.0,6.673,6.4257,0.0,6.0402,0.0,5.9358,5.9958,6.0954,6.1771,6.2079,6.095,5.9511,5.8088,5.5951,5.3716,0.0,5.0867,5.0604,5.0937,5.2381,5.3672,5.446,5.51,5.6174,5.7979,5.9169,6.1208,6.4401,6.6029,6.7998,7.0367,7.1027,7.1688,7.2496,7.301,7.3817,7.4918,7.5432,7.624,7.7304,7.7304,7.7304,7.7304,7.7304,7.7304,7.7378,7.7928,7.8772,7.9837,8.0351,8.1232,8.2186,8.2186,8.2186,8.2186,8.2186,8.2186,8.2186,8.2186,8.2186,8.2186,8.2186,8.2186,8.2186,8.2186,8.2186,8.2186,8.2186,8.2186,8.2186,8.2186,8.2186,8.2186,8.2186,8.2847,8.3654,8.4462,8.5233,8.604,8.6885,8.6995,8.6995,8.6995,8.6573,8.5989,8.5381,8.41,8.2926,8.1955,8.1166,8.061,8.0209,8.0209,8.0209,8.0209,8.0209,8.0209,8.0209,8.0209,8.0209,8.0209,8.0209,8.031,8.0581,8.1054,8.1562,8.2069,8.2306,8.2408]},{"header":{"parameterUnit":"m.s-1","parameterCategory":1,"la1":30.6,"la2":29.2853,"lo1":-89.7004,"lo2":-87.6739,"dy":0.0162,"dx":0.0183,"nx":112,"ny":82,"refTime":"2024-03-31T06:00:00:Z","depth":0,"parameterNumber":3,"parameterNumberName":"V-component_of_WINDS"},"data":[0.0,0.0,0.0,0.0,0.0,0.0,0.0,0.0,0.0,0.0,0.0,0.0,0.0,0.0,0.0,0.0,0.0,0.0,0.0,0.0,0.0,0.0,0.0,0.0,0.0,0.0,0.0,0.0,0.0,0.0,0.0,0.0,0.0,0.0,0.0,0.0,0.0,0.0,0.0,0.0,0.0,0.0,0.0,0.0,0.0,0.0,0.0,0.0,0.0,0.0,0.0,0.0,0.0,0.0,0.0,0.0,0.0,0.0,0.0,0.0,0.0,0.0,0.0,0.0,0.0,0.0,0.0,0.0,0.0,0.0,0.0,0.0,0.0,0.0,0.0,0.0,0.0,0.0,0.0,0.0,0.0,0.0,0.0,0.0,0.0,0.0,0.0,0.0,0.0,0.0,-1.6794,-1.817,-1.9733,-2.0695,-2.0735,-2.0201,-1.9359,-1.817,0.0,0.0,0.0,0.0,0.0,0.0,0.0,0.0,0.0,0.0,0.0,0.0,0.0,0.0,0.0,0.0,0.0,0.0,0.0,0.0,0.0,0.0,0.0,0.0,0.0,0.0,0.0,0.0,0.0,0.0,0.0,0.0,0.0,0.0,0.0,0.0,0.0,0.0,0.0,0.0,0.0,0.0,0.0,0.0,0.0,0.0,0.0,0.0,0.0,0.0,0.0,0.0,0.0,0.0,0.0,0.0,0.0,0.0,0.0,0.0,0.0,0.0,0.0,0.0,0.0,0.0,0.0,0.0,0.0,0.0,0.0,0.0,0.0,0.0,0.0,0.0,0.0,0.0,0.0,0.0,0.0,0.0,0.0,0.0,0.0,0.0,0.0,0.0,0.0,0.0,0.0,0.0,0.0,0.0,0.0,0.0,0.0,0.0,0.0,0.0,0.0,0.0,0.0,0.0,-1.7114,-1.9305,-2.0214,-2.0775,-2.1029,-2.0508,-1.9666,-1.849,0.0,0.0,0.0,0.0,0.0,0.0,0.0,0.0,0.0,0.0,0.0,0.0,0.0,0.0,0.0,0.0,0.0,0.0,0.0,0.0,0.0,0.0,0.0,0.0,0.0,0.0,0.0,0.0,0.0,0.0,0.0,0.0,0.0,0.0,0.0,0.0,0.0,0.0,0.0,0.0,0.0,0.0,0.0,0.0,0.0,0.0,0.0,0.0,0.0,0.0,0.0,0.0,0.0,0.0,0.0,0.0,0.0,0.0,0.0,0.0,0.0,0.0,0.0,0.0,0.0,0.0,0.0,0.0,0.0,0.0,0.0,0.0,0.0,0.0,0.0,0.0,0.0,0.0,0.0,0.0,0.0,0.0,0.0,0.0,0.0,0.0,0.0,0.0,0.0,0.0,0.0,0.0,0.0,0.0,0.0,0.0,0.0,0.0,0.0,0.0,0.0,0.0,0.0,-1.7101,-1.849,-1.988,-2.0561,-2.0895,-2.0882,-2.0334,-1.9492,-1.8303,-1.6994,0.0,0.0,0.0,0.0,0.0,0.0,0.0,0.0,0.0,0.0,0.0,0.0,0.0,0.0,0.0,0.0,0.0,0.0,0.0,0.0,0.0,0.0,0.0,0.0,0.0,0.0,0.0,0.0,0.0,0.0,0.0,0.0,0.0,0.0,0.0,0.0,0.0,0.0,0.0,0.0,0.0,0.0,0.0,0.0,0.0,0.0,0.0,0.0,0.0,0.0,0.0,0.0,0.0,0.0,0.0,0.0,0.0,0.0,0.0,0.0,0.0,0.0,0.0,0.0,0.0,0.0,0.0,0.0,0.0,0.0,0.0,0.0,0.0,0.0,0.0,0.0,0.0,0.0,0.0,0.0,0.0,0.0,0.0,0.0,0.0,0.0,0.0,0.0,0.0,0.0,0.0,0.0,0.0,0.0,0.0,0.0,0.0,0.0,0.0,0.0,0.0,0.0,-1.8303,-1.9586,-2.0174,-2.0762,-2.0989,-2.0695,-2.0134,-1.9292,-1.809,-1.6914,0.0,0.0,0.0,0.0,0.0,0.0,0.0,0.0,0.0,0.0,0.0,0.0,0.0,0.0,0.0,0.0,0.0,0.0,0.0,0.0,0.0,0.0,0.0,0.0,0.0,0.0,0.0,0.0,0.0,0.0,0.0,0.0,0.0,0.0,0.0,0.0,0.0,0.0,0.0,0.0,0.0,0.0,0.0,0.0,0.0,0.0,0.0,0.0,0.0,0.0,0.0,0.0,0.0,0.0,0.0,0.0,0.0,0.0,0.0,0.0,0.0,0.0,0.0,0.0,0.0,0.0,0.0,0.0,0.0,0.0,0.0,0.0,0.0,0.0,0.0,0.0,0.0,0.0,0.0,0.0,0.0,0.0,0.0,0.0,0.0,0.0,0.0,0.0,0.0,0.0,0.0,0.0,0.0,0.0,0.0,0.0,0.0,0.0,0.0,0.0,0.0,0.0,-1.8437,-1.9586,-2.0174,-2.0762,-2.0989,-2.0695,-2.0134,-1.9292,-1.809,-1.6914,0.0,0.0,0.0,0.0,0.0,0.0,0.0,0.0,0.0,0.0,0.0,0.0,0.0,0.0,0.0,0.0,0.0,0.0,0.0,0.0,0.0,0.0,0.0,0.0,0.0,0.0,0.0,0.0,0.0,0.0,0.0,0.0,0.0,0.0,0.0,0.0,0.0,0.0,0.0,0.0,0.0,0.0,0.0,0.0,0.0,0.0,0.0,0.0,0.0,0.0,0.0,0.0,0.0,0.0,0.0,0.0,0.0,0.0,0.0,0.0,0.0,0.0,0.0,0.0,0.0,0.0,0.0,0.0,0.0,0.0,0.0,0.0,0.0,0.0,0.0,0.0,0.0,0.0,0.0,0.0,0.0,0.0,0.0,0.0,0.0,0.0,0.0,0.0,0.0,0.0,0.0,0.0,0.0,0.0,0.0,0.0,0.0,0.0,0.0,0.0,0.0,0.0,-1.8718,-1.9853,-2.0454,-2.0869,-2.0922,-2.0441,-1.9867,-1.8945,-1.7555,0.0,0.0,0.0,0.0,0.0,0.0,0.0,0.0,0.0,0.0,0.0,0.0,0.0,0.0,0.0,0.0,0.0,0.0,0.0,0.0,0.0,0.0,0.0,0.0,0.0,0.0,0.0,0.0,0.0,0.0,0.0,0.0,0.0,0.0,0.0,0.0,0.0,0.0,0.0,0.0,0.0,0.0,0.0,0.0,0.0,0.0,0.0,0.0,0.0,0.0,0.0,0.0,0.0,0.0,0.0,0.0,0.0,0.0,0.0,0.0,0.0,0.0,0.0,0.0,0.0,0.0,0.0,0.0,0.0,0.0,0.0,0.0,0.0,0.0,0.0,0.0,0.0,0.0,0.0,0.0,0.0,0.0,0.0,0.0,0.0,0.0,0.0,0.0,0.0,0.0,0.0,0.0,0.0,0.0,0.0,0.0,0.0,0.0,0.0,0.0,0.0,0.0,-1.7555,-1.8931,-2.0027,-2.0615,-2.0935,-2.0869,-2.0281,-1.9706,-1.8731,-1.7248,0.0,0.0,0.0,0.0,0.0,0.0,0.0,0.0,0.0,0.0,0.0,0.0,0.0,0.0,0.0,0.0,0.0,0.0,0.0,0.0,0.0,0.0,0.0,0.0,0.0,0.0,0.0,0.0,0.0,0.0,0.0,0.0,0.0,0.0,0.0,0.0,0.0,0.0,0.0,0.0,0.0,0.0,0.0,0.0,0.0,0.0,0.0,0.0,0.0,0.0,0.0,0.0,0.0,0.0,0.0,0.0,0.0,0.0,0.0,0.0,0.0,0.0,0.0,0.0,0.0,0.0,0.0,0.0,0.0,0.0,0.0,0.0,0.0,0.0,0.0,0.0,0.0,0.0,0.0,0.0,0.0,0.0,0.0,0.0,0.0,0.0,0.0,0.0,0.0,0.0,0.0,0.0,0.0,0.0,0.0,0.0,0.0,0.0,0.0,0.0,0.0,0.0,-1.7836,-1.9065,-2.0027,-2.0615,-2.0935,-2.0869,-2.0281,-1.9706,-1.8731,0.0,0.0,0.0,0.0,0.0,0.0,0.0,0.0,0.0,0.0,0.0,0.0,0.0,0.0,0.0,0.0,0.0,0.0,0.0,0.0,0.0,0.0,0.0,0.0,0.0,0.0,0.0,0.0,0.0,0.0,0.0,0.0,0.0,0.0,0.0,0.0,0.0,0.0,0.0,0.0,0.0,0.0,0.0,0.0,0.0,0.0,0.0,0.0,0.0,0.0,0.0,0.0,0.0,0.0,0.0,0.0,0.0,0.0,0.0,0.0,0.0,0.0,0.0,0.0,0.0,0.0,0.0,0.0,0.0,0.0,0.0,0.0,0.0,0.0,0.0,0.0,0.0,0.0,0.0,0.0,0.0,0.0,0.0,0.0,0.0,0.0,0.0,0.0,0.0,0.0,0.0,0.0,0.0,0.0,0.0,0.0,0.0,0.0,0.0,0.0,0.0,0.0,0.0,-1.8183,-1.9372,-2.0334,-2.0922,-2.1056,-2.0869,-2.0281,-1.9706,-1.8731,-1.7248,0.0,0.0,0.0,0.0,0.0,0.0,0.0,0.0,0.0,0.0,0.0,0.0,0.0,0.0,0.0,0.0,0.0,0.0,0.0,0.0,0.0,0.0,0.0,0.0,0.0,0.0,0.0,0.0,0.0,0.0,0.0,0.0,0.0,0.0,0.0,0.0,0.0,0.0,0.0,0.0,0.0,0.0,0.0,0.0,0.0,0.0,0.0,0.0,0.0,0.0,0.0,0.0,0.0,0.0,0.0,0.0,0.0,0.0,0.0,0.0,0.0,0.0,0.0,0.0,0.0,0.0,0.0,0.0,0.0,0.0,0.0,0.0,0.0,0.0,0.0,0.0,0.0,0.0,0.0,0.0,0.0,0.0,0.0,0.0,0.0,0.0,0.0,0.0,0.0,0.0,0.0,0.0,0.0,0.0,0.0,0.0,0.0,0.0,0.0,0.0,0.0,0.0,-1.8343,-1.9506,-2.0454,-2.1042,-2.1109,-2.0869,-2.0281,-1.9813,-1.8851,-1.7248,0.0,0.0,0.0,0.0,0.0,0.0,0.0,0.0,0.0,0.0,0.0,0.0,0.0,0.0,0.0,0.0,0.0,0.0,0.0,0.0,0.0,0.0,0.0,0.0,0.0,0.0,0.0,0.0,0.0,0.0,0.0,0.0,0.0,0.0,0.0,0.0,0.0,0.0,0.0,0.0,0.0,0.0,0.0,0.0,0.0,0.0,0.0,0.0,0.0,0.0,0.0,0.0,0.0,0.0,0.0,0.0,0.0,0.0,0.0,0.0,0.0,0.0,0.0,0.0,0.0,0.0,0.0,0.0,0.0,0.0,0.0,0.0,0.0,0.0,0.0,0.0,0.0,0.0,0.0,0.0,0.0,0.0,0.0,0.0,0.0,0.0,0.0,0.0,0.0,0.0,0.0,0.0,0.0,0.0,0.0,0.0,0.0,0.0,0.0,0.0,0.0,0.0,-1.8343,-1.9533,-2.0494,-2.1082,-2.1149,-2.0922,-2.0361,-2.0,-1.9078,-1.7382,0.0,0.0,0.0,0.0,0.0,0.0,0.0,0.0,0.0,0.0,0.0,0.0,0.0,0.0,0.0,0.0,0.0,0.0,0.0,0.0,0.0,0.0,0.0,0.0,0.0,0.0,0.0,0.0,0.0,0.0,0.0,0.0,0.0,0.0,0.0,0.0,0.0,0.0,0.0,0.0,0.0,0.0,0.0,0.0,0.0,0.0,0.0,0.0,0.0,0.0,0.0,0.0,0.0,0.0,0.0,0.0,0.0,0.0,0.0,0.0,-1.4496,-1.4807,0.0,0.0,0.0,0.0,0.0,0.0,0.0,0.0,0.0,0.0,0.0,0.0,0.0,0.0,0.0,0.0,0.0,0.0,0.0,0.0,0.0,0.0,0.0,0.0,0.0,0.0,0.0,0.0,0.0,0.0,0.0,0.0,0.0,0.0,0.0,0.0,0.0,0.0,0.0,0.0,-1.8343,-1.972,-2.0802,-2.139,-2.1456,-2.1309,-2.0949,-2.0227,-1.9345,-1.8277,-1.7141,0.0,0.0,0.0,0.0,0.0,0.0,0.0,0.0,0.0,0.0,0.0,0.0,0.0,0.0,0.0,0.0,0.0,0.0,0.0,0.0,0.0,0.0,0.0,0.0,0.0,0.0,0.0,0.0,0.0,0.0,0.0,0.0,0.0,0.0,0.0,0.0,0.0,0.0,0.0,0.0,0.0,0.0,0.0,0.0,0.0,0.0,0.0,0.0,0.0,0.0,0.0,0.0,0.0,0.0,0.0,0.0,0.0,0.0,0.0,0.0,-1.5137,0.0,0.0,0.0,0.0,0.0,0.0,0.0,0.0,0.0,0.0,0.0,0.0,0.0,0.0,0.0,0.0,0.0,0.0,0.0,0.0,0.0,0.0,0.0,0.0,0.0,0.0,0.0,0.0,0.0,0.0,0.0,0.0,0.0,0.0,0.0,0.0,0.0,0.0,0.0,0.0,-1.8544,-1.9853,-2.0909,-2.1496,-2.1683,-2.1577,-2.1149,-2.0695,-1.9933,-1.8771,-1.7836,0.0,0.0,0.0,0.0,0.0,0.0,0.0,0.0,0.0,0.0,0.0,0.0,0.0,0.0,0.0,0.0,0.0,0.0,0.0,0.0,0.0,0.0,0.0,0.0,0.0,0.0,0.0,0.0,0.0,0.0,0.0,0.0,0.0,0.0,0.0,0.0,0.0,0.0,0.0,0.0,0.0,0.0,0.0,0.0,0.0,0.0,0.0,0.0,0.0,0.0,0.0,0.0,0.0,-1.2116,-1.2225,-1.2657,-1.2708,-1.3368,-1.4527,-1.4405,-1.5032,-1.618,-1.5388,0.0,0.0,0.0,0.0,0.0,0.0,0.0,0.0,0.0,0.0,0.0,0.0,0.0,0.0,0.0,0.0,0.0,0.0,0.0,0.0,0.0,0.0,0.0,0.0,-1.8357,-1.8009,-1.678,0.0,0.0,0.0,0.0,0.0,0.0,0.0,0.0,0.0,0.0,0.0,-1.8918,-2.0107,-2.1056,-2.1643,-2.1924,-2.1871,-2.1376,-2.1203,-2.0575,-1.9305,-1.8571,-1.7689,0.0,0.0,0.0,0.0,0.0,0.0,0.0,0.0,0.0,0.0,0.0,0.0,0.0,0.0,0.0,0.0,0.0,0.0,0.0,0.0,0.0,0.0,0.0,0.0,0.0,0.0,0.0,0.0,0.0,0.0,0.0,0.0,-1.0233,-1.1235,0.0,0.0,0.0,0.0,0.0,0.0,0.0,0.0,0.0,0.0,0.0,0.0,0.0,-1.1246,-1.1394,-1.2081,-1.2274,-1.1939,-1.2435,-1.2531,-1.2334,-1.2548,-1.3021,-1.3601,-1.344,0.0,-1.6176,-1.5671,0.0,0.0,0.0,0.0,0.0,0.0,0.0,0.0,0.0,0.0,0.0,0.0,0.0,0.0,0.0,0.0,0.0,0.0,0.0,0.0,0.0,0.0,-1.8784,-1.9426,-1.9573,-1.9519,0.0,-1.8196,-1.7168,-1.6914,-1.6152,-1.5378,0.0,0.0,0.0,0.0,0.0,0.0,-1.9533,-2.0708,-2.1657,-2.2245,-2.2338,-2.2338,-2.2258,-2.155,-2.0922,-2.0468,-1.9412,-1.8504,-1.7836,-1.6954,0.0,0.0,0.0,0.0,0.0,0.0,0.0,0.0,0.0,0.0,0.0,0.0,0.0,0.0,0.0,0.0,0.0,0.0,0.0,0.0,0.0,0.0,0.0,0.0,0.0,0.0,0.0,0.0,0.0,-0.9376,-1.0004,-1.0466,-1.0517,-1.0469,0.0,0.0,0.0,0.0,0.0,0.0,0.0,0.0,0.0,-1.0246,-1.102,-1.1526,-1.1593,-1.2187,-1.2406,-1.2212,-1.2335,-1.238,-1.2322,-1.2373,-1.2835,-1.3544,-1.3229,-1.3891,-1.4898,-1.4824,-1.5116,-1.5631,0.0,0.0,0.0,0.0,-1.6284,-1.6646,-1.7252,-1.7334,-1.7177,-1.7215,0.0,0.0,0.0,0.0,0.0,0.0,0.0,0.0,0.0,0.0,-2.0054,-2.0641,-2.0788,-2.0828,-2.0989,-2.0388,-1.9479,0.0,-1.7422,-1.6727,-1.6473,-1.6406,0.0,0.0,0.0,-1.8958,-2.0134,-2.1029,-2.1777,-2.2352,-2.2565,-2.2605,-2.2432,-2.1911,-2.1403,-2.0949,-2.012,-1.9399,-1.8811,-1.809,-1.7288,0.0,0.0,0.0,0.0,0.0,0.0,0.0,0.0,0.0,0.0,0.0,0.0,0.0,0.0,0.0,0.0,0.0,0.0,0.0,0.0,0.0,0.0,0.0,0.0,0.0,0.0,0.0,0.0,-0.9298,-0.9749,-0.9989,-1.003,-1.0001,0.0,0.0,0.0,0.0,0.0,0.0,-1.0032,-1.0229,-1.0453,-1.0711,-1.1393,-1.1755,-1.1755,-1.2316,-1.2518,-1.2332,-1.2219,-1.2226,-1.2332,-1.2219,-1.2518,-1.3058,-1.2932,-1.3237,-1.3712,-1.3819,-1.4398,-1.4962,-1.4711,-1.4924,-1.5547,-1.6374,-1.6851,-1.7161,-1.797,-1.8208,-1.7976,-1.7899,-1.7841,-1.7738,-1.7461,0.0,0.0,0.0,0.0,-1.9933,-2.0441,-2.0788,-2.1136,-2.1657,-2.1777,-2.183,-2.2044,-2.1924,-2.1323,0.0,-1.8824,-1.821,-1.8063,-1.7862,0.0,-1.841,-1.8998,-1.9773,-2.0869,-2.1456,-2.1964,-2.2485,-2.2726,-2.2779,-2.2552,-2.2191,-2.1804,-2.1363,-2.0708,-2.0147,-1.972,-1.9065,-1.833,-1.7515,0.0,0.0,0.0,0.0,0.0,0.0,0.0,0.0,0.0,0.0,0.0,0.0,0.0,0.0,0.0,0.0,0.0,0.0,0.0,0.0,0.0,0.0,0.0,0.0,0.0,0.0,0.0,0.0,0.0,-1.0215,-1.0265,0.0,0.0,0.0,0.0,-1.0486,-1.0517,-1.0607,-1.0656,-1.0948,-1.1179,-1.1341,-1.164,-1.1796,-1.1796,-1.1959,-1.2196,-1.2054,-1.204,-1.204,-1.2054,-1.204,-1.2196,-1.2203,-1.2189,-1.2338,-1.2741,-1.348,-1.3712,-1.3781,-1.3882,-1.4015,-1.441,-1.563,-1.6347,-1.7007,-1.808,-1.826,-1.815,-1.829,-1.8221,-1.8131,-1.8282,-1.8764,0.0,0.0,-2.0561,-2.1096,-2.1403,-2.1697,-2.1991,-2.2298,-2.2378,-2.2378,-2.2392,-2.2392,-2.2098,0.0,-2.0508,-1.992,-1.9372,0.0,-1.9359,-1.9666,-2.0214,-2.0909,-2.1804,-2.2191,-2.2498,-2.2806,-2.2859,-2.2859,-2.2846,-2.2311,-2.1977,-2.1937,-2.1136,-2.0641,-2.0615,-1.9786,-1.9038,-1.8437,-1.7261,0.0,0.0,0.0,0.0,0.0,0.0,0.0,0.0,0.0,0.0,0.0,0.0,0.0,0.0,0.0,0.0,0.0,0.0,0.0,0.0,0.0,0.0,0.0,0.0,0.0,0.0,0.0,0.0,-1.0335,-1.0376,0.0,-1.0649,-1.0572,-1.0656,-1.0871,-1.0953,-1.1152,-1.1416,-1.1538,-1.1708,-1.1965,-1.2162,-1.2311,-1.2406,-1.2562,-1.2637,-1.2637,-1.2637,-1.2637,-1.2637,-1.2637,-1.2637,-1.2637,-1.2637,-1.2738,-1.2622,-1.2899,-1.3167,-1.3563,-1.3678,-1.4147,-1.4742,-1.576,-1.641,-1.6924,-1.7727,-1.8254,-1.8291,-1.8417,-1.8599,-1.8721,-1.8872,-1.9387,-2.0016,-2.0916,-2.151,-2.1964,-2.2084,-2.2325,-2.2579,-2.2672,-2.2699,-2.2699,-2.2699,-2.2699,-2.2619,-2.2298,-2.1617,-2.1015,-2.0815,-2.0615,-2.0588,-2.0882,-2.1109,-2.1483,-2.2178,-2.2352,-2.2539,-2.2832,-2.2859,-2.2859,-2.2859,-2.2325,-2.1991,-2.1991,-2.1336,-2.0788,-2.0401,-2.0094,-1.9559,-1.8784,-1.7983,-1.7074,0.0,0.0,0.0,0.0,0.0,0.0,0.0,0.0,0.0,0.0,0.0,0.0,0.0,0.0,0.0,0.0,0.0,0.0,0.0,0.0,0.0,0.0,0.0,0.0,0.0,-0.9992,-1.0405,-1.0751,-1.0839,-1.0914,-1.1016,-1.0934,-1.1016,-1.1362,-1.1436,-1.164,-1.2033,-1.2108,-1.225,-1.2508,-1.261,-1.2705,-1.2807,-1.2908,-1.2963,-1.2963,-1.2963,-1.2963,-1.2963,-1.2963,-1.2963,-1.2963,-1.2963,-1.2901,-1.28,-1.2698,-1.2909,-1.3304,-1.3321,-1.3649,-1.4211,-1.5373,-1.5979,-1.6358,-1.7642,-1.8269,-1.8354,-1.8411,-1.8778,-1.9299,-1.934,-1.9879,-2.0649,-2.1477,-2.2085,-2.2443,-2.243,-2.2576,-2.2859,-2.2859,-2.2859,-2.2859,-2.2859,-2.2859,-2.2859,-2.2859,-2.2311,-2.1844,-2.1844,-2.1603,-2.151,-2.1804,-2.1844,-2.2017,-2.2498,-2.2565,-2.2645,-2.2846,-2.2859,-2.2859,-2.2859,-2.2325,-2.1991,-2.1991,-2.1349,-2.0788,-2.0401,-2.0187,-1.9773,-1.9092,-1.8196,-1.7301,-1.6406,0.0,0.0,0.0,0.0,0.0,0.0,0.0,0.0,0.0,0.0,0.0,0.0,0.0,0.0,0.0,0.0,0.0,0.0,0.0,0.0,0.0,0.0,0.0,-1.0053,-1.046,-1.0907,-1.1355,-1.1538,-1.1633,-1.164,-1.164,-1.1701,-1.185,-1.1999,-1.221,-1.2501,-1.2657,-1.2807,-1.2963,-1.2969,-1.2969,-1.2976,-1.2976,-1.2976,-1.2976,-1.2976,-1.2976,-1.2976,-1.2976,-1.2976,-1.2976,-1.2976,-1.2969,-1.2969,-1.2969,-1.2874,-1.2691,-1.2705,-1.2678,-1.282,-1.43,-1.4884,-1.5328,-1.7576,-1.832,-1.8373,-1.8333,-1.892,-1.9575,-1.9728,-2.0294,-2.1059,-2.1467,-2.2193,-2.2802,-2.2487,-2.2611,-2.2886,-2.2886,-2.2886,-2.2886,-2.2886,-2.2873,-2.2873,-2.2859,-2.2632,-2.2432,-2.2432,-2.2205,-2.2111,-2.2392,-2.2432,0.0,-2.2819,-2.2859,-2.2859,-2.2859,-2.2859,-2.2859,-2.2859,-2.2325,-2.1991,-2.1991,-2.1162,-2.0668,-2.0655,-2.0107,-1.9653,-1.9359,-1.7929,-1.6754,-1.5885,0.0,0.0,0.0,0.0,0.0,0.0,0.0,0.0,0.0,0.0,0.0,0.0,0.0,0.0,0.0,0.0,0.0,0.0,0.0,0.0,0.0,-1.008,-1.0487,-1.0527,-1.0921,-1.1335,-1.1667,-1.1843,-1.1986,-1.2094,-1.2108,-1.221,-1.2461,-1.2522,-1.263,-1.2827,-1.2874,-1.2963,-1.3112,-1.3112,-1.3166,-1.3281,-1.3281,-1.3281,-1.3281,-1.3281,-1.3281,-1.3281,-1.3281,-1.3281,-1.3281,-1.3281,-1.3214,-1.3112,-1.3112,-1.303,-1.2874,-1.3106,-1.3098,-1.329,-1.4239,-1.5168,-1.5963,-1.7192,-1.7625,-1.7713,-1.7689,-1.8094,-1.8672,-1.8756,-1.9009,-1.9326,-2.0651,-2.11,-2.1549,-2.2808,-2.3232,-2.336,-2.3514,-2.3514,-2.346,-2.3247,-2.3193,-2.314,-2.2899,-2.2792,-2.2739,-2.2739,-2.2672,-2.2645,-2.2726,-2.2739,-2.2766,-2.2846,-2.2859,-2.2859,-2.2859,-2.2859,-2.2859,-2.2859,-2.2325,-2.1991,-2.1991,-2.1162,-2.0575,-2.0361,-2.0,-1.9559,-1.9052,-1.8437,-1.7782,0.0,0.0,0.0,0.0,0.0,0.0,0.0,0.0,0.0,0.0,0.0,0.0,0.0,0.0,0.0,0.0,0.0,0.0,0.0,0.0,0.0,0.0,-1.0649,-1.1063,-1.1253,-1.1504,-1.1782,-1.2074,-1.225,-1.24,-1.2556,-1.2569,-1.2644,-1.2813,-1.2881,-1.2983,-1.3139,-1.3207,-1.3308,-1.3451,-1.3451,-1.3498,-1.3587,-1.3587,-1.3587,-1.3587,-1.3587,-1.3587,-1.3587,-1.3526,-1.3498,-1.3492,-1.3431,-1.3349,-1.3268,-1.3268,-1.318,0.0,0.0,0.0,0.0,0.0,-1.4091,-1.4757,-1.5152,-1.5411,-1.5518,-1.6184,-1.7083,-1.798,-1.7986,-1.8041,-1.8301,-1.996,-2.0814,-2.1652,-2.2755,-2.334,-2.3612,-2.3768,-2.3781,-2.387,-2.3695,-2.3514,-2.346,-2.3273,-2.314,0.0,-2.306,-2.2953,-2.2859,-2.2859,-2.2859,-2.2859,-2.2859,-2.2859,-2.2859,-2.2859,-2.2859,-2.2859,-2.2859,-2.2432,0.0,0.0,0.0,-2.0668,-2.0254,-2.0067,0.0,0.0,0.0,-1.8811,-1.833,0.0,0.0,0.0,-1.7168,-1.7301,0.0,0.0,0.0,0.0,0.0,0.0,0.0,0.0,0.0,0.0,0.0,0.0,0.0,0.0,0.0,0.0,-1.1172,-1.1619,-1.2054,-1.2128,-1.2237,-1.2494,-1.2664,-1.282,-1.2969,-1.2983,-1.3003,-1.303,-1.3152,-1.3288,-1.3444,-1.358,0.0,0.0,0.0,-1.3838,-1.3838,-1.3838,-1.3838,-1.3838,-1.3838,-1.3838,-1.3838,-1.3709,-1.3654,-1.3648,-1.3512,-1.3444,-1.3424,-1.3424,-1.3336,-1.318,-1.2856,-1.2795,-1.2775,-1.2635,-1.2561,-1.2514,-1.2535,0.0,0.0,-1.4462,-1.5975,-1.719,-1.7111,-1.7135,-1.7526,-1.9376,-2.1136,-2.2425,-2.2713,-2.3301,-2.3875,-2.3875,-2.4018,-2.4031,-2.4133,-2.3977,-2.3821,-2.3781,-2.3554,-2.338,-2.338,-2.3086,-2.2859,-2.2859,-2.2859,-2.2859,-2.2859,-2.2859,-2.2859,-2.2859,0.0,0.0,-2.2859,-2.2592,-2.2311,-2.2044,-2.1483,-2.0895,-2.0307,-2.0281,-2.016,-1.9907,-1.9893,-1.9786,-1.9559,-1.9599,-1.9746,-1.9987,-1.9359,-1.9092,0.0,0.0,0.0,0.0,0.0,0.0,0.0,0.0,0.0,0.0,0.0,0.0,0.0,0.0,0.0,-1.1185,-1.164,-1.2047,-1.2372,-1.2522,-1.2623,-1.2678,-1.282,-1.2976,-1.3119,-1.3132,-1.3234,-1.3485,-1.3526,-1.36,-1.3749,-1.3783,-1.381,-1.3838,-1.3838,-1.3838,-1.3838,-1.3838,-1.3838,-1.3838,0.0,0.0,-1.3838,-1.381,-1.3797,-1.3797,-1.377,-1.3688,-1.3587,-1.3587,-1.3492,-1.3329,-1.3064,-1.2795,-1.2628,-1.3089,-1.2908,-1.2569,-1.2536,-1.2516,-1.2793,-1.4407,-1.5147,-1.5408,-1.5497,-1.5522,0.0,-1.9041,-2.1015,-2.267,-2.3914,-2.4342,-2.4476,-2.4476,-2.4476,-2.4422,-2.4499,-2.4444,-2.4377,-2.3977,-2.387,-2.3688,-2.3688,-2.3233,-2.2859,-2.2859,-2.2859,-2.2859,-2.2859,-2.2859,-2.2859,-2.2859,-2.2859,-2.2859,-2.2859,-2.2592,-2.2392,-2.2338,-2.179,-2.1203,-2.0615,-2.0588,-2.0561,-2.0508,-2.0508,-2.0601,-2.0775,-2.1015,-2.1162,-2.1189,-2.0361,-2.0107,0.0,0.0,0.0,0.0,0.0,0.0,0.0,0.0,0.0,0.0,0.0,-1.0073,-1.0521,0.0,-1.1206,-1.1653,-1.204,-1.2359,-1.2583,-1.2807,-1.2949,-1.2949,-1.3024,-1.3125,-1.3275,-1.3356,-1.3464,-1.3614,-1.3695,-1.3797,-1.3946,-1.3953,-1.3994,-1.4068,-1.4068,-1.4068,-1.4068,-1.4068,-1.4068,-1.4068,-1.4068,-1.4068,-1.4068,-1.3994,-1.3953,-1.3953,-1.3871,-1.3797,-1.3736,-1.3736,-1.3479,-1.3331,-1.3184,-1.3083,-1.3003,-1.326,-1.3233,-1.2889,-1.2983,-1.2942,-1.3075,-1.3973,-1.3929,-1.3892,-1.4743,-1.5621,-1.6852,-2.0231,-2.2271,-2.3643,-2.4415,-2.4573,-2.4565,-2.4565,-2.4595,-2.4596,-2.4622,-2.4596,-2.4542,-2.4394,-2.4246,-2.4152,-2.3995,-2.3621,-2.3313,-2.3313,-2.3313,-2.3313,-2.3313,-2.3193,-2.31,-2.31,-2.2953,-2.2859,-2.2859,-2.2592,-2.2418,-2.2418,-2.2004,-2.1643,-2.1336,-2.1336,-2.1336,-2.1336,-2.1336,-2.1403,-2.155,-2.1697,-2.1844,-2.1977,-2.1683,-2.147,0.0,0.0,0.0,0.0,0.0,0.0,0.0,-0.9741,-1.0005,-1.0344,-1.0521,-1.0751,-1.1172,-1.1402,-1.166,-1.2081,-1.2372,-1.261,-1.2793,-1.3024,-1.3186,-1.3214,-1.3214,-1.3275,-1.3431,-1.3559,-1.3654,-1.3709,-1.3824,-1.3953,-1.4109,-1.4116,-1.417,-1.4299,-1.4299,-1.4299,-1.4299,-1.4299,-1.4299,-1.4299,-1.4299,-1.4299,-1.4299,-1.417,-1.4116,-1.4109,-1.3953,-1.3885,-1.3885,-1.368,-1.3599,-1.3323,-1.3323,-1.3418,-1.3464,-1.3453,-1.3384,-1.337,-1.3415,-1.3367,-1.3346,-1.3479,-1.3123,-1.2929,-1.4692,-1.6273,-1.8346,-2.1334,-2.308,-2.3965,-2.4418,-2.4482,-2.4402,-2.4553,-2.4671,-2.4621,-2.4568,-2.4568,-2.4555,-2.4649,-2.4609,-2.4461,-2.4289,-2.4102,-2.3901,-2.3794,-2.3768,-2.3768,-2.3768,-2.3554,-2.3407,-2.3407,-2.3193,-2.302,-2.2953,-2.2672,-2.2498,-2.2498,-2.2285,-2.2138,-2.2071,-2.2071,-2.2071,-2.2071,-2.2071,-2.2098,-2.2151,-2.2218,-2.2365,-2.2605,-2.2899,-2.2752,-0.9571,-0.9401,-0.9293,-0.9449,-0.9523,-0.9666,0.0,-1.0202,-1.0351,-1.0785,-1.0989,-1.1185,-1.1511,-1.1796,-1.2088,-1.24,-1.2596,-1.28,-1.3085,-1.3152,-1.322,-1.3356,-1.3376,-1.3437,-1.3587,-1.362,-1.3736,-1.4,-1.4034,-1.4116,-1.4265,-1.4272,-1.4285,-1.4299,-1.4299,-1.4299,-1.4299,-1.4299,-1.4299,-1.4299,-1.4299,-1.4299,-1.4299,-1.4285,-1.4272,-1.4265,-1.4109,-1.4041,-1.4034,-1.3548,-1.3475,-1.3462,-1.3462,-1.3455,-1.3409,-1.3478,-1.3376,-1.3376,-1.3356,-1.3349,-1.3329,-1.3356,-1.3295,-1.3584,-1.5417,-1.7118,-1.9016,-2.0841,-2.1558,-2.1946,-2.3569,-2.397,-2.4035,-2.4508,-2.4609,-2.4657,-2.4573,-2.4534,-2.4605,-2.4528,-2.4609,-2.4596,-2.4596,-2.4556,-2.4369,-2.3848,-2.3768,-2.3768,-2.3768,-2.3741,-2.3728,-2.3728,-2.3688,-2.3567,-2.33,-2.2993,-2.2819,-2.2819,-2.2779,-2.2645,-2.2378,-2.2378,-2.2378,-2.2378,-2.2378,-2.2498,-2.2766,-2.3046,-2.3193,-2.3233,-2.3527,-2.3487,-0.9693,-0.9686,-0.9788,-0.9849,-1.0059,-1.0331,-1.0609,-1.0806,-1.1002,-1.128,-1.145,-1.1647,-1.1952,-1.2108,-1.2291,-1.2583,-1.2766,-1.2935,-1.3146,-1.3247,-1.3329,-1.3397,-1.3403,-1.3458,-1.3614,-1.3702,-1.3844,-1.4055,-1.4156,-1.4231,-1.4299,-1.4299,-1.4299,-1.4299,-1.438,-1.4421,-1.4421,-1.4509,-1.4509,-1.4421,-1.4421,-1.438,-1.4299,-1.4299,-1.4299,-1.4299,-1.4231,-1.4204,-1.4197,-1.3954,-1.3874,-1.3973,-1.3973,-1.3919,-1.3831,-1.3526,-1.3479,-1.3479,-1.3479,-1.3432,-1.3351,-1.3458,-1.337,-1.3774,-1.5544,-1.6487,-1.7441,-1.9272,-1.9865,-2.0123,-2.1919,-2.3079,-2.4065,-2.5373,-2.5692,-2.5657,-2.5702,-2.5152,-2.477,-2.5006,-2.5144,-2.5144,-2.5144,-2.501,-2.481,-2.4569,-2.4382,-2.4275,-2.4275,-2.4128,-2.3955,-2.3794,-2.3768,-2.3714,-2.3594,-2.346,-2.3394,-2.3394,-2.3394,-2.334,-2.3207,-2.3207,-2.3207,-2.3207,-2.3207,-2.3273,-2.3394,-2.3527,-2.3581,-2.3594,-2.3888,-2.3955,-0.9829,-0.9944,-1.0181,-1.0222,-1.0514,-1.0833,-1.1029,-1.124,-1.1436,-1.1586,-1.1769,-1.1959,-1.2189,-1.2291,-1.2447,-1.2745,-1.2888,-1.3024,-1.3207,-1.3329,-1.3383,-1.3342,-1.3376,-1.3444,-1.3553,-1.3736,-1.3905,-1.4061,-1.4211,-1.4299,-1.4299,-1.434,-1.436,-1.436,-1.4502,-1.4577,-1.4577,-1.4685,-1.4685,-1.4577,-1.4577,-1.4523,-1.4421,-1.4421,-1.4401,-1.436,-1.436,-1.4333,-1.4299,-1.4299,-1.4238,-1.4311,-1.4311,-1.4249,-1.4326,-1.3794,-1.3733,-1.3666,-1.3666,-1.3599,-1.3688,-1.3512,-1.3405,-1.361,-1.4961,-1.5247,-1.5514,-1.6837,-1.7629,-1.8416,-2.0059,-2.2225,-2.4219,-2.6055,-2.6351,-2.643,-2.6361,-2.5638,-2.5264,-2.5698,-2.5698,-2.5684,-2.5518,-2.5344,-2.5197,-2.5197,-2.5024,-2.4823,-2.4663,-2.4449,-2.4249,-2.4035,-2.3941,-2.3888,-2.3888,-2.3821,-2.3768,-2.3768,-2.3768,-2.3768,-2.3768,-2.3768,-2.3768,-2.3768,-2.3768,-2.3768,-2.3768,-2.3848,-2.3928,-2.4022,-2.4315,-2.4489,-1.008,-1.0256,-1.0514,-1.0663,-1.0819,-1.1016,-1.1314,-1.1382,-1.1436,-1.1586,-1.185,-1.206,-1.2067,-1.2305,-1.2596,-1.2901,-1.2956,-1.3064,-1.3356,-1.3397,-1.3349,-1.32,-1.3308,-1.3403,-1.341,-1.3668,-1.3905,-1.4061,-1.4211,-1.4299,-1.4299,-1.4428,-1.4502,-1.4502,-1.4652,-1.4733,-1.4733,-1.474,-1.474,-1.4733,-1.4733,-1.4733,-1.4726,-1.4544,-1.4645,-1.4509,-1.4323,-1.4242,-1.4299,-1.4299,-1.4299,-1.4292,-1.4292,-1.4292,-1.4285,-1.4285,-1.4277,-1.4201,-1.4201,-1.4194,-1.4187,-1.3653,-1.3376,-1.3412,-1.3405,-1.3451,-1.3473,-1.3603,-1.4743,-1.6537,-1.8323,-2.1296,-2.4308,-2.6029,-2.6453,-2.645,-2.6364,-2.6297,-2.6371,-2.6432,-2.6377,-2.6211,-2.5864,-2.5671,-2.5504,-2.5504,-2.5491,-2.5277,-2.4716,-2.4623,-2.4623,-2.4609,-2.4356,-2.4195,-2.4195,-2.3928,-2.3768,-2.3768,-2.3768,-2.3768,-2.3768,-2.3768,-2.3768,-2.3768,-2.3768,-2.3768,-2.3768,-2.4048,-2.4329,-2.4623,-2.4917,-2.5211,-1.0188,-1.0419,-1.0704,-1.0955,-1.1131,-1.1294,-1.1497,-1.1545,-1.1586,-1.1728,-1.1837,-1.1938,-1.204,-1.2223,-1.2427,-1.2623,-1.2827,-1.303,-1.322,-1.3336,-1.3383,-1.3329,-1.337,-1.3403,-1.3403,-1.3668,-1.3905,-1.4061,-1.4211,-1.434,-1.4434,-1.4482,-1.4557,-1.4658,-1.4814,-1.4896,-1.4896,-1.4984,-1.4984,-1.4896,-1.4787,-1.474,-1.474,-1.4557,-1.4531,-1.4658,-1.4477,-1.439,-1.4256,-1.4256,-1.438,-1.4299,-1.4299,-1.4299,-1.4299,-1.4299,-1.4238,-1.4325,-1.4325,-1.4263,-1.4347,-1.3994,-1.4064,-1.3933,-1.3566,-1.4224,-1.521,-1.5142,-1.6475,-1.8153,-1.994,-2.2113,-2.4275,-2.5957,-2.6373,-2.6414,-2.6477,-2.6423,-2.6397,-2.6459,-2.6445,-2.6432,-2.6262,-2.5945,-2.5745,-2.5545,-2.5344,-2.5157,-2.4957,-2.4756,-2.4636,-2.4636,-2.4556,-2.4489,-2.4489,-2.4396,-2.4342,-2.4342,-2.4342,-2.4342,-2.4342,-2.4342,-2.4342,-2.4342,-2.4342,-2.4342,-2.4342,-2.4636,-2.4836,-2.4943,-2.5224,-2.5424,-1.0399,-1.069,-1.1009,-1.1199,-1.1362,-1.1497,-1.1599,-1.1619,-1.1647,-1.1735,-1.1755,-1.1782,-1.1884,-1.2026,-1.2189,-1.2393,-1.2678,-1.2949,-1.3146,-1.3302,-1.3376,-1.3322,-1.337,-1.3403,-1.3403,-1.3668,-1.3878,-1.398,-1.4231,-1.4414,-1.4509,-1.4618,-1.4719,-1.4821,-1.497,-1.5045,-1.5045,-1.514,-1.514,-1.5045,-1.4943,-1.4896,-1.4896,-1.4896,-1.4869,-1.4821,-1.4638,-1.4551,-1.459,-1.459,-1.4543,-1.4641,-1.4455,-1.4421,-1.4373,-1.4373,-1.434,-1.4292,-1.4299,-1.4231,-1.4318,-1.4318,-1.4388,-1.4249,-1.3878,-1.4893,-1.6406,-1.6334,-1.822,-2.0467,-2.2266,-2.4128,-2.5627,-2.6769,-2.6664,-2.6558,-2.6921,-2.7067,-2.7054,-2.6707,-2.6627,-2.6547,-2.6547,-2.6306,-2.6039,-2.5852,-2.5571,-2.5358,-2.5251,-2.5064,-2.4943,-2.4943,-2.4943,-2.4903,-2.4796,-2.4796,-2.4756,-2.4649,-2.4636,-2.4636,-2.4636,-2.4636,-2.469,-2.4796,-2.4796,-2.485,-2.4943,-2.5144,-2.5291,-2.5398,-2.5585,-2.5732,-1.0697,-1.1063,-1.1396,-1.1402,-1.1511,-1.1619,-1.1619,-1.1613,-1.1606,-1.1606,-1.1599,-1.1586,-1.1592,-1.1714,-1.1911,-1.2216,-1.2528,-1.2834,-1.3132,-1.3308,-1.3363,-1.322,-1.3336,-1.3424,-1.3424,-1.3682,-1.3858,-1.3865,-1.4265,-1.4516,-1.4523,-1.4808,-1.4977,-1.4984,-1.5113,-1.5181,-1.5181,-1.5181,-1.5181,-1.5181,-1.5181,-1.5181,-1.5181,-1.5181,-1.5113,-1.5176,-1.5176,-1.5271,-1.5132,-1.5132,-1.5125,-1.5118,-1.4929,-1.4652,-1.4336,-1.4336,-1.4242,-1.4285,-1.4489,-1.4299,-1.4265,-1.4441,-1.4507,-1.4541,-1.452,-1.5801,-1.7214,-1.7315,-2.0101,-2.3279,-2.496,-2.6874,-2.8263,-2.814,-2.7321,-2.6738,-2.8003,-2.8194,-2.8003,-2.7445,-2.7216,-2.7028,-2.7028,-2.6613,-2.6413,-2.6413,-2.6159,-2.5865,-2.5571,-2.5518,-2.5518,-2.5518,-2.5518,-2.5398,-2.513,-2.5104,-2.4983,-2.4703,-2.4676,-2.4676,-2.4676,-2.4676,-2.481,-2.5104,-2.5104,-2.5237,-2.5518,-2.5531,-2.5678,-2.5959,-2.5972,-2.6132,-1.0839,-1.1074,-1.1416,-1.1531,-1.1592,-1.1619,-1.1619,-1.1531,-1.145,-1.145,-1.1274,-1.1151,-1.126,-1.1402,-1.1599,-1.1898,-1.2386,-1.2834,-1.3132,-1.3403,-1.3593,-1.3661,-1.3702,-1.3729,-1.3729,-1.3899,-1.4061,-1.4177,-1.4387,-1.4563,-1.4672,-1.4869,-1.5018,-1.5126,-1.516,-1.5181,-1.5181,-1.5181,-1.5181,-1.5181,-1.5181,-1.5181,-1.5181,-1.5181,-1.516,-1.5126,-1.5126,-1.5238,-1.5292,-1.5292,-1.5222,-1.5118,-1.5118,-1.5462,-1.597,-1.4658,-1.4243,-1.455,-1.5845,-1.5505,-1.4583,-1.5843,-1.6347,-1.6649,-1.807,-1.8721,-1.954,-2.0928,-2.2867,-2.4791,-2.5216,-2.6799,-2.8171,-2.8234,-2.7973,-2.7892,-2.8058,-2.8194,-2.818,-2.8003,-2.7744,-2.7337,-2.7324,-2.6907,-2.6707,-2.6707,-2.6466,-2.6172,-2.5879,-2.5651,-2.5518,-2.5518,-2.5518,-2.5478,-2.5411,-2.5398,-2.5371,-2.5291,-2.5291,-2.5291,-2.5291,-2.5291,-2.5317,-2.5398,-2.5398,-2.5438,-2.5518,-2.5732,-2.5879,-2.5959,-2.6172,-2.644,-1.0994,-1.1328,-1.1606,-1.1543,-1.1714,-1.1681,-1.1552,-1.1402,-1.1274,-1.1212,-1.0962,-1.0772,-1.0853,-1.105,-1.1294,-1.1592,-1.2196,-1.2759,-1.3119,-1.3437,-1.3682,-1.3824,-1.3838,-1.3865,-1.3933,-1.4082,-1.4231,-1.438,-1.4529,-1.4679,-1.4835,-1.4984,-1.5099,-1.5181,-1.5181,-1.5181,-1.5181,-1.5181,-1.5181,-1.5181,-1.5181,-1.5181,-1.5181,-1.5181,-1.5181,-1.5181,-1.5181,-1.514,-1.5252,-1.5252,-1.5204,-1.5128,-1.5128,-1.5647,-1.6506,-1.6118,-1.6795,-1.8183,-1.9671,-2.0045,-1.9618,-1.8638,-1.8891,-1.969,-2.0771,-2.1078,-2.1556,-2.3365,-2.459,-2.5616,-2.6443,-2.7343,-2.819,-2.8144,-2.8257,-2.8217,-2.8234,-2.8207,-2.8166,-2.8043,-2.7825,-2.7593,-2.7295,-2.7134,-2.7014,-2.7014,-2.6881,-2.672,-2.6547,-2.6159,-2.5892,-2.5892,-2.5892,-2.5852,-2.5718,-2.5705,-2.5651,-2.5518,-2.5518,-2.5518,-2.5518,-2.5518,-2.5571,-2.5705,-2.5705,-2.5772,-2.5892,-2.6066,-2.6213,-2.6333,-2.6507,-2.6734,-1.1129,-1.1603,-1.1864,-1.171,-1.1697,-1.1755,-1.1457,-1.124,-1.1056,-1.0894,-1.0602,-1.0385,-1.0426,-1.067,-1.0968,-1.1307,-1.1986,-1.263,-1.3078,-1.3444,-1.3709,-1.3858,-1.3885,-1.396,-1.4116,-1.4251,-1.4394,-1.4563,-1.4699,-1.4828,-1.4964,-1.5106,-1.5181,-1.5181,-1.5181,-1.5181,-1.5181,-1.5181,-1.5181,-1.5181,-1.5181,-1.5181,-1.5181,-1.5181,-1.5181,-1.5181,-1.5181,-1.5181,-1.5181,-1.5181,-1.5181,-1.5181,-1.5181,-1.5666,-1.6487,-1.7989,-2.0318,-2.2775,-2.4272,-2.5877,-2.646,-2.2111,-2.1689,-2.3097,-2.3292,-2.3387,-2.3675,-2.5323,-2.5848,-2.6348,-2.7761,-2.8114,-2.8257,-2.8163,-2.8136,-2.8136,-2.8136,-2.8136,-2.807,-2.7802,-2.7762,-2.7682,-2.7428,-2.7348,-2.7321,-2.7321,-2.7295,-2.7268,-2.7268,-2.6814,-2.6493,-2.6453,-2.6453,-2.6333,-2.6039,-2.6012,-2.5905,-2.5638,-2.5625,-2.5625,-2.5625,-2.5625,-2.5758,-2.6012,-2.6052,-2.6199,-2.6453,-2.6493,-2.664,-2.6881,-2.6881,-2.7041,-1.1451,-1.1904,-1.2331,-1.2175,-1.1925,-1.1755,-1.1457,-1.1084,-1.0717,-1.0453,-1.0059,-0.9836,-1.008,-1.0276,-1.0575,-1.1118,-1.1837,-1.2488,-1.2935,-1.3464,-1.3858,-1.4014,-1.4143,-1.4278,-1.4421,-1.4462,-1.459,-1.4869,-1.4916,-1.4943,-1.497,-1.5106,-1.5181,-1.5181,-1.5181,-1.5181,-1.5181,-1.5181,-1.5181,-1.5181,-1.5181,-1.5181,-1.5181,-1.5181,-1.5181,-1.5181,-1.5181,0.0,-1.5181,-1.5181,-1.5181,-1.5181,-1.5563,-1.6299,-1.739,-1.9074,-2.1102,-2.3504,-2.6576,-2.7895,-2.7749,-2.5252,-2.4714,-2.5185,-2.6721,-2.7234,-2.7359,-2.7559,-2.8456,-2.8938,-2.8287,-2.8195,-2.8273,-2.8203,-2.8136,-2.8136,-2.8136,-2.8136,-2.8123,-2.807,-2.807,-2.8056,-2.8003,-2.7789,-2.7629,-2.7629,-2.7415,-2.7268,-2.7268,-2.7175,-2.7014,-2.6774,-2.6747,-2.6627,-2.6333,-2.6319,-2.6293,-2.6239,-2.6239,-2.6239,-2.6239,-2.6239,-2.6266,-2.6319,-2.6547,-2.6694,-2.6747,-2.6987,-2.7148,-2.7188,-2.7188,-2.7348,-1.1911,-1.2216,-1.2491,-1.234,-1.231,-1.2032,-1.1643,-1.1142,-1.0541,-0.9975,-0.962,-0.9439,-0.9781,-1.0073,-1.0453,-1.0968,-1.1681,-1.2359,-1.2888,-1.3403,-1.3817,-1.4048,-1.4204,-1.4353,-1.4496,-1.4584,-1.4726,-1.495,-1.5038,-1.5079,-1.5079,-1.5147,-1.5181,-1.5181,-1.5181,-1.5181,-1.5181,-1.5181,-1.5181,-1.5181,-1.5181,-1.5181,-1.5181,-1.5181,-1.5181,-1.5181,-1.5181,-1.5181,-1.5181,-1.5181,-1.5368,-1.5563,-1.6119,-1.7055,-1.8363,-2.0037,-2.2063,-2.428,-2.6565,-2.7945,-2.868,-2.7596,-2.7548,-2.7874,-2.8842,-2.9004,-2.9138,-2.9138,-2.9515,-2.9836,-2.9285,-2.8858,-2.8605,-2.8829,-2.8617,-2.8604,-2.8604,-2.8604,-2.8604,-2.8604,-2.8484,-2.839,-2.839,-2.8136,-2.7923,-2.7923,-2.7816,-2.7722,-2.7722,-2.7722,-2.7549,-2.7108,-2.7054,-2.7001,-2.6854,-2.6841,-2.6841,-2.6841,-2.6841,-2.6841,-2.6841,-2.6841,-2.6841,-2.6841,-2.6987,-2.7054,-2.7054,-2.7201,-2.7348,-2.7495,-2.7495,-2.7655,-1.2324,-1.2505,-1.2484,-1.2457,-1.2522,-1.2308,-1.1795,-1.1066,-1.0524,-0.9674,-0.9248,-0.9225,-0.9406,-0.9774,-1.0196,-1.0778,-1.1477,-1.2155,-1.2691,-1.3207,-1.3641,-1.3939,-1.417,-1.4367,-1.4543,-1.4699,-1.4848,-1.5004,-1.512,-1.5181,-1.5181,-1.5181,-1.5181,-1.5181,-1.5181,-1.5181,-1.5181,-1.5181,-1.5181,-1.5181,-1.5181,-1.5181,-1.5181,-1.5181,-1.5181,-1.5181,-1.5181,-1.5181,-1.5181,-1.5368,-1.5556,-1.6126,-1.6868,-1.7981,-1.9648,-2.1315,-2.3331,-2.5343,-2.6628,-2.7908,-2.9362,-2.9169,-2.9468,-2.9893,-2.9893,-2.9866,-2.9839,-2.9839,-2.9839,-2.9825,-2.9757,-2.9528,-2.9125,-2.9246,-2.9058,-2.9045,-2.9045,-2.9045,-2.9045,-2.9045,-2.8858,-2.8698,-2.8698,-2.8444,-2.8243,-2.8243,-2.819,-2.8136,-2.8136,-2.8136,-2.7963,-2.7509,-2.7402,-2.7335,-2.7268,-2.7268,-2.7268,-2.7268,-2.7268,-2.7268,-2.7268,-2.7268,-2.7268,-2.7268,-2.7321,-2.7362,-2.7362,-2.7428,-2.7575,-2.7789,-2.7869,-2.8016,-1.2324,-1.2429,-1.2454,-1.2477,-1.2522,-1.228,-1.1674,-1.1171,-1.0457,-0.9634,-0.9184,-0.895,-0.8993,-0.9281,-0.9751,-1.0323,-1.102,-1.1623,-1.2101,-1.2759,-1.3329,-1.3634,-1.4041,-1.4414,-1.4692,-1.4862,-1.5011,-1.5153,-1.5174,-1.5181,-1.5181,-1.5181,-1.5181,-1.5181,-1.5181,-1.5181,-1.5181,-1.5181,-1.5181,-1.5181,-1.5181,-1.5181,-1.5181,-1.5181,-1.5181,-1.5181,-1.5181,-1.5181,0.0,-1.5751,-1.6119,-1.6681,-1.8168,-1.9657,-2.114,-2.3515,-2.5525,-2.7003,-2.8449,-2.9362,-2.9913,-2.9734,-2.9887,-2.9847,-2.9847,-2.9847,-2.9847,-2.9847,-2.9847,-2.978,-2.9499,-2.9432,-2.9379,-2.9112,-2.9045,-2.9045,-2.9045,-2.9045,-2.9045,-2.9045,-2.9018,-2.9005,-2.9005,-2.8764,-2.8564,-2.8564,-2.8323,-2.8136,-2.8136,-2.8136,-2.8123,-2.807,-2.7816,-2.7549,-2.7281,-2.7268,-2.7268,-2.7268,-2.7268,-2.7268,-2.7268,-2.7268,-2.7268,-2.7268,-2.7522,-2.7655,-2.7655,-2.7923,-2.8083,-2.811,-2.839,-2.8537,-1.2339,-1.2456,-1.2519,-1.2464,-1.2296,-1.1865,-1.1207,-1.0548,-0.9937,-0.9215,-0.903,-0.889,-0.8856,-0.9131,-0.9592,-1.029,-1.0779,-1.1335,-1.187,-1.2488,-1.3017,-1.3315,-1.3749,-1.4177,-1.4563,-1.474,-1.493,-1.5167,-1.5181,-1.5181,-1.5181,-1.5181,-1.5181,-1.5181,-1.5181,-1.5181,-1.5181,-1.5181,-1.5181,-1.5181,-1.5181,-1.5181,-1.5181,-1.5563,-1.5563,-1.5751,-1.6306,-1.6494,0.0,-1.7055,-1.7795,-1.8532,-1.9843,-2.1315,-2.3168,-2.499,-2.6628,-2.8101,-2.8822,-2.9541,-2.9913,-2.9913,-2.9913,-2.9913,-2.9913,-2.9913,-2.9913,-2.9913,-2.9913,-2.9887,-2.9766,-2.974,-2.9713,-2.9593,-2.9566,-2.9566,-2.9566,-2.9566,-2.9566,-2.9566,-2.9419,-2.9312,-2.9312,-2.9058,-2.8871,-2.8871,-2.8764,-2.8684,-2.8684,-2.8684,-2.8684,-2.8684,-2.8257,-2.7923,-2.7802,-2.7789,-2.7789,-2.7789,-2.7789,-2.7789,-2.7789,-2.7789,-2.7789,-2.7789,-2.7909,-2.7963,-2.7963,-2.827,-2.8417,-2.843,-2.8724,-2.8871,-1.2004,-1.2416,-1.2456,-1.2564,-1.2088,-1.1509,-1.0779,-1.027,-0.9686,-0.9072,-0.8911,-0.887,-0.8891,-0.9046,-0.9493,-1.0273,-1.0711,-1.124,-1.1647,-1.2216,-1.2725,-1.3071,-1.3539,-1.4014,-1.4468,-1.4733,-1.4957,-1.5167,-1.5181,-1.5181,-1.5181,-1.5181,-1.5181,-1.5181,-1.5181,-1.5181,-1.5181,-1.5181,-1.5181,-1.5368,-1.5368,-1.5556,-1.5931,-1.6126,-1.6501,-1.6868,-1.7616,-1.7989,0.0,-1.8727,-1.9648,-2.039,-2.1685,-2.3158,-2.5001,-2.6458,-2.7739,-2.8835,-2.9182,-2.9554,-2.9913,-2.9913,-2.9913,-2.9913,-2.9913,-2.9913,-2.9913,-2.9913,-2.9913,-2.9913,-2.9913,-2.9913,-2.9913,-2.9913,-2.9913,-2.9913,-2.9913,-2.9913,-2.9913,-2.9913,-2.9753,-2.9606,-2.9606,-2.9366,-2.9165,-2.9165,-2.9098,-2.9045,-2.9045,-2.9045,-2.9045,-2.9045,-2.8657,-2.8377,-2.8283,-2.8283,-2.8243,-2.815,-2.8136,-2.819,-2.827,-2.8283,-2.8323,-2.8404,-2.8404,-2.8404,-2.8404,-2.8631,-2.8738,-2.8738,-2.9032,-2.9219,-1.1497,-1.2025,-1.2554,-1.2554,-1.2122,-1.1474,-1.0871,-1.017,-0.9689,-0.9052,-0.8911,-0.887,-0.8891,-0.8923,-0.9213,-1.0136,-1.083,-1.12,-1.1355,-1.1918,-1.2461,-1.2908,-1.3485,-1.4014,-1.4468,-1.4916,-1.5181,-1.5181,-1.5181,-1.5181,-1.5181,-1.5181,-1.5181,-1.5181,-1.5181,-1.5181,-1.5181,-1.5181,-1.5375,-1.5938,-1.5938,-1.6501,-1.7437,-1.7437,-1.7989,-1.8913,-1.8913,-1.9091,0.0,-2.0751,-2.1315,-2.2063,-2.4064,-2.5343,-2.6458,-2.792,-2.8835,-2.9182,-2.9734,-2.9913,-2.9913,-2.9913,-2.9913,-2.9913,-2.9913,-2.9913,-2.9913,-2.9913,-2.9913,-2.9913,-2.9913,-2.9913,-2.9913,-2.9913,-2.9913,-2.9913,-2.9913,-2.9913,-2.9913,-2.9913,-2.9913,-2.9913,-2.9913,-2.9673,-2.9486,-2.9486,-2.9232,-2.9045,-2.9045,-2.9045,-2.9045,-2.9045,-2.9032,-2.8911,-2.8631,-2.8604,-2.847,-2.8163,-2.8136,-2.8283,-2.8591,-2.8604,-2.8738,-2.9032,-2.9032,-2.9032,-2.9032,-2.9032,-2.9032,-2.9045,-2.9339,-2.9633,-1.09,-1.1413,-1.1825,-1.1889,-1.1386,-1.0894,-1.0181,-0.9964,-0.9655,-0.9036,-0.8957,-0.8954,-0.8883,-0.8895,-0.9183,-0.9849,-1.0663,-1.1212,-1.1482,-1.1911,-1.242,-1.2766,-1.36,-1.4462,-1.5167,-1.5533,-1.5744,-1.6119,-1.6306,-1.6119,-1.5751,-1.6119,-1.5931,-1.5181,-1.5181,-1.5181,-1.5181,-1.5556,-1.5931,-1.6494,-1.7055,-1.7803,-1.8541,-1.9462,-2.001,-2.0566,-2.185,-2.2586,-2.277,-2.3687,-2.443,-2.499,-2.5901,-2.7003,-2.792,-2.8642,-2.9195,-2.9734,-2.9913,-2.9913,-2.9913,-2.9913,-2.9913,-2.9913,-2.9913,-2.9913,-2.9913,-2.9913,-2.9913,-2.9913,-2.9913,-2.9913,-2.9913,-2.9913,-2.9913,-2.9913,-2.9913,-2.9913,-2.9913,-2.9913,-2.9913,-2.9913,-2.9913,-2.9847,-2.978,-2.978,-2.97,-2.9633,-2.9633,-2.9633,-2.9633,-2.9633,-2.9633,-2.9432,-2.8951,-2.8898,-2.8858,-2.8764,-2.8751,-2.8804,-2.8898,-2.8898,-2.8951,-2.9045,-2.9045,-2.9045,-2.9045,-2.9245,-2.9446,-2.9646,-2.974,-2.9833,-1.0273,-1.0765,-1.1284,-1.1295,-1.0967,-1.0521,-0.9923,-0.9633,-0.9381,-0.8957,-0.8923,-0.8954,-0.8897,-0.8863,-0.9131,-0.9721,-1.0628,-1.1291,-1.1615,-1.2058,-1.2501,-1.3078,-1.405,-1.5033,-1.5884,-1.6339,-1.6868,-1.7242,-1.7242,-1.7055,-1.6501,-1.6868,-1.6681,-1.6119,-1.5931,-1.5744,-1.5744,-1.6306,-1.6868,-1.7608,-1.8541,-1.9648,-2.0575,-2.1675,-2.2586,-2.3137,-2.443,-2.4978,0.0,-2.6083,-2.6446,-2.6821,-2.7546,-2.8281,-2.8835,-2.9375,-2.9734,-2.9913,-2.9913,-2.9913,-2.9913,-2.9913,-2.9913,-2.9913,-2.9913,-2.9913,-2.9913,-2.9913,-2.9913,-2.9913,-2.9913,-2.9913,-2.9913,-2.9913,-2.9913,-2.9913,-2.9913,-2.9913,-2.9913,-2.9913,-2.9913,-2.9913,-2.9913,-2.9913,-2.9913,-2.9913,-2.9913,-2.9913,-2.9913,-2.9913,-2.9913,-2.9913,-2.9913,-2.9766,-2.9406,-2.9272,-2.9152,-2.9045,-2.9045,-2.9085,-2.9205,-2.9205,-2.9259,-2.9366,-2.9366,-2.9366,-2.9366,-2.9553,-2.974,-2.9913,-2.9913,-2.9913,0.0,-1.0222,-1.0672,-1.069,-1.0637,-1.0507,-0.9842,-0.9345,0.0,-0.8904,-0.8917,-0.887,-0.8891,-0.8928,-0.9176,-0.9724,-1.0568,-1.1312,-1.1643,-1.2127,-1.2752,-1.3756,-1.4794,-1.5731,-1.6582,-1.7691,-1.8363,-1.8549,-1.8549,-1.8176,-1.7616,-1.7616,-1.7616,-1.7616,-1.7242,-1.7048,-1.686,-1.7429,-1.8176,-1.9099,-2.0196,-2.1675,-2.3536,-2.4064,-2.5161,-2.6446,-2.6446,-2.6821,-2.7184,-2.7727,-2.792,-2.792,-2.8822,-2.9182,-2.9362,-2.9734,-2.9913,-2.9913,-2.9913,-2.9913,-2.9913,-2.9913,-2.9913,-2.9913,-2.9913,-2.9913,-2.9913,-2.9913,-2.9913,-2.9913,-2.9913,-2.9913,-2.9913,-2.9913,-2.9913,-2.9913,-2.9913,-2.9913,-2.9913,-2.9913,-2.9913,-2.9913,-2.9913,-2.9913,-2.9913,-2.9913,-2.9913,-2.9913,-2.9913,-2.9913,-2.9913,-2.9913,-2.9913,-2.9913,-2.9913,-2.9673,-2.9392,-2.9125,-2.9098,-2.9232,-2.9499,-2.9513,-2.9646,-2.9913,-2.9913,-2.9913,-2.9913,-2.9913,-2.9913,-2.9913,-2.9913,-2.9913,-0.9103,0.0,-0.9964,-0.9988,-1.0012,-0.9836,0.0,-0.9039,-0.8891,-0.8897,-0.885,-0.887,-0.8891,-0.9252,-0.9786,-1.0376,-1.0932,-1.1372,-1.1949,-1.2807,-1.37,-1.4639,-1.5556,-1.6583,-1.8067,-1.9173,-2.0205,-2.0955,-2.0955,-2.0575,-1.9648,-2.0028,-2.0028,-1.9648,-2.039,-2.0019,-1.8354,-1.9648,-2.0575,-2.114,-2.2964,-2.4247,-2.5001,-2.6276,-2.7003,-2.7365,-2.8088,-2.8629,-2.8642,-2.9182,-2.9375,-2.9375,-2.9554,-2.9734,-2.9734,-2.9913,-2.9913,-2.9913,-2.9913,-2.9913,-2.9913,-2.9913,-2.9913,-2.9913,-2.9913,-2.9913,-2.9913,-2.9913,-2.9913,-2.9913,-2.9913,-2.9913,-2.9913,-2.9913,-2.9913,-2.9913,-2.9913,-2.9913,-2.9913,-2.9913,-2.9913,-2.9913,-2.9913,-2.9913,-2.9913,-2.9913,-2.9913,-2.9913,-2.9913,-2.9913,-2.9913,-2.9913,-2.9913,-2.9913,-2.9913,-2.986,-2.978,-2.9713,-2.9713,-2.974,-2.9806,-2.982,-2.9847,-2.9913,-2.9913,-2.9913,-2.9913,-2.9913,-2.9913,-2.9913,-2.9913,-2.9913,-0.8878,-0.9142,-0.9413,-0.9687,-0.9854,-0.9598,-0.9039,-0.8915,-0.8917,-0.8954,-0.8876,-0.8871,-0.8852,-0.9856,-1.0696,-1.1089,-1.1354,-1.1868,-1.2691,-1.3796,-1.475,-1.5757,-1.6641,-1.8018,-1.9674,-2.1248,-2.2238,-2.28,-2.3158,-2.279,-2.1859,-2.2054,-2.2054,-2.2034,-2.3158,-2.2606,-2.0575,-2.1859,-2.278,-2.3342,-2.4978,-2.6265,-2.6833,-2.792,-2.8462,-2.8822,-2.9362,-2.9554,-2.9541,-2.9734,-2.9913,-2.9913,-2.9913,-2.9913,-2.9913,-2.9913,-2.9913,-2.9913,-2.9913,-2.9913,-2.9913,-2.9913,-2.9913,-2.9913,-2.9913,-2.9913,-2.9913,-2.9913,-2.9913,-2.9913,-2.9913,-2.9913,-2.9913,-2.9913,-2.9913,-2.9913,-2.9913,-2.9913,-2.9913,-2.9913,-2.9913,-2.9913,-2.9913,-2.9913,-2.9913,-2.9913,-2.9913,-2.9913,-2.9913,-2.9913,-2.9913,-2.9913,-2.9913,-2.9913,-2.9913,-2.9913,-2.9913,-2.9913,-2.9913,-2.9913,-2.9913,-2.9913,-2.9913,-2.9913,-2.9913,-2.9913,-2.9913,-2.9913,-2.9913,-2.9913,-2.9913,-2.9913,-0.8878,-0.8928,-0.9208,-0.9696,-0.9773,-0.9683,-0.9059,-0.8856,-0.889,-0.889,-0.8891,-0.8961,-0.9255,-1.0696,-1.1749,-1.1711,-1.1992,-1.2557,-1.3684,-1.4732,-1.5843,-1.6821,-1.8275,-1.9665,-2.1306,-2.3352,-2.4452,-2.4635,-2.499,-2.4796,-2.3892,-2.3892,-2.4075,-2.4613,-2.5366,-2.5183,-2.3536,-2.4247,-2.4796,-2.5343,-2.6628,-2.7727,-2.8655,-2.9002,-2.9554,-2.9913,-2.9913,0.0,-2.9913,-2.9913,-2.9913,-2.9913,-2.9913,-2.9913,-2.9913,-2.9913,-2.9913,-2.9913,-2.9913,-2.9913,-2.9913,-2.9913,-2.9913,-2.9913,-2.9913,-2.9913,-2.9913,-2.9913,-2.9913,-2.9913,-2.9913,-2.9913,-2.9913,-2.9913,-2.9913,-2.9913,-2.9913,-2.9913,-2.9913,-2.9913,-2.9913,-2.9913,-2.9913,-2.9913,-2.9913,-2.9913,-2.9913,-2.9913,-2.9913,-2.9913,-2.9913,-2.9913,-2.9913,-2.9913,-2.9913,-2.9913,-2.9913,-2.9913,-2.9913,-2.9913,-2.9913,-2.9913,-2.9913,-2.9913,-2.9913,-2.9913,-2.9913,-2.9913,-2.9913,-2.9913,-2.9913,-2.9913,-0.8878,-0.9238,-0.9703,-0.9731,-0.9806,-0.96,-0.8991,-0.8955,-0.8954,-0.8954,-0.8949,-0.9387,-1.0942,-1.1788,-1.2281,-1.1927,-1.2692,-1.3497,-1.3931,-1.5511,-1.6983,-1.7927,-1.9742,-2.1471,-2.3536,-2.499,-2.6265,-2.7003,-2.7184,-2.7003,-2.6458,-2.6458,-2.6446,-2.6628,-2.7003,-2.7377,-2.7558,-2.7365,-2.7184,-2.7184,-2.8269,-2.9002,-2.9182,-2.9554,-2.9913,-2.9913,0.0,-2.9913,-2.9913,-2.9913,-2.9913,-2.9913,-2.9913,-2.9913,-2.9913,-2.9913,-2.9913,-2.9913,-2.9913,-2.9913,-2.9913,-2.9913,-2.9913,-2.9913,-2.9913,-2.9913,-2.9913,-2.9913,-2.9913,-2.9913,-2.9913,-2.9913,-2.9913,-2.9913,-2.9913,-2.9913,-2.9913,-2.9913,-2.9913,-2.9913,-2.9913,-2.9913,-2.9913,-2.9913,-2.9913,-2.9913,-2.9913,-2.9913,-2.9913,-2.9913,-2.9913,-2.9913,-2.9913,-2.9913,-2.9913,-2.9913,-2.9913,-2.9913,-2.9913,-2.9913,-2.9913,-2.9913,-2.9913,-2.9913,-2.9913,-2.9913,-2.9913,-2.9913,-2.9913,-2.9913,-2.9913,-2.9913,-0.8863,-0.9319,-0.9891,-1.0186,-1.0026,-0.9678,-0.9483,-0.9418,-0.9613,-1.0236,-1.0306,-1.0545,-1.1298,-1.1881,-1.2175,-1.231,-1.3589,-1.4697,-1.5217,-1.699,-1.8731,-1.9572,-2.15,-2.3352,-2.4829,-2.6458,-2.7739,-2.8101,-2.8281,-2.8281,-2.792,-2.7739,-2.792,-2.8088,-2.8462,-2.8822,-2.9195,-2.9015,-2.8822,-2.8462,-2.9182,-2.9554,-2.9554,-2.9734,-2.9913,-2.9913,0.0,-2.9913,-2.9913,-2.9913,-2.9913,-2.9913,-2.9913,-2.9913,-2.9913,-2.9913,-2.9913,-2.9913,-2.9913,-2.9913,-2.9913,-2.9913,-2.9913,-2.9913,-2.9913,-2.9913,-2.9913,-2.9913,-2.9913,-2.9913,-2.9913,-2.9913,-2.9913,-2.9913,-2.9913,-2.9913,-2.9913,-2.9913,-2.9913,-2.9913,-2.9913,-2.9913,-2.9913,-2.9913,-2.9913,-2.9913,-2.9913,-2.9913,-2.9913,-2.9913,-2.9913,-2.9913,-2.9913,-2.9913,-2.9913,-2.9913,-2.9913,-2.9913,-2.9913,-2.9913,-2.9913,-2.9913,-2.9913,-2.9913,-2.9913,-2.9913,-2.9913,-2.9913,-2.9913,-2.9913,-2.9913,-2.9913,-0.8909,-0.9345,-0.9926,-1.0362,-1.0204,-0.9982,-1.0015,-1.0181,-1.0742,0.0,-1.1705,-1.1711,-1.1461,-1.179,-1.2261,-1.2712,-1.4246,-1.568,-1.6294,-1.8435,-2.0064,-2.0982,-2.3034,-2.4818,-2.5742,-2.7558,-2.8655,-2.8835,-2.9195,-2.9195,-2.8835,-2.8835,-2.9015,-2.9362,-2.9362,-2.9541,-2.9913,-2.9913,-2.9734,-2.9362,-2.9734,-2.9913,-2.9913,-2.9913,-2.9913,-2.9913,-2.9913,-2.9913,-2.9913,-2.9913,-2.9913,-2.9913,-2.9913,-2.9913,-2.9913,-2.9913,-2.9913,-2.9913,-2.9913,-2.9913,-2.9913,-2.9913,-2.9913,-2.9913,-2.9913,-2.9913,-2.9913,-2.9913,-2.9913,-2.9913,-2.9913,-2.9913,-2.9913,-2.9913,-2.9913,-2.9913,-2.9913,-2.9913,-2.9913,-2.9913,-2.9913,-2.9913,-2.9913,-2.9913,-2.9913,-2.9913,-2.9913,-2.9913,-2.9913,-2.9913,-2.9913,-2.9913,-2.9913,-2.9913,-2.9913,-2.9913,-2.9913,-2.9913,-2.9913,-2.9913,-2.9913,-2.9913,-2.9913,-2.9913,-2.9913,-2.9913,-2.9913,-2.9913,-2.9913,-2.9913,-3.0093,-3.0133,-0.8931,-0.9381,-0.9806,-0.9848,-1.0287,-1.0693,-1.0697,-1.1519,0.0,-1.2388,0.0,-1.21,-1.2116,-1.2456,-1.2745,-1.3085,-1.4673,-1.6136,-1.6506,-1.8813,-2.0762,-2.1546,-2.3946,-2.5924,-2.6821,-2.8269,-2.9362,-2.9734,-2.9913,-2.9913,-2.9734,-2.9734,-2.9734,-2.9913,-2.9913,-2.9913,-2.9913,-2.9913,-2.9913,-2.9913,-2.9913,-2.9913,-2.9913,-2.9913,-2.9913,-2.9913,-2.9913,-2.9913,-2.9913,-2.9913,-2.9913,-2.9913,-2.9913,-2.9913,-2.9913,-2.9913,-2.9913,-2.9913,-2.9913,-2.9913,-2.9913,-2.9913,-2.9913,-2.9913,-2.9913,-2.9913,-2.9913,-2.9913,-2.9913,-2.9913,-2.9913,-2.9913,-2.9913,-2.9913,-2.9913,-2.9913,-2.9913,-2.9913,-2.9913,-2.9913,-2.9913,-2.9913,-2.9913,-2.9913,-2.9913,-2.9913,-2.9913,-2.9913,-2.9913,-2.9913,-2.9913,-2.9913,-2.9913,-2.9913,-2.9913,-2.9913,-2.9913,-2.9913,-2.9913,-2.9913,-2.9913,-2.9913,-2.9913,-2.9913,-2.9913,-2.9913,-2.9913,-2.9913,-2.9913,-2.9913,-3.0272,-3.0766,-0.8904,-0.9091,-0.9341,-0.9686,-1.0304,0.0,0.0,-1.1661,-1.2474,-1.2492,-1.2345,0.0,-1.231,-1.2574,-1.2861,-1.3582,-1.5287,-1.6771,-1.8059,-2.0412,-2.227,-2.3003,-2.5309,-2.7003,-2.7365,-2.8822,-2.9734,-2.9913,-2.9913,-2.9913,-2.9913,-2.9913,-2.9913,-2.9913,-2.9913,-2.9913,-2.9913,-2.9913,-2.9913,-2.9913,-2.9913,-2.9913,-2.9913,-2.9913,-2.9913,-2.9913,-2.9913,-2.9913,-2.9913,-2.9913,-2.9913,-2.9913,-2.9913,-2.9913,-2.9913,-2.9913,-2.9913,-2.9913,-2.9913,-2.9913,-2.9913,-2.9913,-2.9913,-2.9913,-2.9913,-2.9913,-2.9913,-2.9913,-2.9913,-2.9913,-2.9913,-2.9913,-2.9913,-2.9913,-2.9913,-2.9913,-2.9913,-2.9913,-2.9913,-2.9913,-2.9913,-2.9913,-2.9913,-2.9913,-2.9913,-2.9913,-2.9913,-2.9913,-2.9913,-2.9913,-2.9913,-2.9913,-2.9913,-2.9913,-2.9913,-2.9913,-2.9913,-2.9913,-2.9913,-2.9913,-2.9913,-2.9913,-2.9913,-2.9913,-2.9913,-2.9913,-2.9913,-2.9913,-3.0187,-3.0723,-3.1083,-3.1777,-0.8994,-0.9013,-0.9341,-0.9751,0.0,0.0,-1.0926,-1.1825,-1.2554,-1.2618,-1.2599,-1.2532,-1.2481,-1.2745,-1.3219,-1.4081,-1.5747,-1.7569,-1.9151,-2.1412,-2.32,-2.4215,-2.6276,-2.7739,-2.7739,-2.9002,-2.9913,-2.9913,-2.9913,-2.9913,-2.9913,-2.9913,-2.9913,-2.9913,-2.9913,-2.9913,-2.9913,-2.9913,-2.9913,-2.9913,-2.9913,-2.9913,-2.9913,-2.9913,-2.9913,-2.9913,-2.9913,-2.9913,-2.9913,-2.9913,-2.9913,-2.9913,-2.9913,-2.9913,-2.9913,-2.9913,-2.9913,-2.9913,-2.9913,-2.9913,-2.9913,-2.9913,-2.9913,-2.9913,-2.9913,-2.9913,-2.9913,-2.9913,-2.9913,-2.9913,-2.9913,-2.9913,-2.9913,-2.9913,-2.9913,-2.9913,-2.9913,-2.9913,-2.9913,-2.9913,-2.9913,-2.9913,-2.9913,-2.9913,-2.9913,-2.9913,-2.9913,-2.9913,-2.9913,-2.9913,-2.9913,-2.9913,-2.9913,-2.9913,-2.9913,-3.0007,-3.006,-3.006,-3.014,-3.0114,-2.9927,-2.9913,-2.9913,-2.9913,-2.9913,-2.9967,-3.0227,-3.0227,-3.0736,-3.175,-3.2294,-3.3358,-0.9026,-0.9372,-0.984,-0.9784,0.0,0.0,-1.1484,-1.2004,-1.2613,-1.2923,-1.3075,-1.2963,-1.2963,-1.3207,-1.3617,-1.4266,-1.6089,-1.8235,-1.9697,-2.1949,-2.3748,-2.4763,-2.6458,-2.7739,-2.7739,-2.9002,-2.9913,-2.9913,-2.9913,-2.9913,-2.9913,-2.9913,-2.9913,-2.9913,-2.9913,-2.9913,-2.9913,-2.9913,-2.9913,-2.9913,-2.9913,-2.9913,-2.9913,-2.9913,-2.9913,-2.9913,-2.9913,-2.9913,-2.9913,-2.9913,-2.9913,-2.9913,-2.9913,-2.9913,-2.9913,-2.9913,-2.9913,-2.9913,-2.9913,-2.9913,-2.9913,-2.9913,-2.9913,-2.9913,-2.9913,-2.9913,-2.9913,-2.9913,-2.9913,-2.9913,-2.9913,-2.9913,-2.9913,-2.9913,-2.9913,-2.9913,-2.9913,-2.9913,-2.9913,-2.9913,-2.9913,-2.9913,-2.9913,-2.9913,-2.9913,-2.9913,-2.9913,-2.9913,-2.9913,-2.9913,-2.9927,-2.9927,-2.9927,-2.9927,-2.9927,-3.0194,-3.0368,-3.0368,-3.0635,-3.0528,-2.9953,-2.9927,-2.9927,-2.9927,-2.9927,-3.024,-3.1081,-3.1081,-3.1777,-3.2985,-3.4078,-3.5152,-0.9023,-0.9353,-0.9869,-1.0317,-1.0871,0.0,0.0,-1.2227,0.0,0.0,-1.3137,-1.3112,-1.3112,-1.3686,-1.4273,-1.5278,-1.7195,-1.9232,-2.1273,-2.3445,-2.5287,-2.651,-2.7795,-2.8822,-2.8822,-2.9375,-2.9913,-2.9913,-2.9913,-2.9913,-2.9913,-2.9913,-2.9913,-2.9913,-2.9913,-2.9913,-2.9913,-2.9913,-2.9913,-2.9913,-2.9913,-2.9913,-2.9913,-2.9913,-2.9913,-2.9913,-2.9913,-2.9913,-2.9913,-2.9913,-2.9913,-2.9913,-2.9913,-2.9913,-2.9913,-2.9913,-2.9913,-2.9913,-2.9913,-2.9913,-2.9913,-2.9913,-2.9913,-2.9913,-2.9913,-2.9913,-2.9913,-2.9913,-2.9913,-2.9913,-2.9913,-2.9913,-2.9913,-2.9913,-2.9913,-2.9913,-2.9913,-2.9913,-2.9913,-2.9913,-2.9913,-2.9913,-2.9913,-2.9913,-2.9913,-2.9913,-2.9913,-2.9993,-3.0207,-3.0221,-3.0301,-3.0515,-3.0528,-3.0528,-3.0528,-3.0608,-3.0662,-3.0662,-3.0742,-3.0715,-3.0541,-3.0528,-3.0528,-3.0528,-3.0894,-3.13,-3.193,-3.266,-3.3896,-3.5486,-3.638,-3.8022,-0.9366,-0.9529,-0.9982,-1.0561,-1.1145,-1.1626,-1.1884,-1.2602,-1.3205,-1.3605,-1.3781,-1.3858,-1.3929,-1.4645,-1.5361,-1.6486,-1.837,-2.0337,-2.2595,-2.4543,-2.6206,-2.7471,-2.8373,-2.9065,-2.9169,-2.9554,-2.9913,-2.9913,-2.9913,-2.9913,-2.9913,-2.9913,-2.9913,-2.9913,-2.9913,-2.9913,-2.9913,-2.9913,-2.9913,-2.9913,-2.9913,-2.9913,-2.9913,-2.9913,-2.9913,-2.9913,-2.9913,-2.9913,-2.9913,-2.9913,-2.9913,-2.9913,-2.9913,-2.9913,-2.9913,-2.9913,-2.9913,-2.9913,-2.9913,-2.9913,-2.9913,-2.9913,-2.9913,-2.9913,-2.9913,-2.9913,-2.9913,-2.9913,-2.9913,-2.9913,-2.9913,-2.9913,-2.9913,-2.9913,-2.9913,-2.9913,-2.9913,-2.9913,-2.9913,-2.9913,-2.9913,-2.9913,-2.9913,-2.9913,-2.9913,-2.9913,-3.002,-3.0154,-3.0341,-3.0461,-3.0595,-3.0768,-3.0795,-3.0795,-3.0795,-3.0902,-3.0969,-3.0969,-3.1076,-3.1329,-3.1516,-3.1101,-3.098,-3.115,-3.1519,-3.2309,-3.3355,-3.4438,-3.5866,-3.7837,-3.8745,-4.0327,-0.9741,-0.9804,-1.0012,-1.0584,-1.1321,-1.2004,-1.2697,-1.331,-1.3893,-1.4536,-1.4638,-1.4865,-1.5383,-1.5894,-1.6695,-1.7716,-1.9587,-2.1516,-2.3631,-2.5102,-2.6536,-2.7915,-2.8536,-2.9007,-2.9117,-2.9694,-2.9887,-2.9913,-2.9913,-2.9913,-2.9913,-2.9913,-2.9913,-2.9913,-2.9913,-2.9913,-2.9913,-2.9913,-2.9913,-2.9913,-2.9913,-2.9913,-2.9913,-2.9913,-2.9913,-2.9913,-2.9913,-2.9913,-2.9913,-2.9913,-2.9913,-2.9913,-2.9913,-2.9913,-2.9913,-2.9913,-2.9913,-2.9913,-2.9913,-2.9913,-2.9913,-2.9913,-2.9913,-2.9913,-2.9913,-2.9913,-2.9913,-2.9913,-2.9913,-2.9913,-2.9913,-2.9913,-2.9913,-2.9913,-2.9913,-2.9913,-2.9913,-2.9913,-2.9913,-2.9913,-2.9913,-2.9913,-2.9913,-2.9913,-2.9927,-2.9953,-3.0181,-3.0381,-3.0434,-3.0675,-3.0849,-3.0875,-3.0875,-3.0875,-3.0875,-3.1116,-3.1263,-3.1263,-3.1517,-3.2043,-3.2408,-3.1529,-3.1232,-3.1785,-3.2337,-3.3384,-3.5164,-3.6234,-3.7837,-4.0004,-4.1093,-4.2353,-0.962,-1.0127,-1.0685,-1.1281,-1.2902,-1.446,-1.5066,-1.5289,-1.5333,-1.4862,-1.5555,-1.639,-1.6403,-1.7264,-1.8261,-1.9305,-2.1241,-2.3181,-2.4796,-2.6376,-2.7784,-2.8432,-2.8818,-2.907,-2.9362,-2.9579,-2.9673,-2.99,-2.9913,-2.9913,-2.9913,-2.9913,-2.9913,-2.9913,-2.9913,-2.9913,-2.9913,-2.9913,-2.9913,-2.9913,-2.9913,-2.9913,-2.9913,-2.9913,-2.9913,-2.9913,-2.9913,-2.9913,-2.9913,-2.9913,-2.9913,-2.9913,-2.9913,-2.9913,-2.9913,-2.9913,-2.9913,-2.9913,-2.9913,-2.9913,-2.9913,-2.9913,-2.9913,-2.9913,-2.9913,-2.9913,-2.9913,-2.9913,-2.9913,-2.9913,-2.9913,-2.9913,-2.9913,-2.9913,-2.9913,-2.9913,-2.9913,-2.9913,-2.9913,-2.9913,-2.9913,-2.9913,-2.9913,-2.9913,-2.9993,-3.0234,-3.0314,-3.0528,-3.0982,-3.1089,-3.1223,-3.1463,-3.1476,-3.1476,-3.1476,-3.1543,-3.157,-3.157,-3.2002,-3.2408,-3.2974,-3.2487,-3.2404,-3.3341,-3.4275,-3.5419,-3.696,-3.8778,-4.0446,-4.2192,-4.3087,-4.4156,-0.96,-1.0202,-1.0898,-1.1847,-1.3476,-1.5228,-1.5814,-1.6046,-1.6123,-1.6576,-1.7475,-1.8354,-1.8361,-1.9059,-1.9873,-2.1098,-2.2826,-2.4543,-2.5921,-2.7081,-2.7932,-2.8591,-2.8738,-2.8951,-2.9245,-2.9272,-2.9339,-2.9486,-2.9499,-2.9499,-2.9499,-2.9499,-2.9499,-2.9499,-2.9633,-2.9713,-2.9713,-2.9847,-2.9913,-2.9913,-2.9913,-2.9913,-2.9913,-2.9913,-2.9913,-2.9913,-2.9913,-2.9913,-2.9913,-2.9913,-2.9913,-2.9913,-2.9913,-2.9913,-2.9913,-2.9913,-2.9913,-2.9913,-2.9913,-2.9913,-2.9913,-2.9913,-2.9913,-2.9913,-2.9913,-2.9913,-2.9913,-2.9913,-2.9913,-2.9913,-2.9913,-2.9913,-2.9913,-2.9913,-2.9913,-2.9913,-2.9913,-2.9913,-2.9913,-2.9913,-2.9913,-2.9913,-2.9913,-3.0034,-3.0234,-3.0528,-3.0688,-3.0889,-3.1183,-3.1356,-3.1503,-3.165,-3.1664,-3.1664,-3.1664,-3.1853,-3.2043,-3.2043,-3.2786,-3.354,-3.4291,-3.4464,-3.4838,-3.5398,-3.6313,-3.7607,-3.9441,-4.0894,-4.2353,-4.3819,-4.4529,-4.5236,-0.9632,-1.0263,-1.1131,-1.224,-1.374,-1.5128,-1.5814,-1.6071,-1.65,-1.8256,-1.949,-2.0229,-2.0285,-2.0776,-2.1566,-2.2837,-2.4041,-2.5409,-2.6783,-2.7304,-2.7904,-2.8497,-2.8524,-2.8644,-2.8938,-2.8965,-2.8991,-2.9032,-2.9045,-2.9045,-2.9045,-2.9045,-2.9045,-2.9045,-2.9285,-2.9432,-2.9486,-2.9726,-2.986,-2.9913,-2.9913,-2.9913,-2.9913,-2.9913,-2.9913,-2.9913,-2.9913,-2.9913,-2.9913,-2.9913,-2.9913,-2.9913,-2.9913,-2.9913,-2.9913,-2.9913,-2.9913,-2.9913,-2.9913,-2.9913,-2.9913,-2.9913,-2.9913,-2.9913,-2.9913,-2.9913,-2.9913,-2.9913,-2.9913,-2.9913,-2.9913,-2.9913,-2.9913,-2.9913,-2.9913,-2.9913,-2.9913,-2.9913,-2.9913,-2.9913,-2.9953,-2.9993,-2.9993,-3.0234,-3.0528,-3.0822,-3.1076,-3.1249,-3.1289,-3.1517,-3.1664,-3.1664,-3.1664,-3.1664,-3.1853,-3.2232,-3.2597,-3.2786,-3.3916,-3.4838,-3.5972,-3.7069,-3.7791,-3.7975,-3.851,-3.9805,-4.1652,-4.2551,-4.3819,-4.5078,-4.5431,-4.5958,-0.9592,-1.0644,-1.165,-1.2315,-1.374,-1.5163,-1.5814,-1.5996,-1.6487,-1.8374,-1.996,-2.1296,-2.2268,-2.2471,-2.2834,-2.4075,-2.5275,-2.6273,-2.7304,-2.7812,-2.8163,-2.8203,-2.8203,-2.8323,-2.8631,-2.8671,-2.8764,-2.9018,-2.9045,-2.9045,-2.9045,-2.9045,-2.9045,-2.9045,-2.9072,-2.9219,-2.9486,-2.9526,-2.9673,-2.9913,-2.9913,-2.9913,-2.9913,-2.9913,-2.9913,-2.9913,-2.9913,-2.9913,-2.9913,-2.9913,-2.9913,-2.9913,-2.9913,-2.9913,-2.9913,-2.9913,-2.9913,-2.9913,-2.9913,-2.9913,-2.9913,-2.9913,-2.9913,-2.9913,-2.9913,-2.9913,-2.9913,-2.9913,-2.9913,-2.9913,-2.9913,-2.9913,-2.9913,-2.9913,-2.9913,-2.9913,-2.9913,-2.9913,-2.9913,-2.9913,-3.0127,-3.0301,-3.0301,-3.0541,-3.0835,-3.1129,-3.1196,-3.1316,-3.1583,-3.1637,-3.1664,-3.1664,-3.1664,-3.1853,-3.2219,-3.28,-3.354,-3.4291,-3.5771,-3.6869,-3.7975,-3.9805,-4.1093,-4.1994,-4.1273,-4.1634,-4.3069,-4.4174,-4.4902,-4.5607,-4.5958,-4.6308,-0.9573,-1.0452,-1.1269,-1.1775,-1.2799,-1.3641,-1.3931,-1.4343,-1.5408,-1.8207,-1.9375,-1.9921,-2.0406,-2.0833,-2.1979,-2.4538,-2.5942,-2.698,-2.7786,-2.815,-2.8136,-2.8136,-2.8136,-2.819,-2.8337,-2.835,-2.8404,-2.8524,-2.8537,-2.8537,-2.8537,-2.8537,-2.8537,-2.8537,-2.8711,-2.8858,-2.8991,-2.9325,-2.9633,-2.9913,-2.9913,-2.9913,-2.9913,-2.9913,-2.9913,-2.9913,-2.9913,-2.9913,-2.9913,-2.9913,-2.9913,-2.9913,-2.9913,-2.9913,-2.9913,-2.9913,-2.9913,-2.9913,-2.9913,-2.9913,-2.9913,-2.9913,-2.9913,-2.9913,-2.9913,-2.9913,-2.9913,-2.9913,-2.9913,-2.9913,-2.9913,-2.9913,-2.9913,-2.9913,-2.9913,-2.9913,-2.9913,-2.9913,-2.9967,-3.0127,-3.0274,-3.0461,-3.0795,-3.0955,-3.1142,-3.1423,-3.1476,-3.1517,-3.165,-3.1664,-3.1664,-3.1664,-3.1853,-3.2232,-3.28,-3.3728,-3.4853,-3.5957,-3.7607,-3.8893,-3.9987,-4.1634,-4.2909,-4.3997,-4.3266,-4.3444,-4.4687,-4.5059,-4.5607,-4.5958,-4.6133,-4.6308,-0.9255,-0.9976,-1.0584,-1.1469,-1.1921,-1.2291,-1.24,-1.2828,-1.4244,-1.7925,-1.8684,-1.8789,-1.9328,-1.9444,-2.0796,-2.4771,-2.6351,-2.7263,-2.8003,-2.803,-2.8056,-2.8136,-2.8136,-2.8136,-2.8136,-2.8136,-2.8136,-2.8136,-2.8136,-2.8136,-2.8136,-2.8136,-2.8136,-2.8136,-2.8364,-2.8524,-2.8604,-2.9192,-2.9593,-2.9806,-2.9887,-2.9913,-2.9913,-2.9913,-2.9913,-2.9913,-2.9913,-2.9913,-2.9913,-2.9913,-2.9913,-2.9913,-2.9913,-2.9913,-2.9913,-2.9913,-2.9913,-2.9913,-2.9913,-2.9913,-2.9913,-2.9913,-2.9913,-2.9913,-2.9913,-2.9913,-2.9913,-2.9913,-2.9913,-2.9913,-2.9913,-2.9913,-2.9913,-2.9913,-2.9913,-2.9913,-2.9913,-2.9913,-3.0007,-3.0301,-3.0421,-3.0635,-3.1142,-3.1289,-3.141,-3.1637,-3.1664,-3.1664,-3.1664,-3.1664,-3.1664,-3.1664,-3.2043,-3.2786,-3.354,-3.4853,-3.6328,-3.7791,-3.9441,-4.0912,-4.2012,-4.3266,-4.4333,-4.5078,-4.4883,-4.5059,-4.5783,-4.5783,-4.5958,-4.6308,-4.6308,-4.6308,-0.88,-0.9348,-1.0154,-1.1277,-1.1608,-1.1775,-1.2361,-1.2539,-1.3715,-1.7888,-1.8779,-1.9121,-2.0916,-1.9781,-2.021,-2.4495,-2.6071,-2.6961,-2.7696,-2.7722,-2.7829,-2.811,-2.8136,-2.8136,-2.8136,-2.8136,-2.8136,-2.8136,-2.8136,-2.8136,-2.8136,-2.8136,-2.8136,-2.8136,-2.8163,-2.831,-2.8604,-2.9192,-2.9486,-2.9513,-2.978,-2.9913,-2.9913,-2.9913,-2.9913,-2.9913,-2.9913,-2.9913,-2.9913,-2.9913,-2.9913,-2.9913,-2.9913,-2.9913,-2.9913,-2.9913,-2.9913,-2.9913,-2.9913,-2.9913,-2.9913,-2.9913,-2.9913,-2.9913,-2.9913,-2.9913,-2.9913,-2.9913,-2.9913,-2.9913,-2.9913,-2.9913,-2.9913,-2.9913,-2.9913,-2.9913,-2.9913,-2.9913,-3.0007,-3.0301,-3.0581,-3.0862,-3.1169,-3.1463,-3.165,-3.1664,-3.1664,-3.1664,-3.1664,-3.1664,-3.1664,-3.1664,-3.2043,-3.2974,-3.4478,-3.5957,-3.7791,-4.0152,-4.1634,-4.3087,-4.3978,-4.5059,-4.5431,-4.5607,-4.5958,-4.6133,-4.6308,-4.6308,-4.6308,-4.6308,-4.6308,-4.6308,-0.8742,-0.9388,-0.9958,-1.0805,-1.1002,-1.1246,-1.1803,-1.2155,-1.3274,-1.573,-1.6642,-1.7861,-2.0835,-2.0727,-2.1351,-2.4571,-2.5916,-2.6796,-2.7388,-2.7415,-2.7535,-2.7816,-2.7856,-2.7936,-2.8123,-2.8136,-2.8136,-2.8136,-2.8136,-2.8136,-2.8136,-2.8136,-2.8136,-2.8136,-2.8136,-2.8297,-2.8604,-2.8818,-2.9018,-2.9205,-2.9499,-2.9633,-2.9646,-2.9833,-2.9913,-2.9913,-2.9913,-2.9913,-2.9913,-2.9913,-2.9913,-2.9913,-2.9913,-2.9913,-2.9913,-2.9913,-2.9913,-2.9913,-2.9913,-2.9913,-2.9913,-2.9913,-2.9913,-2.9913,-2.9913,-2.9913,-2.9913,-2.9913,-2.9913,-2.9913,-2.9913,-2.9913,-2.9913,-2.9913,-2.9913,-2.9913,-2.9913,-2.9913,-3.006,-3.0541,-3.0715,-3.0942,-3.1423,-3.1597,-3.1664,-3.1664,-3.1664,-3.1664,-3.1664,-3.1664,-3.1853,-3.2043,-3.2786,-3.4089,-3.5957,-3.7807,-3.9623,-4.1814,-4.3266,-4.4352,-4.5059,-4.5763,-4.6133,-4.6133,-4.6133,-4.6308,-4.6308,-4.6308,-4.6308,-4.6308,-4.6308,-4.6308,-0.8535,-0.8997,-0.9632,-1.028,-1.0609,-1.0856,-1.1495,-1.1935,-1.2792,-1.4637,-1.5294,-1.6573,-1.9809,-2.0953,-2.2155,-2.5001,-2.5983,-2.6505,-2.6905,-2.7108,-2.7228,-2.7522,-2.7549,-2.7669,-2.7963,-2.7989,-2.803,-2.8136,-2.8136,-2.8136,-2.8136,-2.8136,-2.8136,-2.8136,-2.8136,-2.8243,-2.8444,-2.8551,-2.8711,-2.8898,-2.9192,-2.9392,-2.9486,-2.9686,-2.982,-2.9913,-2.9913,-2.9913,-2.9913,-2.9913,-2.9913,-2.9913,-2.9913,-2.9913,-2.9913,-2.9913,-2.9913,-2.9913,-2.9913,-2.9913,-2.9913,-2.9913,-2.9913,-2.9913,-2.9913,-2.9913,-2.9913,-2.9913,-2.9913,-2.9913,-2.9913,-2.9913,-2.9913,-2.9913,-2.9913,-2.9913,-2.9913,-2.9993,-3.0207,-3.0702,-3.0875,-3.1089,-3.1583,-3.1664,-3.1664,-3.1664,-3.1664,-3.1664,-3.1664,-3.1853,-3.2043,-3.2597,-3.3728,-3.5212,-3.7238,-3.9076,-4.1093,-4.3087,-4.4352,-4.5431,-4.5783,-4.6133,-4.6308,-4.6308,-4.6308,-4.6308,-4.6308,-4.6308,-4.6308,-4.6308,-4.6308,-4.6308,0.0,0.0,0.0,-0.9613,-1.0273,-1.083,-1.1418,-1.1552,-1.2251,-1.4399,-1.4867,-1.5761,-1.8203,-1.998,-2.2282,-2.5736,-2.6254,-2.6441,-2.6426,-2.6626,-2.6921,-2.7215,-2.7255,-2.7362,-2.7655,-2.7682,-2.7816,-2.811,-2.8123,-2.8136,-2.8136,-2.8136,-2.8136,-2.8136,-2.8136,-2.8136,-2.8136,-2.8444,-2.8591,-2.8591,-2.8885,-2.9179,-2.9459,-2.9472,-2.9633,-2.99,-2.9913,-2.9913,-2.9913,-2.9913,-2.9913,-2.9913,-2.9913,-2.9913,-2.9913,-2.9913,-2.9913,-2.9913,-2.9913,-2.9913,-2.9913,-2.9913,-2.9913,-2.9913,-2.9913,-2.9913,-2.9913,-2.9913,-2.9913,-2.9913,-2.9913,-2.9913,-2.9913,-2.9913,-2.9913,-2.9913,-2.9913,-3.0154,-3.0461,-3.0742,-3.1022,-3.1316,-3.1623,-3.1664,-3.1664,-3.1664,-3.1664,-3.1664,-3.1664,-3.2232,-3.2597,-3.3177,-3.4666,-3.6328,-3.8143,-4.0169,-4.2192,-4.4156,-4.5059,-4.5783,-4.6308,-4.6308,-4.6308,-4.6308,-4.6308,-4.6308,-4.6308,-4.6308,-4.6308,-4.6308,-4.6308,-4.6308,-0.8555,0.0,0.0,0.0,0.0,0.0,-1.0819,-1.088,-1.1314,-1.2386,-1.3435,-1.4629,-1.5735,-1.7309,-1.9361,-2.2199,-2.4819,-2.6401,-2.6387,-2.6387,-2.6653,-2.6907,-2.6947,-2.7068,-2.7362,-2.7388,-2.7509,-2.7802,-2.7816,-2.7909,-2.8136,-2.8136,-2.8136,-2.8136,-2.8136,-2.8136,-2.8136,-2.823,-2.827,-2.827,-2.8577,-2.8764,-2.8858,-2.9285,-2.9526,-2.9619,-2.982,-2.9913,-2.9913,-2.9913,-2.9913,-2.9913,-2.9913,-2.9913,-2.9913,-2.9913,-2.9913,-2.9913,-2.9913,-2.9913,-2.9913,-2.9913,-2.9913,-2.9913,-2.9913,-2.9913,-2.9913,-2.9913,-2.9913,-2.9913,-2.9913,-2.9913,-2.9913,-2.9913,-2.9913,-2.9913,-2.9913,-3.0314,-3.0702,-3.0782,-3.1022,-3.1316,-3.1623,-3.1664,-3.1853,-3.2232,-3.2232,-3.2421,-3.3163,-3.3351,-3.3916,-3.5226,-3.6328,-3.7991,-4.0351,-4.1994,-4.3444,-4.5059,-4.5763,-4.6133,-4.6308,-4.6308,-4.6308,-4.6308,-4.6308,-4.6308,-4.6308,-4.6308,-4.6308,-4.6308,-4.6308,-4.6308,-0.8852,-0.889,-0.8944,-0.8936,0.0,0.0,-1.0148,-1.0273,-1.0496,-1.1056,-1.2611,-1.4075,-1.4893,-1.6313,-1.7875,-1.9429,-2.1859,-2.4132,-2.5097,-2.57,-2.6003,-2.6307,-2.648,-2.676,-2.7054,-2.7081,-2.7201,-2.7495,-2.7522,-2.7642,-2.7936,-2.7963,-2.8016,-2.8136,-2.8136,-2.8136,-2.8136,-2.8136,-2.8136,-2.815,-2.8323,-2.8484,-2.8617,-2.8965,-2.9259,-2.9499,-2.9659,-2.9806,-2.9913,-2.9913,-2.9913,-2.9913,-2.9913,-2.9913,-2.9913,-2.9913,-2.9913,-2.9913,-2.9913,-2.9913,-2.9913,-2.9913,-2.9913,-2.9913,-2.9913,-2.9913,-2.9913,-2.9913,-2.9913,-2.9913,-2.9913,-2.9913,-2.9913,-2.9913,-2.9913,-2.9913,-2.9913,-3.0381,-3.0795,-3.0795,-3.1129,-3.1463,-3.1637,-3.1664,-3.1853,-3.2421,-3.2597,-3.3163,-3.4103,-3.4838,-3.5584,-3.6884,-3.8359,-3.9822,-4.1652,-4.3266,-4.4529,-4.5588,-4.5958,-4.6308,-4.6308,-4.6308,-4.6308,-4.6308,-4.6308,-4.6308,-4.6308,-4.6308,-4.6308,-4.6308,-4.6308,-4.6308,-0.9024,-0.9036,-0.9052,-0.8947,-0.8954,0.0,-0.9718,-0.9836,-0.9948,-1.0491,-1.2142,-1.3758,-1.4381,-1.5922,-1.7035,-1.7049,-1.8379,-2.0572,-2.3273,-2.4365,-2.5028,-2.5542,-2.6017,-2.6453,-2.6587,-2.6774,-2.6894,-2.7201,-2.7241,-2.7375,-2.7642,-2.7655,-2.7776,-2.8043,-2.8083,-2.8096,-2.8096,-2.8123,-2.8136,-2.8136,-2.8136,-2.8283,-2.8564,-2.8591,-2.8911,-2.9432,-2.9472,-2.9646,-2.9913,-2.9913,-2.9913,-2.9913,-2.9913,-2.9913,-2.9913,-2.9913,-2.9913,-2.9913,-2.9913,-2.9913,-2.9913,-2.9913,-2.9913,-2.9913,-2.9913,-2.9913,-2.9913,-2.9913,-2.9913,-2.9913,-2.9913,-2.9913,-2.9913,-2.9913,-2.9913,-2.9913,-2.9913,-3.0354,-3.0755,-3.0782,-3.1263,-3.1664,-3.1664,-3.1664,-3.1853,-3.2421,-3.2988,-3.3728,-3.4853,-3.6328,-3.7607,-3.871,-4.0368,-4.2012,-4.2909,-4.4174,-4.5255,-4.5607,-4.6133,-4.6308,-4.6308,-4.6308,-4.6308,-4.6308,-4.6308,-4.6308,-4.6308,-4.6308,-4.6308,-4.6308,-4.6308,-4.6308,-0.9564,-0.9599,-0.9627,-0.9655,-0.9662,0.0,-0.9813,-0.9794,-0.979,-0.9927,-1.0719,-1.1425,-1.1558,-1.32,-1.4617,-1.4617,-1.6195,-1.8571,-2.1854,-2.2817,-2.3729,-2.4748,-2.5257,-2.5675,-2.5964,-2.6308,-2.66,-2.6881,-2.7134,-2.7295,-2.7348,-2.7348,-2.7375,-2.7428,-2.7669,-2.7789,-2.7789,-2.803,-2.8136,-2.8136,-2.8136,-2.8177,-2.8243,-2.8497,-2.8791,-2.9138,-2.9379,-2.9646,-2.9913,-2.9913,-2.9913,-2.9913,-2.9913,-2.9913,-2.9913,-2.9913,-2.9913,-2.9913,-2.9913,-2.9913,-2.9913,-2.9913,-2.9913,-2.9913,-2.9913,-2.9913,-2.9913,-2.9913,-2.9913,-2.9913,-2.9913,-2.9913,-2.9913,-2.9913,-2.9913,-2.9913,-2.9913,-3.0194,-3.0515,-3.0742,-3.1263,-3.1664,-3.1664,-3.1664,-3.2043,-3.2974,-3.3728,-3.504,-3.6884,-3.8359,-3.9805,-4.1075,-4.2353,-4.3444,-4.4352,-4.5059,-4.5607,-4.6133,-4.6308,-4.6308,-4.6308,-4.6308,-4.6308,-4.6308,-4.6308,-4.6308,-4.6308,-4.6308,-4.6308,-4.6308,-4.6308,-4.6308,-0.9808,-0.9829,-0.9808,-0.9854,-0.9774,0.0,0.0,-0.9847,-0.9849,-0.9794,-1.0053,-1.0109,-0.9844,-1.0955,-1.2285,-1.3375,-1.4885,-1.6816,-1.937,-2.0894,-2.2259,-2.3495,-2.425,-2.47,-2.5309,-2.5478,-2.5856,-2.6159,-2.644,-2.668,-2.6814,-2.6961,-2.7108,-2.7268,-2.7402,-2.7549,-2.7696,-2.7843,-2.7989,-2.8136,-2.8136,-2.8136,-2.815,-2.831,-2.8537,-2.8845,-2.9138,-2.9432,-2.9713,-2.986,-2.9913,-2.9913,-2.9913,-2.9913,-2.9913,-2.9913,-2.9913,-2.9913,-2.9913,-2.9913,-2.9913,-2.9913,-2.9913,-2.9913,-2.9913,-2.9913,-2.9913,-2.9913,-2.9913,-2.9913,-2.9913,-2.9913,-2.9913,-2.9913,-2.9913,-2.9913,-2.9913,-3.0154,-3.0448,-3.0742,-3.1142,-3.149,-3.1637,-3.1664,-3.2043,-3.2988,-3.4103,-3.5413,-3.7623,-3.9458,-4.1093,-4.2533,-4.38,-4.4706,-4.5255,-4.5607,-4.6133,-4.6308,-4.6308,-4.6308,-4.6308,-4.6308,-4.6308,-4.6308,-4.6308,-4.6308,-4.6308,-4.6308,-4.6308,-4.6308,-4.6308,-4.6308,-0.9927,-0.9927,-0.9989,-0.9995,-0.9921,-0.9808,0.0,0.0,0.0,-0.9683,-0.9683,-0.952,-0.902,-0.928,-1.027,-1.2312,-1.3604,-1.4919,-1.656,-1.857,-2.0463,-2.2019,-2.2876,-2.3516,-2.434,-2.4596,-2.4967,-2.5424,-2.5758,-2.6052,-2.6293,-2.6587,-2.6854,-2.7094,-2.7148,-2.7295,-2.7522,-2.7642,-2.7816,-2.8056,-2.8123,-2.8136,-2.8136,-2.8136,-2.831,-2.8617,-2.8858,-2.9152,-2.9499,-2.974,-2.986,-2.9913,-2.9913,-2.9913,-2.9913,-2.9913,-2.9913,-2.9913,-2.9913,-2.9913,-2.9913,-2.9913,-2.9913,-2.9913,-2.9913,-2.9913,-2.9913,-2.9913,-2.9913,-2.9913,-2.9913,-2.9913,-2.9913,-2.9913,-2.9913,-2.9913,-2.9913,-3.01,-3.0381,-3.0728,-3.0982,-3.1249,-3.161,-3.1664,-3.2043,-3.2974,-3.4103,-3.56,-3.8007,-4.0186,-4.2192,-4.3444,-4.4883,-4.5783,-4.5783,-4.6133,-4.6308,-4.6308,-4.6308,-4.6308,-4.6308,-4.6308,-4.6308,-4.6308,-4.6308,-4.6308,-4.6308,-4.6308,-4.6308,-4.6308,-4.6308,-4.6348,-1.0629,-1.061,-1.0538,-1.0651,-1.0177,-0.9808,-0.9772,0.0,-0.9046,-0.9046,0.0,-0.8974,-0.8878,0.0,0.0,-1.0883,-1.2004,-1.3046,-1.4218,-1.5596,-1.7306,-1.9975,-2.1186,-2.2019,-2.2264,-2.3616,-2.4678,-2.513,-2.5638,-2.5972,-2.5999,-2.6279,-2.6453,-2.6493,-2.6734,-2.6894,-2.6921,-2.7442,-2.7722,-2.7749,-2.8016,-2.8136,-2.8136,-2.8136,-2.831,-2.8604,-2.8644,-2.8978,-2.9486,-2.9526,-2.9686,-2.9913,-2.9913,-2.9913,-2.9913,-2.9913,-2.9913,-2.9913,-2.9913,-2.9913,-2.9913,-2.9913,-2.9913,-2.9913,-2.9913,-2.9913,-2.9913,-2.9913,-2.9913,-2.9913,-2.9913,-2.9913,-2.9913,-2.9913,-2.9913,-2.9913,-2.9913,-2.994,-3.0127,-3.0688,-3.0822,-3.1022,-3.157,-3.1664,-3.1853,-3.2421,-3.4103,-3.5972,-3.7439,-4.0549,-4.2909,-4.3978,-4.5412,-4.6308,-4.6308,-4.6308,-4.6308,-4.6308,-4.6308,-4.6308,-4.6308,-4.6308,-4.6308,-4.6308,-4.6308,-4.6308,-4.6308,-4.6308,-4.6308,-4.6308,-4.6308,-4.6504,-1.0819,-1.0967,-1.1169,-1.0848,-1.0301,-0.9741,-0.9308,-0.9065,-0.8878,-0.8909,0.0,0.0,0.0,0.0,0.0,0.0,-1.118,-1.2036,-1.294,-1.4038,-1.5593,-1.8226,-1.9542,-2.059,-2.1703,-2.2795,-2.3445,-2.4048,-2.4609,-2.509,-2.5424,-2.5892,-2.6213,-2.6386,-2.6507,-2.6653,-2.6827,-2.7241,-2.7535,-2.7696,-2.8003,-2.8136,-2.8136,-2.8136,-2.8217,-2.835,-2.8524,-2.8751,-2.9005,-2.9339,-2.9553,-2.9686,-2.9847,-2.9913,-2.9913,-2.9913,-2.9913,-2.9913,-2.9913,-2.9913,-2.9913,-2.9913,-2.9913,-2.9913,-2.9913,-2.9913,-2.9913,-2.9913,-2.9913,-2.9913,-2.9913,-2.9913,-2.9913,-2.9913,-2.9913,-2.9913,-2.9913,-2.9913,-3.0087,-3.0675,-3.0795,-3.0982,-3.157,-3.1664,-3.1853,-3.2421,-3.3916,-3.56,-3.7439,-4.0351,-4.2712,-4.3978,-4.5412,-4.6308,-4.6308,-4.6308,-4.6308,-4.6308,-4.6308,-4.6308,-4.6308,-4.6308,-4.6308,-4.6308,-4.6308,-4.6308,-4.6308,-4.6308,-4.6308,-4.6308,-4.6308,-4.6523,-1.1034,-1.1324,-1.1511,-1.0871,-1.023,-0.9698,-0.9097,-0.8955,-0.9,-0.9171,-0.9634,0.0,0.0,0.0,-0.9863,-1.0017,0.0,-1.1152,-1.1807,-1.272,-1.4077,-1.6371,-1.7817,-1.9346,-2.1107,-2.1765,-2.2382,-2.3166,-2.3754,-2.4342,-2.493,-2.5518,-2.5972,-2.6266,-2.6346,-2.6493,-2.6707,-2.7001,-2.7295,-2.7589,-2.7883,-2.807,-2.8136,-2.8136,-2.8136,-2.8163,-2.8377,-2.8524,-2.8644,-2.9072,-2.9339,-2.9499,-2.9713,-2.9847,-2.9913,-2.9913,-2.9913,-2.9913,-2.9913,-2.9913,-2.9913,-2.9913,-2.9913,-2.9913,-2.9913,-2.9913,-2.9913,-2.9913,-2.9913,-2.9913,-2.9913,-2.9913,-2.9913,-2.9913,-2.9913,-2.9913,-2.9913,-2.9913,-3.0087,-3.0675,-3.0795,-3.0982,-3.157,-3.1664,-3.1853,-3.2232,-3.354,-3.5226,-3.6869,-3.9789,-4.2156,-4.38,-4.5236,-4.6133,-4.6308,-4.6308,-4.6308,-4.6308,-4.6308,-4.6308,-4.6308,-4.6308,-4.6308,-4.6308,-4.6308,-4.6308,-4.6308,-4.6308,-4.6367,-4.6465,-4.6348,-4.6582,0.0,0.0,0.0,-1.0856,0.0,-0.9627,-0.9092,-0.8853,-0.9059,-0.9689,-1.0208,-1.0558,-1.0308,-1.0067,-0.9779,-0.9795,-0.9933,0.0,0.0,-1.1354,-1.2427,-1.4152,-1.5942,-1.7771,-1.9943,-2.0674,-2.159,-2.2832,-2.3434,-2.4035,-2.4623,-2.5211,-2.5665,-2.5959,-2.6239,-2.6386,-2.64,-2.6694,-2.6987,-2.7281,-2.7575,-2.7869,-2.8136,-2.8136,-2.8136,-2.8136,-2.815,-2.8323,-2.8604,-2.8631,-2.8965,-2.9486,-2.9499,-2.9673,-2.9913,-2.9913,-2.9913,-2.9913,-2.9913,-2.9913,-2.9913,-2.9913,-2.9913,-2.9913,-2.9913,-2.9913,-2.9913,-2.9913,-2.9913,-2.9913,-2.9913,-2.9913,-2.9913,-2.9913,-2.9913,-2.9913,-2.9913,-2.9913,-3.0087,-3.0675,-3.0795,-3.0982,-3.157,-3.1664,-3.1677,-3.1664,-3.2974,-3.4464,-3.5942,-3.8693,-4.1256,-4.3248,-4.4706,-4.5783,-4.6308,-4.6308,-4.6308,-4.6308,-4.6308,-4.6308,-4.6308,-4.6308,-4.6308,-4.6308,-4.6308,-4.6308,-4.6308,-4.6308,-4.6504,-4.6894,-4.6484,-4.6758,0.0,0.0,-1.2001,-1.1509,0.0,0.0,0.0,-1.0433,-1.0631,-1.0688,-1.077,-1.0819,-1.0812,-1.0424,-1.0148,-0.9998,-0.9961,-0.9945,0.0,-1.0424,-1.1293,-1.2566,-1.4498,-1.6354,-1.8002,-1.8787,-1.9674,-2.0746,-2.1723,-2.2743,-2.3563,-2.4462,-2.5251,-2.5932,-2.6052,-2.6199,-2.6386,-2.668,-2.6974,-2.7268,-2.7562,-2.7856,-2.8136,-2.8136,-2.8136,-2.8136,-2.8136,-2.8203,-2.831,-2.8524,-2.8831,-2.9205,-2.9406,-2.9659,-2.9913,-2.9913,-2.9913,-2.9913,-2.9913,-2.9913,-2.9913,-2.9913,-2.9913,-2.9913,-2.9913,-2.9913,-2.9913,-2.9913,-2.9913,-2.9913,-2.9913,-2.9913,-2.9913,-2.9913,-2.9913,-2.9913,-2.9913,-3.0074,-3.0327,-3.0715,-3.0942,-3.1209,-3.1597,-3.1664,-3.1664,-3.1664,-3.2974,-3.4464,-3.5942,-3.8693,-4.1256,-4.3248,-4.4706,-4.5783,-4.6308,-4.6308,-4.6308,-4.6308,-4.6308,-4.6308,-4.6308,-4.6308,-4.6308,-4.6308,-4.6308,-4.6308,-4.6308,-4.6582,-4.6797,-4.6933,-4.707,-4.7305,-1.1894,-1.2149,0.0,-1.2067,-1.1475,0.0,-1.1059,0.0,-1.1538,-1.1519,-1.1297,-1.117,-1.1226,-1.0884,-1.0493,-1.0243,-0.9992,-0.9835,0.0,-0.9772,-1.0295,-1.1176,-1.306,-1.4758,-1.6261,-1.7109,-1.8117,-1.9259,-2.0373,-2.1525,-2.2806,-2.3707,-2.4581,-2.5611,-2.5852,-2.6092,-2.6386,-2.6573,-2.6867,-2.7268,-2.7455,-2.7749,-2.8136,-2.8136,-2.8136,-2.8136,-2.8136,-2.8136,-2.8163,-2.8364,-2.8671,-2.9058,-2.9245,-2.9566,-2.9913,-2.9913,-2.9913,-2.9913,-2.9913,-2.9913,-2.9913,-2.9913,-2.9913,-2.9913,-2.9913,-2.9913,-2.9913,-2.9913,-2.9913,-2.9913,-2.9913,-2.9913,-2.9913,-2.9913,-2.9913,-2.9913,-2.9913,-3.0154,-3.0448,-3.0742,-3.1022,-3.1316,-3.1623,-3.1664,-3.1664,-3.1664,-3.28,-3.4089,-3.5584,-3.8327,-4.0894,-4.2891,-4.4529,-4.5607,-4.6308,-4.6308,-4.6308,-4.6308,-4.6308,-4.6308,-4.6308,-4.6308,-4.6308,-4.6308,-4.6308,-4.6367,-4.6523,-4.6797,-4.709,-4.7383,-4.7519,-4.7578]}]]